Date StartTime U_cm/s V_cm/s W_cm/s Ustd_cm/s Vstd_cm/s Wstd_cm/s Uvar_(cm/s)^2 Vvar_(cm/s)^2 Wvar_(cm/s)^2 KE_(m/s)^2 TurbulentKE_(m/s)^2 HorizWindSpeed_cm/s FrictionSpeec_cm/s DragCoef SpeedOfSound_m/s SonicTemperature_C Pressure_mb 
12/10/2014  00:00:00      -56.332      -21.314       -0.820       64.504       32.925       23.862     4160.819     1084.055      569.396        0.472        0.291       60.229       30.217        0.252      334.486        4.490      863.854
12/10/2014  00:01:00      -76.333       -6.096       -1.994       55.616       32.339       22.134     3093.090     1045.819      489.917        0.525        0.231       76.576       24.828        0.105      334.471        4.466      863.838
12/10/2014  00:02:00      -74.374      -29.714       -1.877       32.374       27.043       18.744     1048.088      731.343      351.335        0.427        0.107       80.090       15.216        0.036      334.391        4.334      863.824
12/10/2014  00:03:00      -97.291      -42.346       -7.519       25.432       34.634       15.405      646.780     1199.538      237.308        0.670        0.104      106.107       11.725        0.012      334.337        4.244      863.818
12/10/2014  00:04:00      -93.591      -37.716       -0.851       47.018       35.041       21.322     2210.736     1227.906      454.613        0.704        0.195      100.904       15.648        0.024      334.254        4.105      863.828
12/10/2014  00:05:00      -92.727      -22.521       -5.412       45.348       30.896       20.815     2056.486      954.551      433.251        0.629        0.172       95.422       24.681        0.067      334.274        4.139      863.851
12/10/2014  00:06:00      -93.486        1.349        0.400       41.236       37.496       25.942     1700.440     1405.939      672.981        0.626        0.189       93.496       23.319        0.062      334.463        4.451      863.871
12/10/2014  00:07:00     -144.998       11.963      -11.993       40.106       38.775       25.726     1608.510     1503.526      661.817        1.254        0.189      145.491       23.980        0.027      334.712        4.865      863.899
12/10/2014  00:08:00      -93.135       10.305       -0.226       45.198       37.722       26.718     2042.888     1422.936      713.837        0.648        0.209       93.704       24.992        0.071      334.772        4.964      863.924
12/10/2014  00:09:00      -65.832        6.542       -3.310       51.331       28.683       17.465     2634.905      822.726      305.018        0.407        0.188       66.156       13.215        0.040      334.660        4.780      863.939
12/10/2014  00:10:00      -54.329        6.359       -1.053       46.769       38.899       23.945     2187.321     1513.159      573.380        0.363        0.214       54.700       26.429        0.233      334.733        4.902      863.953
12/10/2014  00:11:00      -50.220        9.408        4.088       54.745       39.233       20.776     2997.001     1539.232      431.637        0.380        0.248       51.094       25.795        0.255      334.630        4.728      863.978
12/10/2014  00:12:00      -43.330       16.430        7.329       45.030       24.452       27.470     2027.696      597.904      754.617        0.279        0.169       46.340       31.084        0.450      334.476        4.475      864.004
12/10/2014  00:13:00      -43.797        1.962        3.696       26.007       17.590       20.932      676.372      309.408      438.165        0.168        0.071       43.840        8.680        0.039      334.556        4.606      864.018
12/10/2014  00:14:00      -27.426        9.683        0.823       36.841       26.519       18.197     1357.236      703.246      331.125        0.162        0.120       29.085       16.885        0.337      334.606        4.690      864.018
12/10/2014  00:15:00      -44.419       -7.990        2.000       28.933       18.186       14.894      837.147      330.733      221.844        0.172        0.069       45.132       14.413        0.102      334.595        4.671      863.996
12/10/2014  00:16:00       -8.405       -7.248        3.617       22.142       13.623       11.772      490.281      185.599      138.568        0.048        0.041       11.099        9.660        0.758      334.556        4.608      863.967
12/10/2014  00:17:00       19.403        0.749        4.999        6.296        5.753        6.982       39.641       33.096       48.745        0.026        0.006       19.418        2.714        0.020      334.465        4.454      863.928
12/10/2014  00:18:00        0.664      -11.249       -5.341       10.533       13.519        5.291      110.940      182.769       27.999        0.024        0.016       11.268        5.259        0.218      334.549        4.595      863.905
12/10/2014  00:19:00      -19.184      -21.848       -4.789       11.586        8.701        6.247      134.241       75.707       39.019        0.056        0.012       29.075        4.830        0.028      334.492        4.501      863.890
12/10/2014  00:20:00      -20.055      -29.556        4.124       14.732       14.889        6.927      217.040      221.674       47.989        0.089        0.024       35.717        5.177        0.021      334.481        4.484      863.877
12/10/2014  00:21:00        8.227       -1.558       11.863       10.364       14.139       11.467      107.420      199.904      131.495        0.032        0.022        8.374       11.869        2.009      334.450        4.431      863.861
12/10/2014  00:22:00        6.833       52.093       50.276       15.914       15.788       14.332      253.255      249.265      205.399        0.300        0.035       52.539       12.301        0.055      334.341        4.251      863.848
12/10/2014  00:23:00       20.244       52.651       54.598       21.510       21.200       11.608      462.696      449.450      134.740        0.360        0.052       56.408        6.321        0.013      334.345        4.258      863.853
12/10/2014  00:24:00       12.673       34.206       33.017       29.145       22.496       18.731      849.416      506.080      350.864        0.206        0.085       36.478       15.458        0.180      334.465        4.456      863.880
12/10/2014  00:25:00      -16.438       -8.981        2.914       28.584       16.553       10.001      817.049      274.004      100.013        0.077        0.060       18.731       10.824        0.334      334.444        4.423      863.905
12/10/2014  00:26:00      -43.953      -36.461       -9.233       20.479       15.112       11.655      419.397      228.385      135.850        0.206        0.039       57.107       11.660        0.042      334.278        4.145      863.923
12/10/2014  00:27:00       -2.437      -30.217       -0.745       11.192        9.111       12.568      125.265       83.008      157.957        0.064        0.018       30.315        5.909        0.038      334.359        4.282      863.922
12/10/2014  00:28:00       -3.541       -6.225        0.358        4.157        5.525        4.283       17.277       30.520       18.341        0.006        0.003        7.162        1.913        0.071      334.508        4.528      863.912
12/10/2014  00:29:00        8.987        0.331       -3.293        7.286        5.727        5.230       53.092       32.794       27.354        0.010        0.006        8.993        4.024        0.200      334.567        4.625      863.897
12/10/2014  00:30:00        0.247       -1.433       -1.583        6.495        5.031        5.576       42.188       25.314       31.088        0.005        0.005        1.454        4.236        8.490      334.673        4.801      863.901
12/10/2014  00:31:00      -20.008      -15.566       -3.140       10.499        6.013        7.099      110.223       36.155       50.398        0.042        0.010       25.350        7.462        0.087      334.455        4.441      863.897
12/10/2014  00:32:00      -25.921      -16.700       -3.504       11.095        6.271        4.900      123.093       39.328       24.011        0.057        0.009       30.835        5.639        0.033      334.381        4.319      863.884
12/10/2014  00:33:00      -11.479      -20.933       -5.069        7.834        8.337        6.185       61.369       69.510       38.248        0.038        0.008       23.874        2.641        0.012      334.522        4.551      863.871
12/10/2014  00:34:00      -13.549      -18.170        2.373        6.905        6.743        6.998       47.683       45.465       48.967        0.033        0.007       22.666        3.235        0.020      334.509        4.524      863.857
12/10/2014  00:35:00      -32.677      -23.443       -9.382       18.076       12.694        8.227      326.724      161.139       67.676        0.113        0.028       40.216        5.767        0.021      334.585        4.654      863.850
12/10/2014  00:36:00      -64.337      -26.829       -5.905        9.530        7.539        6.045       90.820       56.831       36.538        0.254        0.009       69.706        4.506        0.004      334.305        4.189      863.858
12/10/2014  00:37:00     -109.656      -40.914       -7.528       18.058       14.206        7.031      326.102      201.817       49.440        0.717        0.029      117.040        6.193        0.003      334.307        4.194      863.866
12/10/2014  00:38:00     -112.761      -42.513       -5.471       24.129       22.202       14.233      582.185      492.914      202.570        0.791        0.064      120.509        4.203        0.001      334.198        4.014      863.871
12/10/2014  00:39:00      -99.685      -39.331       -2.811       26.959       19.019       14.440      726.790      361.719      208.517        0.639        0.065      107.164       13.241        0.015      334.205        4.024      863.874
12/10/2014  00:40:00      -91.981      -24.601       -8.848       12.937       11.704        7.426      167.361      136.990       55.139        0.475        0.018       95.214        4.760        0.002      334.213        4.038      863.877
12/10/2014  00:41:00      -95.415      -17.415       -7.559       10.535       12.307        8.379      110.980      151.451       70.214        0.490        0.017       96.991        4.255        0.002      334.222        4.052      863.881
12/10/2014  00:42:00      -90.637      -32.609       -4.288       25.077       17.677       13.168      628.868      312.490      173.386        0.521        0.056       96.325       16.525        0.029      334.271        4.134      863.895
12/10/2014  00:43:00      -67.224      -32.505        2.041       21.430       16.958       13.529      459.226      287.579      183.021        0.325        0.046       74.670       12.832        0.030      334.119        3.882      863.921
12/10/2014  00:44:00      -84.195      -51.082      -14.455       12.296       17.314       11.337      151.194      299.768      128.516        0.524        0.029       98.479        8.845        0.008      334.104        3.856      863.938
12/10/2014  00:45:00      -72.413      -47.418       -9.333       23.878       28.625       15.663      570.157      819.398      245.342        0.461        0.082       86.556       14.830        0.029      334.056        3.776      863.948
12/10/2014  00:46:00      -37.852      -42.572       -0.086       27.121       16.458       18.324      735.533      270.853      335.765        0.229        0.067       56.966       13.374        0.055      334.015        3.709      863.949
12/10/2014  00:47:00      -73.403      -29.336       -4.785       24.043       17.023       11.014      578.059      289.795      121.309        0.363        0.049       79.048        9.420        0.014      334.045        3.758      863.943
12/10/2014  00:48:00      -81.150      -42.276       -5.584       21.673       21.836       12.656      469.711      476.827      160.164        0.475        0.055       91.501       12.185        0.018      333.969        3.633      863.925
12/10/2014  00:49:00      -71.462      -38.286        0.995       27.986       22.106       17.362      783.213      488.663      301.437        0.407        0.079       81.071       16.818        0.043      333.990        3.668      863.900
12/10/2014  00:50:00      -77.374      -33.249       -0.092       24.741       28.760       16.060      612.122      827.119      257.919        0.439        0.085       84.216       14.370        0.029      333.970        3.636      863.868
12/10/2014  00:51:00      -84.890       -5.129       -4.422       36.635       30.109       17.205     1342.151      906.577      296.025        0.490        0.127       85.045       17.273        0.041      334.083        3.822      863.837
12/10/2014  00:52:00     -115.668       -1.008       -8.253       34.184       34.077       21.685     1168.524     1161.211      470.251        0.812        0.140      115.672       19.789        0.029      334.165        3.957      863.827
12/10/2014  00:53:00     -135.369       29.255      -13.013       47.254       39.824       19.572     2232.895     1585.965      383.078        1.178        0.210      138.494       15.082        0.012      334.149        3.930      863.811
12/10/2014  00:54:00     -101.676       -1.282       -7.961       31.142       37.189       17.528      969.807     1383.048      307.216        0.653        0.133      101.684       11.933        0.014      334.122        3.885      863.802
12/10/2014  00:55:00      -54.918      -21.322      -12.703       21.566       24.959       16.696      465.098      622.947      278.749        0.250        0.068       58.912       10.261        0.030      334.014        3.709      863.789
12/10/2014  00:56:00      -40.086      -12.355      -14.073       15.854       14.676       10.206      251.357      215.376      104.156        0.126        0.029       41.947        7.951        0.036      333.976        3.646      863.764
12/10/2014  00:57:00      -15.174      -28.285        0.197       22.780       14.934       14.001      518.939      223.014      196.039        0.098        0.047       32.098       14.787        0.212      334.040        3.750      863.730
12/10/2014  00:58:00       11.841      -21.904        1.484        9.732        6.475       10.711       94.720       41.921      114.721        0.044        0.013       24.899        4.057        0.027      334.031        3.735      863.710
12/10/2014  00:59:00       16.590      -10.640        2.217       11.224       16.645        8.544      125.985      277.060       72.998        0.043        0.024       19.709        9.741        0.244      334.094        3.840      863.699
12/10/2014  01:00:00       26.564       18.843        5.389       12.841        8.759        8.256      164.885       76.719       68.166        0.070        0.015       32.568        5.113        0.025      334.083        3.822      863.694
12/10/2014  01:01:00        8.343        9.570       -3.913        6.062        8.299        3.891       36.742       68.876       15.138        0.015        0.006       12.696        2.587        0.042      334.025        3.726      863.685
12/10/2014  01:02:00       -3.365        3.060       -0.976        2.281        3.362        2.157        5.202       11.305        4.654        0.002        0.001        4.548        1.663        0.134      334.039        3.751      863.670
12/10/2014  01:03:00       -4.856       -2.296        4.520        9.309        9.298        7.713       86.663       86.457       59.493        0.014        0.012        5.371        4.853        0.816      334.018        3.713      863.649
12/10/2014  01:04:00       -3.161       -8.720       -0.315        9.899        4.018        4.115       97.989       16.141       16.933        0.011        0.007        9.275        4.628        0.249      333.967        3.630      863.635
12/10/2014  01:05:00       38.716       12.201        9.431       12.733       10.498        8.590      162.130      110.214       73.796        0.104        0.017       40.593        8.072        0.040      334.041        3.752      863.631
12/10/2014  01:06:00       40.937       24.457        4.329        7.017        7.650        5.559       49.244       58.530       30.903        0.122        0.007       47.686        2.801        0.003      333.998        3.682      863.634
12/10/2014  01:07:00       40.273       35.539        4.490        7.396        5.494        5.255       54.696       30.182       27.618        0.151        0.006       53.712        3.946        0.005      333.980        3.653      863.639
12/10/2014  01:08:00       21.519       26.513       -3.277       12.590        5.806        2.684      158.501       33.712        7.202        0.069        0.010       34.147        1.737        0.003      334.123        3.888      863.633
12/10/2014  01:09:00        9.507       46.882       -6.414       10.377       11.873        6.133      107.679      140.971       37.611        0.131        0.014       47.836        6.054        0.016      334.321        4.216      863.619
12/10/2014  01:10:00       17.485       17.032        8.109        9.645       10.542       10.198       93.024      111.137      104.006        0.048        0.015       24.409        7.477        0.094      334.145        3.924      863.608
12/10/2014  01:11:00       30.232       15.409       13.000       15.986       16.399       14.623      255.567      268.931      213.832        0.103        0.037       33.932       11.426        0.113      334.022        3.721      863.592
12/10/2014  01:12:00       21.600       11.189       15.053       15.754        9.703       12.635      248.196       94.141      159.633        0.066        0.025       24.325       10.668        0.192      333.874        3.475      863.573
12/10/2014  01:13:00       70.728       26.690        7.422       19.984       16.276       13.288      399.342      264.913      176.572        0.331        0.042       75.596        5.179        0.005      333.955        3.610      863.566
12/10/2014  01:14:00       38.124       21.954        2.904       21.762       14.636       13.933      473.579      214.211      194.142        0.141        0.044       43.994       11.101        0.064      333.899        3.515      863.575
12/10/2014  01:15:00       16.449        9.482        2.072       17.194       10.741        6.314      295.637      115.367       39.863        0.041        0.023       18.986        4.652        0.060      333.832        3.407      863.585
12/10/2014  01:16:00        6.275        5.645        2.837       11.416       12.742        8.921      130.336      162.364       79.591        0.023        0.019        8.440        8.308        0.969      333.787        3.331      863.591
12/10/2014  01:17:00       13.430       20.696       -5.476       14.528       12.888        5.576      211.068      166.095       31.096        0.052        0.020       24.671        6.534        0.070      333.910        3.534      863.598
12/10/2014  01:18:00        0.016       32.609       -4.150       15.873       12.225        8.475      251.958      149.440       71.817        0.078        0.024       32.609        6.136        0.035      333.979        3.649      863.611
12/10/2014  01:19:00      -30.743       18.746       -4.982       11.942       17.512        6.396      142.623      306.678       40.903        0.091        0.025       36.008        6.252        0.030      333.901        3.520      863.639
12/10/2014  01:20:00      -51.542      -18.369       -9.839       11.942       10.576        4.580      142.618      111.858       20.980        0.168        0.014       54.717        2.760        0.003      333.576        2.981      863.672
12/10/2014  01:21:00      -56.684      -15.935       -6.567       14.774       16.362       12.499      218.277      267.710      156.234        0.208        0.032       58.881        7.005        0.014      333.401        2.692      863.711
12/10/2014  01:22:00      -69.331       15.427      -14.250       26.211       24.339       12.819      686.999      592.391      164.327        0.335        0.072       71.027        9.679        0.019      333.618        3.050      863.736
12/10/2014  01:23:00      -23.621       -5.487       -3.170       19.391       18.047       12.950      375.999      325.692      167.715        0.073        0.043       24.250       10.513        0.188      333.671        3.138      863.747
12/10/2014  01:24:00      -34.428        2.786       -6.082       22.688       12.820       15.501      514.759      164.363      240.268        0.107        0.046       34.541        7.387        0.046      333.724        3.227      863.735
12/10/2014  01:25:00      -36.561       -9.088       -8.987       18.356       19.652       10.098      336.941      386.183      101.977        0.116        0.041       37.674        5.892        0.024      333.781        3.322      863.721
12/10/2014  01:26:00      -52.241      -24.896       -6.343       16.306       16.401       12.006      265.894      268.992      144.144        0.203        0.034       57.870        9.591        0.027      333.739        3.252      863.701
12/10/2014  01:27:00      -81.086       -4.075      -14.015       20.320       14.218       12.354      412.911      202.142      152.613        0.378        0.038       81.188       12.473        0.024      333.888        3.499      863.679
12/10/2014  01:28:00      -55.932      -17.032       -3.437       24.865       16.889       13.316      618.257      285.237      177.307        0.226        0.054       58.468       11.965        0.042      333.857        3.448      863.659
12/10/2014  01:29:00      -61.010      -17.955      -11.137       22.147       16.531        8.706      490.480      273.278       75.797        0.250        0.042       63.597        7.358        0.013      333.887        3.498      863.656
12/10/2014  01:30:00     -102.726       -7.927      -18.949       13.478        9.331        6.573      181.650       87.063       43.208        0.564        0.016      103.032        5.558        0.003      333.928        3.565      863.662
12/10/2014  01:31:00     -108.180      -21.547      -13.047       15.585       17.143       10.830      242.896      293.869      117.288        0.650        0.033      110.305        8.349        0.006      333.862        3.455      863.670
12/10/2014  01:32:00     -100.659      -22.235       -7.191       16.830       23.237       14.552      283.256      539.970      211.754        0.586        0.052      103.086       10.279        0.010      333.702        3.190      863.683
12/10/2014  01:33:00      -81.241      -23.897       -5.684       31.508       27.632       18.493      992.729      763.510      342.000        0.465        0.105       84.683       15.455        0.033      333.665        3.128      863.684
12/10/2014  01:34:00      -68.491      -23.813       -2.217       34.720       33.398       18.566     1205.509     1115.403      344.711        0.396        0.133       72.512       15.615        0.046      333.655        3.112      863.691
12/10/2014  01:35:00      -51.839      -20.776       -1.415       40.699       27.333       20.460     1656.437      747.081      418.623        0.297        0.141       55.847       20.217        0.131      333.555        2.947      863.675
12/10/2014  01:36:00      -21.095       -7.549        5.066       34.941       29.068       20.661     1220.882      844.972      426.876        0.151        0.125       22.405       15.002        0.448      333.742        3.255      863.649
12/10/2014  01:37:00      -40.404       -0.905        3.766       47.240       27.777       23.874     2231.614      771.582      569.977        0.261        0.179       40.414       24.352        0.363      333.901        3.521      863.621
12/10/2014  01:38:00      -54.394      -10.554        5.698       31.291       28.563       21.778      979.102      815.864      474.286        0.269        0.113       55.408       17.210        0.096      333.831        3.402      863.595
12/10/2014  01:39:00      -47.038       -7.955        0.910       47.047       25.800       20.864     2213.458      665.645      435.321        0.279        0.166       47.706       26.609        0.311      333.773        3.308      863.570
12/10/2014  01:40:00      -89.605        4.036       -6.351       37.005       32.803       27.822     1369.347     1076.048      774.083        0.565        0.161       89.696       21.786        0.059      333.696        3.180      863.566
12/10/2014  01:41:00     -125.274       17.928       -7.891       52.564       30.217       22.818     2762.927      913.097      520.648        1.014        0.210      126.550       21.646        0.029      333.602        3.025      863.563
12/10/2014  01:42:00     -133.454       46.833      -12.614       55.902       30.896       25.344     3125.057      954.579      642.340        1.244        0.236      141.433       22.032        0.024      333.572        2.975      863.563
12/10/2014  01:43:00     -195.157       33.127      -17.976       40.890       24.354       17.924     1671.984      593.095      321.264        2.105        0.129      197.949       17.280        0.008      333.643        3.089      863.574
12/10/2014  01:44:00     -142.171        6.321      -12.647       45.762       43.992       24.562     2094.140     1935.329      603.303        1.252        0.232      142.312       21.372        0.023      333.591        3.007      863.571
12/10/2014  01:45:00     -155.170       -4.005      -13.649       35.990       34.840       23.372     1295.273     1213.821      546.243        1.367        0.153      155.221       20.619        0.018      333.607        3.033      863.572
12/10/2014  01:46:00     -110.150      -18.180      -10.072       43.212       30.559       17.092     1867.235      933.861      292.133        0.783        0.155      111.640       16.563        0.022      333.636        3.080      863.559
12/10/2014  01:47:00      -87.663      -19.815        0.018       41.171       25.351       22.093     1695.065      642.650      488.108        0.545        0.141       89.875       19.910        0.049      333.790        3.337      863.535
12/10/2014  01:48:00     -105.596      -20.184       -7.054       35.118       29.590       21.408     1233.241      875.545      458.310        0.709        0.128      107.508       21.101        0.039      333.808        3.365      863.507
12/10/2014  01:49:00      -75.200      -19.602       -8.759       20.458       23.821       15.376      418.530      567.424      236.431        0.367        0.061       77.713       12.748        0.027      333.744        3.259      863.486
12/10/2014  01:50:00      -81.336      -36.716      -11.255       13.139        9.886        9.005      172.636       97.725       81.097        0.422        0.018       89.239        3.929        0.002      333.734        3.245      863.472
12/10/2014  01:51:00     -105.038      -28.772       -9.840        8.865       10.980       10.121       78.596      120.563      102.434        0.613        0.015      108.907        2.900        0.001      333.759        3.283      863.464
12/10/2014  01:52:00      -80.829      -41.575       -2.211       15.736       14.662       12.455      247.630      214.969      155.118        0.444        0.031       90.894        7.966        0.008      333.710        3.202      863.459
12/10/2014  01:53:00      -73.510      -45.266       -4.065       26.006       12.728       12.441      676.332      162.005      154.773        0.423        0.050       86.329        6.865        0.006      333.695        3.178      863.460
12/10/2014  01:54:00      -41.244      -29.881        4.491       24.923       17.535       12.849      621.138      307.492      165.085        0.185        0.055       50.931        8.544        0.028      333.627        3.065      863.454
12/10/2014  01:55:00      -47.810      -27.548        4.248       25.591       14.254       11.507      654.918      203.163      132.418        0.203        0.050       55.178       11.302        0.042      333.701        3.188      863.432
12/10/2014  01:56:00      -30.872      -25.868        0.405        7.379        9.047        7.649       54.450       81.845       58.512        0.091        0.010       40.277        5.130        0.016      333.812        3.372      863.404
12/10/2014  01:57:00      -20.216      -12.028        2.234        8.260        6.700        5.381       68.230       44.893       28.953        0.035        0.007       23.524        3.000        0.016      333.951        3.603      863.369
12/10/2014  01:58:00      -39.795      -20.379       -3.806       14.256        8.664        6.979      203.222       75.069       48.709        0.117        0.016       44.709        7.804        0.030      333.906        3.529      863.344
12/10/2014  01:59:00      -90.823      -15.503      -14.008       28.681       15.348       10.952      822.617      235.569      119.936        0.493        0.059       92.137       11.809        0.016      333.765        3.294      863.318
12/10/2014  02:00:00     -141.738       -2.444      -14.086       21.304       15.621       13.163      453.840      244.021      173.264        1.058        0.044      141.759        9.649        0.005      333.605        3.030      863.313
12/10/2014  02:01:00     -145.374      -12.710      -11.863       24.479       18.826       17.302      599.237      354.435      299.373        1.134        0.063      145.929       13.360        0.008      333.544        2.927      863.301
12/10/2014  02:02:00     -131.320      -21.392      -12.410       18.263       14.649       13.676      333.551      214.601      187.038        0.930        0.037      133.051       10.764        0.007      333.526        2.897      863.290
12/10/2014  02:03:00      -99.744      -39.975       -7.956       21.653       13.301       11.092      468.866      176.927      123.028        0.619        0.038      107.456        9.113        0.007      333.567        2.965      863.273
12/10/2014  02:04:00      -71.083      -40.239       -6.038        9.497        6.705        5.064       90.198       44.959       25.640        0.343        0.008       81.682        4.151        0.003      333.615        3.046      863.256
12/10/2014  02:05:00      -80.223      -23.129      -12.101       14.209       10.839        9.752      201.905      117.492       95.108        0.377        0.021       83.491        6.350        0.006      333.652        3.107      863.259
12/10/2014  02:06:00     -115.036      -37.272      -10.478       11.834       19.061        9.082      140.036      363.322       82.486        0.766        0.029      120.923        6.240        0.003      333.597        3.015      863.252
12/10/2014  02:07:00      -94.629      -66.911       -2.552       34.807       28.889       20.551     1211.501      834.553      422.329        0.795        0.123      115.895       19.652        0.029      333.474        2.812      863.259
12/10/2014  02:08:00     -134.646      -39.777      -18.764       32.866       22.770       15.927     1080.178      518.450      253.666        1.096        0.093      140.399       18.566        0.017      333.396        2.683      863.259
12/10/2014  02:09:00     -120.375      -39.258      -12.058       25.210       24.245       21.379      635.522      587.814      457.066        0.893        0.084      126.615       16.085        0.016      333.321        2.558      863.256
12/10/2014  02:10:00     -100.265      -25.684       -0.088       35.504       24.038       16.682     1260.530      577.831      278.281        0.641        0.106      103.503       15.700        0.023      333.368        2.638      863.255
12/10/2014  02:11:00      -65.202      -25.456        0.033       18.320       13.748       11.291      335.633      188.997      127.492        0.278        0.033       69.995        9.165        0.017      333.399        2.688      863.259
12/10/2014  02:12:00      -85.771      -23.865       -2.730       15.930        9.639       10.510      253.776       92.905      110.459        0.420        0.023       89.029        7.785        0.008      333.491        2.840      863.270
12/10/2014  02:13:00      -77.086      -15.710       -1.558       20.165       11.903       10.934      406.635      141.672      119.542        0.343        0.033       78.671        8.311        0.011      333.497        2.851      863.269
12/10/2014  02:14:00      -87.859       -4.843      -11.628       14.923       18.768       12.409      222.707      352.245      153.986        0.430        0.036       87.993        9.781        0.012      333.654        3.110      863.255
12/10/2014  02:15:00      -63.402       -2.690       -5.708       14.513       14.348       12.575      210.614      205.863      158.140        0.232        0.029       63.459        8.563        0.018      333.617        3.051      863.237
12/10/2014  02:16:00      -57.810       -3.936      -11.225       14.193       17.183       14.056      201.434      295.255      197.582        0.209        0.035       57.944        7.383        0.016      333.708        3.199      863.223
12/10/2014  02:17:00      -47.628       -9.774       -1.665       15.709       19.827       15.265      246.767      393.092      233.018        0.162        0.044       48.621        7.562        0.024      333.709        3.201      863.223
12/10/2014  02:18:00      -79.980       -0.973       -4.644       22.712       22.163       17.565      515.819      491.180      308.538        0.387        0.066       79.986       12.665        0.025      333.804        3.359      863.228
12/10/2014  02:19:00      -87.480      -19.679       -4.938       27.365       23.066       15.611      748.852      532.056      243.696        0.479        0.076       89.666       13.579        0.023      333.698        3.184      863.229
12/10/2014  02:20:00     -139.806      -17.761      -10.479       35.343       21.922       19.741     1249.125      480.563      389.720        1.104        0.106      140.930       20.276        0.021      333.661        3.120      863.224
12/10/2014  02:21:00      -80.627       11.777       -5.024       36.776       25.360       20.108     1352.486      643.124      404.332        0.453        0.120       81.483       16.859        0.043      333.672        3.139      863.202
12/10/2014  02:22:00      -67.491       28.462      -13.912       27.345       28.843       20.623      747.737      831.940      425.310        0.378        0.100       73.247       14.522        0.039      333.833        3.407      863.178
12/10/2014  02:23:00      -39.012        6.669      -11.513       31.957       27.208       20.141     1021.263      740.279      405.675        0.193        0.108       39.578       18.287        0.213      333.899        3.516      863.164
12/10/2014  02:24:00     -113.583       17.911       -9.977       42.920       35.885       21.977     1842.153     1287.711      482.976        0.847        0.181      114.986       17.341        0.023      334.016        3.712      863.155
12/10/2014  02:25:00      -85.853       16.117       -9.373       48.496       36.801       19.880     2351.821     1354.337      395.215        0.591        0.205       87.353       15.751        0.033      333.977        3.647      863.153
12/10/2014  02:26:00      -20.503       10.027        2.718       39.283       23.437       14.555     1543.147      549.278      211.853        0.142        0.115       22.824       18.172        0.634      333.896        3.511      863.156
12/10/2014  02:27:00       20.557       34.162       16.494       28.984       24.457       18.361      840.100      598.132      337.109        0.182        0.089       39.870       13.210        0.110      333.734        3.245      863.148
12/10/2014  02:28:00       64.849       31.251      -10.089       14.105       11.080       14.453      198.958      122.759      208.898        0.291        0.027       71.986        7.014        0.009      333.457        2.784      863.145
12/10/2014  02:29:00       28.385       44.422       -7.571       15.634       14.600       12.339      244.434      213.167      152.241        0.172        0.030       52.717        9.512        0.033      333.489        2.837      863.132
12/10/2014  02:30:00        8.423       53.045      -13.471       14.933       10.063        6.809      222.981      101.267       46.363        0.172        0.019       53.709        4.527        0.007      333.607        3.033      863.121
12/10/2014  02:31:00       15.320       31.491       -4.781       10.113       19.545       14.749      102.266      381.994      217.547        0.098        0.035       35.019       14.883        0.181      333.496        2.849      863.116
12/10/2014  02:32:00       27.110       36.298        4.190       14.396       15.903       13.166      207.239      252.894      173.334        0.135        0.032       45.305       10.728        0.056      333.460        2.788      863.107
12/10/2014  02:33:00       59.598       43.481        9.304       20.254       14.716       15.773      410.224      216.568      248.775        0.320        0.044       73.774       11.550        0.025      333.276        2.484      863.103
12/10/2014  02:34:00       79.434       63.416        2.705       19.378       19.697       14.525      375.504      387.980      210.979        0.566        0.049      101.643        9.497        0.009      333.202        2.361      863.085
12/10/2014  02:35:00       74.982       42.616        9.818       24.341       23.370       16.938      592.483      546.168      286.898        0.448        0.071       86.246       14.777        0.029      333.212        2.378      863.074
12/10/2014  02:36:00      106.963       56.274        5.764       21.803       16.441       17.499      475.350      270.318      306.218        0.785        0.053      120.863        9.763        0.007      333.370        2.639      863.064
12/10/2014  02:37:00       52.875       17.354        8.097       20.708       20.651       16.090      428.820      426.468      258.899        0.214        0.056       55.650       12.342        0.049      333.473        2.809      863.071
12/10/2014  02:38:00       12.536      -11.063        3.167       23.236       14.762       11.034      539.921      217.903      121.753        0.058        0.044       16.720       11.645        0.485      333.491        2.839      863.095
12/10/2014  02:39:00      -50.488       -5.681       -1.571       12.197        9.381        5.740      148.776       88.000       32.949        0.143        0.013       50.806        3.081        0.004      333.482        2.824      863.122
12/10/2014  02:40:00      -34.478       -7.573       -4.009       16.505        8.935        8.941      272.430       79.842       79.936        0.085        0.022       35.300        5.607        0.025      333.390        2.674      863.133
12/10/2014  02:41:00      -19.214      -12.955       -1.842       14.729        6.647        5.651      216.950       44.182       31.933        0.042        0.015       23.173        6.307        0.074      333.370        2.642      863.142
12/10/2014  02:42:00      -71.249      -29.381      -11.576       18.282       12.649        6.909      334.243      160.001       47.728        0.331        0.027       77.069        3.830        0.002      333.441        2.756      863.143
12/10/2014  02:43:00     -114.264      -23.530       -7.489       22.840       15.697       12.454      521.662      246.404      155.101        0.729        0.046      116.662       11.571        0.010      333.450        2.771      863.151
12/10/2014  02:44:00     -103.898      -36.683        0.978       30.064       26.512       18.855      903.871      702.879      355.498        0.705        0.098      110.184       18.136        0.027      333.439        2.752      863.171
12/10/2014  02:45:00      -91.820      -46.797        0.436       27.494       23.347       13.648      755.908      545.071      186.281        0.605        0.074      103.058       12.862        0.016      333.439        2.753      863.196
12/10/2014  02:46:00      -60.175      -30.050        3.270       26.137       22.498       16.946      683.150      506.162      287.153        0.301        0.074       67.261       14.546        0.047      333.454        2.779      863.215
12/10/2014  02:47:00      -57.893       -4.312       -2.646       17.375       18.707       10.958      301.895      349.939      120.071        0.207        0.039       58.053        8.400        0.021      333.502        2.859      863.216
12/10/2014  02:48:00      -34.483      -28.063       -0.674       12.774       15.839       10.327      163.167      250.878      106.654        0.125        0.026       44.459       10.324        0.054      333.422        2.726      863.194
12/10/2014  02:49:00       -1.077        5.674        6.182       23.928       24.986       10.861      572.537      624.281      117.971        0.069        0.066        5.776       16.618        8.279      333.444        2.763      863.169
12/10/2014  02:50:00       25.661       30.450       -3.245       12.735       19.669       11.868      162.174      386.879      140.853        0.114        0.034       39.821       13.464        0.114      333.441        2.756      863.156
12/10/2014  02:51:00        2.722       24.244       -6.654       13.126       16.742        4.418      172.295      280.297       19.515        0.056        0.024       24.396        6.969        0.082      333.497        2.848      863.160
12/10/2014  02:52:00      -55.861      -15.766       -4.421       34.084       12.124       10.675     1161.701      146.986      113.953        0.241        0.071       58.043       13.145        0.051      333.420        2.722      863.173
12/10/2014  02:53:00      -77.136      -18.800       -5.449       21.879       18.065       14.282      478.671      326.358      203.986        0.367        0.050       79.394       11.024        0.019      333.216        2.385      863.184
12/10/2014  02:54:00      -65.571      -24.382       -2.690       20.149       14.725       10.394      405.975      216.839      108.037        0.282        0.037       69.958        9.416        0.018      333.213        2.380      863.199
12/10/2014  02:55:00       -7.789       -9.164        9.724       10.270       13.196        8.549      105.463      174.139       73.086        0.030        0.018       12.027        6.926        0.332      333.188        2.338      863.208
12/10/2014  02:56:00      -21.977       20.227       -3.610       11.858       16.443        6.898      140.604      270.358       47.584        0.068        0.023       29.868        5.345        0.032      333.303        2.530      863.200
12/10/2014  02:57:00       -7.249        5.603       -1.967       11.086       14.135        7.274      122.897      199.807       52.915        0.023        0.019        9.161        4.688        0.262      333.387        2.669      863.199
12/10/2014  02:58:00        1.107       31.338       -0.532        7.255       14.430        7.942       52.641      208.234       63.075        0.065        0.016       31.357        7.089        0.051      333.599        3.019      863.195
12/10/2014  02:59:00       11.724       41.640        1.257       13.475       14.491        8.638      181.571      209.984       74.613        0.117        0.023       43.259        6.911        0.026      333.491        2.840      863.177
12/10/2014  03:00:00       32.030       22.419       -1.953       19.849       15.037       11.751      393.987      226.118      138.085        0.115        0.038       39.096       11.778        0.091      333.404        2.696      863.169
12/10/2014  03:01:00       17.352       20.953       -2.096       15.007       16.809       10.206      225.207      282.557      104.164        0.068        0.031       27.205        9.897        0.132      333.304        2.530      863.163
12/10/2014  03:02:00       26.534       24.859       -2.292       13.452       13.078       10.782      180.957      171.023      116.242        0.090        0.023       36.359        9.438        0.067      333.278        2.487      863.157
12/10/2014  03:03:00       52.374       41.053        4.657       15.570       13.600        8.847      242.432      184.972       78.267        0.248        0.025       66.546        7.904        0.014      333.281        2.491      863.150
12/10/2014  03:04:00       50.661       42.522        4.257       17.176       16.027       11.850      295.011      256.851      140.422        0.254        0.035       66.141        9.476        0.021      333.222        2.395      863.141
12/10/2014  03:05:00       38.076       26.626       -1.677       16.462       15.595       12.821      270.982      243.203      164.368        0.142        0.034       46.462        5.664        0.015      333.244        2.431      863.145
12/10/2014  03:06:00       26.732       27.533        1.464       15.760        9.971       10.019      248.373       99.430      100.375        0.096        0.022       38.376        6.597        0.030      333.259        2.456      863.156
12/10/2014  03:07:00       52.239       33.744        0.038       12.303       12.416       13.680      151.372      154.155      187.133        0.218        0.025       62.190        9.168        0.022      333.342        2.592      863.169
12/10/2014  03:08:00       42.278       31.045        7.353       12.069       11.109        8.211      145.660      123.415       67.424        0.157        0.017       52.452        7.151        0.019      333.365        2.633      863.168
12/10/2014  03:09:00       11.366       18.141       -5.364       13.881        9.914        5.087      192.669       98.285       25.879        0.040        0.016       21.408        2.378        0.012      333.430        2.739      863.179
12/10/2014  03:10:00       -2.163        0.708       -3.106        3.856        4.485        2.339       14.870       20.111        5.469        0.003        0.002        2.276        1.952        0.736      333.384        2.664      863.195
12/10/2014  03:11:00      -14.135        1.339        0.733        7.841        5.292        2.834       61.476       28.009        8.031        0.015        0.005       14.198        2.107        0.022      333.485        2.829      863.198
12/10/2014  03:12:00      -24.707       -7.233       -2.270       11.169        6.268        6.428      124.747       39.292       41.314        0.044        0.010       25.744        5.840        0.051      333.403        2.694      863.207
12/10/2014  03:13:00        6.866        6.405        6.687       11.150        8.663        4.441      124.320       75.049       19.725        0.018        0.011        9.389        5.228        0.310      333.405        2.697      863.216
12/10/2014  03:14:00       11.317       18.532        3.241        6.461        4.180        6.203       41.745       17.476       38.479        0.029        0.005       21.714        4.444        0.042      333.484        2.832      863.222
12/10/2014  03:15:00        2.477       28.258       -5.183        5.332        7.414        5.068       28.432       54.967       25.687        0.047        0.005       28.366        3.553        0.016      333.506        2.863      863.228
12/10/2014  03:16:00        6.197       45.606       -4.808       10.695       12.838        4.393      114.391      164.805       19.295        0.122        0.015       46.025        6.082        0.017      333.509        2.870      863.235
12/10/2014  03:17:00       18.048       35.729       -2.082       10.631       19.217       10.645      113.010      369.299      113.317        0.110        0.030       40.029       12.711        0.101      333.440        2.757      863.228
12/10/2014  03:18:00       26.269       21.991       -0.105        8.726       15.576       11.314       76.145      242.626      127.997        0.081        0.022       34.259        9.376        0.075      333.443        2.760      863.220
12/10/2014  03:19:00       14.023       18.839       -5.287       10.142        6.800        4.149      102.858       46.245       17.211        0.037        0.008       23.485        4.451        0.036      333.472        2.808      863.214
12/10/2014  03:20:00        2.136       31.250       -3.798        3.909        5.524        3.849       15.283       30.519       14.818        0.053        0.003       31.323        1.063        0.001      333.508        2.869      863.196
12/10/2014  03:21:00       21.854       27.014        0.333       13.715       15.537        8.518      188.089      241.401       72.557        0.085        0.025       34.747        9.634        0.077      333.513        2.877      863.181
12/10/2014  03:22:00       60.472       35.408        7.375       20.034       14.296       14.597      401.367      204.375      213.070        0.289        0.041       70.076        9.775        0.019      333.488        2.835      863.155
12/10/2014  03:23:00       64.275       24.006        7.584       16.022       14.000        9.683      256.717      196.002       93.758        0.266        0.027       68.612        7.441        0.012      333.460        2.789      863.147
12/10/2014  03:24:00       39.544       23.524        8.442       18.105       13.417       11.167      327.777      180.005      124.708        0.141        0.032       46.012        6.446        0.020      333.434        2.746      863.145
12/10/2014  03:25:00       42.274       43.696       15.551       18.645       10.505       11.244      347.630      110.364      126.417        0.226        0.029       60.798       10.633        0.031      333.409        2.704      863.163
12/10/2014  03:26:00       45.031       38.100       12.999        6.649        8.479        7.405       44.215       71.899       54.834        0.191        0.009       58.986        4.572        0.006      333.443        2.761      863.173
12/10/2014  03:27:00       26.978       18.896        5.383        9.185       11.207        7.853       84.356      125.587       61.677        0.069        0.014       32.937        7.466        0.051      333.417        2.717      863.197
12/10/2014  03:28:00       29.413       18.725        7.075        8.368        7.133        6.934       70.016       50.876       48.084        0.072        0.008       34.867        2.434        0.005      333.359        2.623      863.210
12/10/2014  03:29:00       44.175       25.178        3.466        7.646        6.308        6.394       58.468       39.788       40.882        0.137        0.007       50.846        3.595        0.005      333.374        2.647      863.211
12/10/2014  03:30:00       43.067       20.153        2.678       12.426       10.255       10.429      154.407      105.162      108.772        0.132        0.018       47.549        5.038        0.011      333.400        2.692      863.202
12/10/2014  03:31:00       50.228       18.532       10.331       20.177       18.798       16.586      407.130      353.347      275.089        0.200        0.052       53.537       15.482        0.084      333.339        2.588      863.188
12/10/2014  03:32:00       55.074       30.187       11.148       24.740       13.612       12.737      612.083      185.296      162.229        0.251        0.048       62.804       11.465        0.033      333.344        2.597      863.174
12/10/2014  03:33:00       38.069       16.318       23.233       19.899       17.118       16.537      395.975      293.014      273.467        0.161        0.048       41.419       11.592        0.078      333.309        2.539      863.173
12/10/2014  03:34:00       36.027       20.611       20.160       19.375       20.361       17.515      375.390      414.563      306.768        0.161        0.055       41.506       13.026        0.098      333.318        2.554      863.179
12/10/2014  03:35:00       22.959        4.137       16.079       22.122       16.332       13.457      489.381      266.721      181.100        0.087        0.047       23.329       12.450        0.285      333.310        2.540      863.186
12/10/2014  03:36:00       10.129       15.262       26.734       16.578       11.487        8.638      274.829      131.950       74.612        0.077        0.024       18.317        5.508        0.090      333.257        2.452      863.178
12/10/2014  03:37:00       26.915       31.007       37.501       20.096       13.989       14.246      403.839      195.682      202.936        0.195        0.040       41.059        2.328        0.003      333.268        2.469      863.145
12/10/2014  03:38:00       12.370       31.988       42.939       17.039       16.606        9.480      290.344      275.745       89.868        0.184        0.033       34.296        5.766        0.028      333.263        2.461      863.102
12/10/2014  03:39:00       17.398       39.772       45.756       18.899       16.274        7.024      357.165      264.855       49.330        0.232        0.034       43.411        8.237        0.036      333.206        2.367      863.059
12/10/2014  03:40:00       31.152       39.594       41.173       26.248       22.904       16.721      688.972      524.581      279.588        0.286        0.075       50.380       13.066        0.067      333.199        2.355      863.003
12/10/2014  03:41:00       64.453       42.993       24.921       17.361       14.833       18.281      301.406      220.004      334.187        0.374        0.043       77.476       10.180        0.017      333.179        2.324      862.965
12/10/2014  03:42:00       43.560       24.223       14.034       26.150       18.886       14.542      683.805      356.675      211.460        0.197        0.063       49.842        9.682        0.038      333.179        2.324      862.932
12/10/2014  03:43:00       56.578       31.735       14.605       30.134       15.343       22.687      908.062      235.416      514.686        0.304        0.083       64.870       19.234        0.088      333.119        2.224      862.910
12/10/2014  03:44:00       53.442       37.137        4.087       24.558       16.221       12.307      603.118      263.126      151.455        0.263        0.051       65.078       10.975        0.028      333.057        2.123      862.894
12/10/2014  03:45:00       33.123       41.222        4.849       20.982       13.604       15.505      440.251      185.070      240.392        0.184        0.043       52.881        9.760        0.034      333.044        2.101      862.894
12/10/2014  03:46:00       18.297       55.156       -4.480       13.190       10.567        8.389      173.965      111.666       70.369        0.188        0.018       58.112        3.923        0.005      333.081        2.162      862.884
12/10/2014  03:47:00       20.532       68.108       -7.218       11.974       12.242        8.636      143.368      149.869       74.581        0.274        0.018       71.135        7.433        0.011      333.127        2.238      862.870
12/10/2014  03:48:00        5.888       82.134      -15.948        6.807       15.040        5.588       46.332      226.204       31.230        0.367        0.015       82.345        5.445        0.004      333.099        2.191      862.843
12/10/2014  03:49:00       21.094      112.608      -19.685       14.499       15.969        7.651      210.213      255.020       58.541        0.702        0.026      114.567        6.705        0.003      333.079        2.159      862.807
12/10/2014  03:50:00       31.373      118.501      -18.917       15.506       21.970       17.355      240.441      482.663      301.198        0.820        0.051      122.584       14.065        0.013      333.070        2.146      862.777
12/10/2014  03:51:00       19.346      102.325      -15.191       24.829       29.044       20.387      616.467      843.529      415.633        0.648        0.094      104.138       17.790        0.029      333.057        2.125      862.747
12/10/2014  03:52:00      -10.895      124.769      -20.711       15.930       19.903        9.915      253.780      396.133       98.305        0.843        0.037      125.244        7.879        0.004      333.077        2.153      862.734
12/10/2014  03:53:00      -17.467      127.544       -9.567       14.183       19.444       15.565      201.156      378.078      242.275        0.874        0.041      128.734       12.914        0.010      333.106        2.201      862.733
12/10/2014  03:54:00      -36.900       44.059       -0.381       20.440       40.728       18.116      417.802     1658.744      328.179        0.285        0.120       57.470       15.959        0.077      333.134        2.251      862.740
12/10/2014  03:55:00      -52.415       11.165       -9.071       23.936       18.037       14.236      572.936      325.348      202.676        0.203        0.055       53.591       12.438        0.054      333.082        2.163      862.755
12/10/2014  03:56:00      -66.235       -3.549       -7.070       29.640       17.766       12.843      878.530      315.643      164.943        0.290        0.068       66.330       13.782        0.043      333.049        2.110      862.758
12/10/2014  03:57:00      -75.118      -16.434      -10.762       17.586       15.799        9.785      309.276      249.609       95.752        0.334        0.033       76.895        5.771        0.006      332.876        1.826      862.755
12/10/2014  03:58:00      -84.914       -2.198       -3.454       39.315       21.757       20.479     1545.639      473.378      419.395        0.483        0.122       84.942       21.799        0.066      332.890        1.848      862.757
12/10/2014  03:59:00      -83.692      -18.532       -6.174       37.553       36.071       22.963     1410.248     1301.086      527.284        0.531        0.162       85.719       21.731        0.064      332.973        1.984      862.743
12/10/2014  04:00:00     -100.447      -17.228       -3.966       34.767       20.631       20.619     1208.747      425.621      425.144        0.623        0.103      101.914       18.956        0.035      332.893        1.852      862.728
12/10/2014  04:01:00     -112.070      -11.407       -8.729       23.764       25.018       15.204      564.706      625.891      231.165        0.709        0.071      112.649       14.052        0.016      332.925        1.906      862.709
12/10/2014  04:02:00      -82.890      -17.051       -0.607       32.857       21.166       15.847     1079.587      447.991      251.132        0.447        0.089       84.626       15.739        0.035      332.944        1.936      862.689
12/10/2014  04:03:00      -77.045      -13.088       -1.930       32.646       26.140       14.457     1065.785      683.283      208.994        0.403        0.098       78.149       16.212        0.043      333.027        2.073      862.663
12/10/2014  04:04:00      -83.085      -20.625       -3.604       24.360       20.386       15.250      593.405      415.587      232.572        0.429        0.062       85.607       13.123        0.024      333.037        2.089      862.638
12/10/2014  04:05:00      -92.733      -24.119       -6.173       26.627       17.382       10.583      708.983      302.135      111.993        0.517        0.056       95.818       10.818        0.013      333.020        2.062      862.608
12/10/2014  04:06:00      -76.678      -31.812       -2.652       15.705       13.846       11.283      246.647      191.711      127.312        0.373        0.028       83.016        7.099        0.007      333.019        2.062      862.578
12/10/2014  04:07:00      -95.864      -32.301       -5.480       16.171       16.869       10.152      261.495      284.572      103.068        0.546        0.032      101.160        6.828        0.005      333.001        2.030      862.544
12/10/2014  04:08:00     -106.679      -46.512       -1.103       13.712       19.205       11.587      188.025      368.814      134.265        0.712        0.035      116.378        9.159        0.006      332.960        1.962      862.514
12/10/2014  04:09:00     -111.713      -34.372       -2.573       17.510       15.828       12.209      306.601      250.518      149.058        0.719        0.035      116.881        9.810        0.007      332.963        1.966      862.490
12/10/2014  04:10:00     -114.807      -30.188       -5.255       14.754       15.881       11.784      217.683      252.199      138.863        0.736        0.030      118.709        7.345        0.004      332.985        2.004      862.450
12/10/2014  04:11:00     -114.131      -26.404       -7.138       20.961       16.039       12.350      439.350      257.238      152.520        0.731        0.042      117.146       12.355        0.011      332.960        1.962      862.415
12/10/2014  04:12:00      -83.861      -22.724       -2.483       45.808       19.424       19.060     2098.408      377.307      363.270        0.520        0.142       86.886       21.184        0.059      332.917        1.892      862.381
12/10/2014  04:13:00     -110.576       -0.956       -9.924       37.525       28.898       24.308     1408.105      835.103      590.865        0.758        0.142      110.580       21.370        0.037      333.363        2.629      862.362
12/10/2014  04:14:00     -128.716        1.019      -10.113       38.081       27.790       20.114     1450.191      772.257      404.574        0.965        0.131      128.720       21.545        0.028      333.348        2.604      862.358
12/10/2014  04:15:00     -115.267      -16.958       -4.854       47.064       28.096       24.459     2214.983      789.366      598.247        0.860        0.180      116.507       27.502        0.056      333.141        2.261      862.372
12/10/2014  04:16:00     -131.728        1.815      -11.167       40.666       22.638       15.644     1653.737      512.466      244.728        0.995        0.121      131.741       18.070        0.019      333.125        2.234      862.391
12/10/2014  04:17:00     -121.622      -36.302      -13.136       32.382       21.689       19.552     1048.588      470.404      382.280        0.909        0.095      126.924       17.355        0.019      333.041        2.097      862.408
12/10/2014  04:18:00     -115.483      -23.257       -4.744       41.499       35.671       21.477     1722.193     1272.392      461.262        0.868        0.173      117.801       25.208        0.046      332.972        1.983      862.409
12/10/2014  04:19:00     -122.174       -7.871      -10.118       28.223       16.701       16.193      796.512      278.937      262.198        0.821        0.067      122.428       15.320        0.016      333.107        2.205      862.393
12/10/2014  04:20:00     -108.420       -6.174      -10.452       33.480       25.662       16.945     1120.938      658.525      287.128        0.698        0.103      108.596       20.115        0.034      333.173        2.314      862.346
12/10/2014  04:21:00     -135.511       17.911       -8.240       18.843       15.023        9.284      355.053      225.705       86.192        0.971        0.033      136.689        8.281        0.004      333.268        2.469      862.284
12/10/2014  04:22:00     -128.316        8.063      -10.657       24.839       22.614       10.236      616.979      511.373      104.768        0.894        0.062      128.569        8.135        0.004      333.405        2.698      862.221
12/10/2014  04:23:00      -94.537      -12.182       -6.525       36.543       21.041       19.815     1335.379      442.737      392.619        0.565        0.109       95.319       19.904        0.044      333.296        2.518      862.183
12/10/2014  04:24:00      -93.948      -31.806       -2.525       34.745       23.667       17.066     1207.224      560.104      291.250        0.595        0.103       99.186       18.725        0.036      333.256        2.450      862.171
12/10/2014  04:25:00     -122.060      -23.837       -9.773       21.618       18.052       17.398      467.328      325.874      302.682        0.833        0.055      124.366       15.597        0.016      333.210        2.374      862.162
12/10/2014  04:26:00      -89.774      -14.548       -5.012       27.289       27.576       17.977      744.700      760.424      323.179        0.506        0.091       90.945       14.604        0.026      333.136        2.253      862.177
12/10/2014  04:27:00     -120.454      -23.590       -5.978       24.447       16.876       15.478      597.631      284.794      239.566        0.811        0.056      122.742       15.197        0.015      333.156        2.285      862.193
12/10/2014  04:28:00     -118.777      -22.789       -3.829       40.025       20.988       18.368     1601.974      440.489      337.376        0.851        0.119      120.943       20.058        0.028      333.123        2.231      862.189
12/10/2014  04:29:00     -138.024       -8.584       -6.848       39.120       18.354       20.707     1530.381      336.875      428.765        1.073        0.115      138.290       23.955        0.030      333.054        2.116      862.170
12/10/2014  04:30:00     -114.105       -7.624       -3.198       35.559       25.352       21.146     1264.455      642.705      447.171        0.772        0.118      114.359       19.933        0.030      333.125        2.235      862.151
12/10/2014  04:31:00     -112.464       10.032       -8.127       26.690       22.952       23.443      712.377      526.778      549.585        0.730        0.089      112.910       20.700        0.034      333.144        2.266      862.123
12/10/2014  04:32:00     -105.981       26.265       -3.674       45.777       26.839       17.130     2095.495      720.311      293.444        0.752        0.155      109.187       16.594        0.023      333.408        2.703      862.069
12/10/2014  04:33:00     -151.741       42.699       -5.160       19.969       18.315       14.585      398.772      335.448      212.719        1.291        0.047      157.634        9.319        0.003      333.357        2.618      862.029
12/10/2014  04:34:00     -154.578       21.903       -8.826       20.298       15.575       15.161      412.005      242.591      229.854        1.267        0.044      156.122       14.745        0.009      333.344        2.596      862.013
12/10/2014  04:35:00     -162.200      -16.817      -24.488       28.602       22.701       16.347      818.102      515.318      267.220        1.440        0.080      163.069       13.044        0.006      333.295        2.515      862.021
12/10/2014  04:36:00     -165.485      -16.092      -19.113       43.636       34.612       20.751     1904.063     1197.983      430.616        1.577        0.177      166.265       22.878        0.019      333.243        2.431      862.033
12/10/2014  04:37:00     -175.801      -27.764      -19.951       37.059       27.464       24.756     1373.372      754.287      612.837        1.741        0.137      177.980       22.228        0.016      333.175        2.317      862.047
12/10/2014  04:38:00     -125.734      -25.987      -14.648       41.624       34.432       21.725     1732.544     1185.575      471.992        1.004        0.170      128.392       23.589        0.034      333.135        2.252      862.056
12/10/2014  04:39:00     -146.287      -21.908      -11.872       44.487       41.017       22.052     1979.129     1682.357      486.308        1.308        0.207      147.919       19.290        0.017      333.184        2.332      862.062
12/10/2014  04:40:00     -147.306      -40.082      -11.065       31.229       35.813       19.923      975.252     1282.582      396.935        1.304        0.133      152.662       17.447        0.013      333.213        2.381      862.075
12/10/2014  04:41:00      -99.398      -54.822        4.156       47.923       35.982       26.281     2296.591     1294.726      690.714        0.859        0.214      113.514       29.620        0.068      333.195        2.349      862.075
12/10/2014  04:42:00      -97.093      -44.282        0.084       33.822       32.144       19.512     1143.901     1033.205      380.735        0.697        0.128      106.714       14.145        0.018      333.251        2.444      862.068
12/10/2014  04:43:00     -113.557      -21.564      -13.449       25.022       20.591       25.824      626.086      423.993      666.864        0.763        0.086      115.586       16.927        0.021      333.375        2.648      862.057
12/10/2014  04:44:00     -109.746      -30.226       -5.280       38.500       25.937       16.808     1482.241      672.743      282.515        0.771        0.122      113.832       17.931        0.025      333.365        2.632      862.050
12/10/2014  04:45:00     -120.302      -38.600       -5.681       33.555       27.263       18.656     1125.969      743.298      348.058        0.911        0.111      126.343       16.368        0.017      333.343        2.595      862.053
12/10/2014  04:46:00     -113.223      -71.251       -3.583       43.962       35.006       26.348     1932.673     1225.412      694.195        1.088        0.193      133.776       24.033        0.032      333.303        2.530      862.069
12/10/2014  04:47:00      -99.200      -50.586       -0.996       39.506       25.110       19.119     1560.728      630.491      365.534        0.748        0.128      111.354       18.252        0.027      333.298        2.521      862.084
12/10/2014  04:48:00      -97.398      -63.900       -6.988       43.748       48.446       23.768     1913.873     2347.051      564.904        0.922        0.241      116.489       20.557        0.031      333.353        2.612      862.086
12/10/2014  04:49:00     -107.498      -48.523      -15.826       47.896       42.012       29.621     2294.041     1765.040      877.422        0.955        0.247      117.942       22.683        0.037      333.373        2.646      862.085
12/10/2014  04:50:00     -135.899      -40.074       -0.730       44.801       55.575       31.002     2007.093     3088.547      961.151        1.306        0.303      141.685       25.154        0.032      333.363        2.628      862.098
12/10/2014  04:51:00     -127.500      -51.444       -4.543       50.864       35.441       24.963     2587.143     1256.074      623.152        1.169        0.223      137.487       26.809        0.038      333.323        2.562      862.117
12/10/2014  04:52:00     -126.725      -59.813        1.472       55.341       43.351       23.490     3062.609     1879.330      551.800        1.257        0.275      140.131       27.617        0.039      333.464        2.795      862.130
12/10/2014  04:53:00      -96.428      -55.401       -1.661       38.738       29.239       19.112     1500.655      854.902      365.268        0.755        0.136      111.210       20.367        0.034      333.542        2.924      862.122
12/10/2014  04:54:00      -72.759      -34.521       -7.830       26.364       27.198       11.438      695.038      739.717      130.831        0.406        0.078       80.533        6.958        0.007      333.547        2.933      862.113
12/10/2014  04:55:00       -9.816      -28.478        4.783       21.551        9.576       13.135      464.456       91.692      172.517        0.083        0.036       30.123       10.409        0.119      333.527        2.900      862.108
12/10/2014  04:56:00        6.921      -22.204        6.874       12.943       12.401        9.986      167.532      153.790       99.730        0.050        0.021       23.258        5.545        0.057      333.561        2.958      862.094
12/10/2014  04:57:00      -29.976      -24.707        5.774       21.338       16.172       14.252      455.290      261.537      203.130        0.123        0.046       38.846       14.699        0.143      333.484        2.828      862.078
12/10/2014  04:58:00      -38.865      -18.604       -3.695       15.015       15.571       11.491      225.447      242.446      132.044        0.123        0.030       43.088       10.576        0.060      333.457        2.782      862.074
12/10/2014  04:59:00      -28.334      -21.845       -3.154       14.484       12.595        8.375      209.800      158.633       70.141        0.086        0.022       35.778        7.140        0.040      333.498        2.851      862.063
12/10/2014  05:00:00      -52.587      -27.560       -2.695       11.170        9.239        6.611      124.780       85.355       43.710        0.189        0.013       59.371        2.199        0.001      333.501        2.858      862.055
12/10/2014  05:01:00      -60.540      -27.475       -3.856       14.840       12.831       11.532      220.220      164.647      132.994        0.248        0.026       66.483        4.902        0.005      333.440        2.756      862.052
12/10/2014  05:02:00      -45.754      -22.441       -0.035       26.718       15.868       11.020      713.827      251.784      121.448        0.184        0.054       50.961       11.214        0.048      333.440        2.756      862.051
12/10/2014  05:03:00      -15.085      -15.112        2.532       17.024       12.899       10.901      289.816      166.382      118.838        0.052        0.029       21.353        9.388        0.193      333.461        2.790      862.055
12/10/2014  05:04:00      -59.529      -32.842       -4.422       21.482       10.295        7.697      461.497      105.988       59.236        0.263        0.031       67.988        6.498        0.009      333.519        2.886      862.062
12/10/2014  05:05:00      -53.719      -26.076       -4.460       14.890       15.291        8.437      221.710      233.817       71.183        0.206        0.026       59.714        8.809        0.022      333.441        2.757      862.073
12/10/2014  05:06:00      -50.668       -3.952       -7.082       10.432        7.175        6.684      108.831       51.474       44.674        0.142        0.010       50.822        5.185        0.010      333.481        2.824      862.055
12/10/2014  05:07:00      -43.988      -19.573       -4.045       17.759       12.718        8.679      315.381      161.745       75.329        0.144        0.028       48.146        6.352        0.017      333.578        2.984      862.045
12/10/2014  05:08:00      -19.622      -15.077       -0.794       17.226        8.807        8.954      296.733       77.564       80.175        0.053        0.023       24.745        9.521        0.148      333.626        3.065      862.042
12/10/2014  05:09:00      -19.545       -0.863      -10.528        8.112        9.852        5.910       65.804       97.070       34.925        0.035        0.010       19.564        2.904        0.022      333.787        3.329      862.056
12/10/2014  05:10:00      -30.539       -3.946        1.473        5.869        6.757        5.264       34.450       45.659       27.710        0.053        0.005       30.793        2.708        0.008      333.732        3.239      862.085
12/10/2014  05:11:00      -37.294      -19.715       -2.192        9.138       10.330        6.240       83.512      106.712       38.939        0.101        0.011       42.184        3.564        0.007      333.574        2.978      862.122
12/10/2014  05:12:00      -23.827       -6.067       -3.610        7.240        6.458        4.188       52.421       41.703       17.542        0.036        0.006       24.587        2.819        0.013      333.511        2.873      862.143
12/10/2014  05:13:00       -5.679        0.430        0.698        7.683        2.958        4.257       59.021        8.749       18.126        0.006        0.004        5.695        3.365        0.349      333.519        2.887      862.139
12/10/2014  05:14:00       -9.817       -1.466       -0.501        7.447        2.898        5.202       55.458        8.400       27.059        0.009        0.005        9.926        1.375        0.019      333.604        3.028      862.130
12/10/2014  05:15:00        4.813        6.094        3.776       17.827        9.527        7.716      317.792       90.760       59.534        0.027        0.023        7.765        2.391        0.095      333.656        3.113      862.125
12/10/2014  05:16:00       56.114       13.790        4.644       13.692       11.214       11.029      187.477      125.753      121.636        0.190        0.022       57.784        7.491        0.017      333.572        2.974      862.091
12/10/2014  05:17:00       50.990       41.086        7.535       21.193       16.264       17.624      449.156      264.531      310.591        0.268        0.051       65.483       14.483        0.049      333.425        2.731      862.055
12/10/2014  05:18:00       26.115       24.610       16.291       10.881       15.206       12.830      118.391      231.209      164.608        0.103        0.026       35.884        7.157        0.040      333.440        2.755      862.044
12/10/2014  05:19:00       14.317       13.912        4.470        9.640        3.973        6.174       92.929       15.788       38.112        0.028        0.007       19.963        4.350        0.047      333.520        2.889      862.038
12/10/2014  05:20:00       46.210       38.829       14.036       19.456       17.624       15.208      378.545      310.592      231.291        0.238        0.046       60.358        8.714        0.021      333.423        2.727      862.020
12/10/2014  05:21:00       97.236       57.489        5.326       25.503       23.649       18.927      650.380      559.283      358.231        0.718        0.078      112.959       14.331        0.016      333.279        2.490      861.993
12/10/2014  05:22:00       74.734       46.585        1.056       26.359       24.608       17.736      694.819      605.556      314.561        0.469        0.081       88.064       11.065        0.016      333.179        2.323      861.992
12/10/2014  05:23:00       12.388       26.269       -3.200       26.178       30.073       16.553      685.262      904.384      274.004        0.136        0.093       29.044       18.248        0.395      333.179        2.325      862.020
12/10/2014  05:24:00       24.600       76.673       -9.069       13.866       17.098        8.775      192.270      292.339       77.001        0.356        0.028       80.523        7.851        0.010      333.332        2.578      862.040
12/10/2014  05:25:00       28.996       47.622       -1.597       23.534       23.084       18.467      553.861      532.867      341.022        0.227        0.071       55.755       16.095        0.083      333.371        2.641      862.040
12/10/2014  05:26:00       77.972       46.303       14.525       22.744       15.450       17.200      517.282      238.707      295.852        0.474        0.053       90.684       11.327        0.016      333.425        2.730      862.039
12/10/2014  05:27:00       62.480       35.611       15.060       20.843       14.879       16.916      434.428      221.395      286.166        0.317        0.047       71.916       11.507        0.026      333.347        2.603      862.031
12/10/2014  05:28:00       66.378       49.892        7.059       19.652       12.856       12.028      386.182      165.287      144.676        0.382        0.035       83.037        9.040        0.012      333.375        2.647      862.021
12/10/2014  05:29:00      100.054       73.875        8.654       29.262       23.063       20.391      856.268      531.886      415.804        0.867        0.090      124.372        9.743        0.006      333.440        2.755      861.984
12/10/2014  05:30:00      151.641       82.630       13.893       34.507       30.400       25.233     1190.701      924.165      636.726        1.638        0.138      172.693       25.154        0.021      333.386        2.666      861.939
12/10/2014  05:31:00      129.671       51.656        3.205       45.140       36.600       25.551     2037.610     1339.560      652.853        1.176        0.202      139.582        5.493        0.002      333.335        2.583      861.952
12/10/2014  05:32:00       15.599       13.069        9.757       34.574       23.318       18.764     1195.331      543.718      352.105        0.130        0.105       20.350       17.079        0.704      333.326        2.567      862.001
12/10/2014  05:33:00       22.970       13.573       12.946       18.518       18.861       11.494      342.918      355.722      132.115        0.085        0.042       26.680        6.898        0.067      333.355        2.615      862.049
12/10/2014  05:34:00       62.945       36.501       14.056        9.073        9.042        9.829       82.322       81.764       96.618        0.288        0.013       72.763        6.738        0.009      333.346        2.602      862.052
12/10/2014  05:35:00       65.927       45.329       16.611       21.895       19.242       19.181      479.410      370.243      367.899        0.395        0.061       80.007       11.300        0.020      333.331        2.576      862.056
12/10/2014  05:36:00       44.369       47.423       41.263       26.659       19.392       21.821      710.700      376.064      476.167        0.374        0.078       64.943       12.770        0.039      333.347        2.603      862.080
12/10/2014  05:37:00       42.326       41.634       30.232       22.448       16.838       17.502      503.904      283.508      306.336        0.277        0.055       59.371       16.368        0.076      333.377        2.652      862.124
12/10/2014  05:38:00       64.404       37.438       15.489       22.082       17.983       16.863      487.617      323.384      284.353        0.344        0.055       74.495        9.304        0.016      333.355        2.617      862.148
12/10/2014  05:39:00       98.223       41.112       17.164       36.083       30.938       28.217     1302.013      957.144      796.223        0.734        0.153      106.480       20.899        0.039      333.389        2.671      862.120
12/10/2014  05:40:00       54.399       30.566       31.407       41.423       29.170       30.507     1715.861      850.866      930.683        0.419        0.175       62.398       22.160        0.126      333.400        2.690      862.124
12/10/2014  05:41:00       56.894       52.227       42.176       33.803       20.480       25.161     1142.630      419.429      633.071        0.497        0.110       77.230       24.644        0.102      333.396        2.683      862.165
12/10/2014  05:42:00       84.575       80.856       72.140       40.608       40.362       31.505     1648.995     1629.113      992.546        1.158        0.214      117.007       23.092        0.039      333.401        2.692      862.167
12/10/2014  05:43:00       27.484      120.489      112.127       49.521       45.226       37.525     2452.364     2045.427     1408.128        1.687        0.295      123.584       29.232        0.056      333.286        2.502      862.154
12/10/2014  05:44:00       62.745       64.359       77.331       61.628       59.266       37.259     3797.967     3512.470     1388.220        1.138        0.435       89.883       33.098        0.136      333.038        2.092      862.175
12/10/2014  05:45:00       91.692       45.295       40.178       50.672       39.911       39.988     2567.702     1592.896     1599.061        0.892        0.288      102.269       29.827        0.085      332.991        2.013      862.192
12/10/2014  05:46:00      110.608       38.729       50.073       57.474       48.201       39.813     3303.266     2323.334     1585.055        1.173        0.361      117.192       32.141        0.075      332.979        1.993      862.159
12/10/2014  05:47:00      136.190       96.412       64.278       56.046       46.906       48.059     3141.103     2200.193     2309.654        1.981        0.383      166.862       31.193        0.035      332.921        1.897      862.113
12/10/2014  05:48:00       60.933       63.894       50.070       40.222       37.439       37.557     1617.833     1401.694     1410.557        0.737        0.222       88.291       28.801        0.106      332.860        1.798      862.132
12/10/2014  05:49:00       39.732       36.013        2.569       27.405       22.485       19.831      751.053      505.560      393.249        0.227        0.082       53.625       14.004        0.068      332.756        1.625      862.190
12/10/2014  05:50:00       25.781       18.930        7.660       20.652       21.719       11.829      426.502      471.698      139.924        0.106        0.052       31.984        5.648        0.031      332.726        1.572      862.223
12/10/2014  05:51:00       62.418       44.449       18.476       27.266       12.786       15.157      743.431      163.486      229.737        0.367        0.057       76.627       12.552        0.027      332.718        1.562      862.230
12/10/2014  05:52:00       94.597       48.564        5.323       18.796       19.024       16.425      353.280      361.931      269.782        0.616        0.049      106.335        8.746        0.007      332.709        1.550      862.240
12/10/2014  05:53:00       76.626       33.997        6.429       24.666       21.901       12.948      608.418      479.641      167.646        0.416        0.063       83.829        8.181        0.010      332.724        1.573      862.284
12/10/2014  05:54:00       15.096        2.041        8.132       10.352       13.870       16.348      107.168      192.372      267.249        0.043        0.028       15.233       11.230        0.544      332.790        1.682      862.336
12/10/2014  05:55:00       17.197       25.560        0.669       14.485       13.423       10.785      209.814      180.170      116.308        0.073        0.025       30.807        6.779        0.048      332.775        1.657      862.342
12/10/2014  05:56:00       14.766       49.397       -2.267       18.630       34.275       13.450      347.059     1174.757      180.911        0.218        0.085       51.557       11.642        0.051      332.760        1.632      862.298
12/10/2014  05:57:00       32.840       65.016       -6.442       16.836       15.802       12.165      283.455      249.705      147.985        0.301        0.034       72.839       10.421        0.020      332.738        1.595      862.262
12/10/2014  05:58:00       19.363       40.719       -3.100       18.382       24.433       16.139      337.897      596.989      260.452        0.162        0.060       45.088       15.012        0.111      332.722        1.569      862.258
12/10/2014  05:59:00       33.782        9.959       -1.168       18.168       16.895       12.330      330.073      285.431      152.035        0.100        0.038       35.219        8.678        0.061      332.729        1.580      862.279
12/10/2014  06:00:00       22.643       11.676       -2.920       18.514       15.661       11.169      342.771      245.255      124.749        0.069        0.036       25.476        3.264        0.016      332.750        1.619      862.289
12/10/2014  06:01:00       -3.882       26.480       -5.328        9.001       16.057       10.234       81.021      257.811      104.735        0.059        0.022       26.763        7.039        0.069      332.736        1.592      862.296
12/10/2014  06:02:00       -2.238       44.404       -8.562        7.742       10.838        6.384       59.936      117.458       40.756        0.113        0.011       44.460        3.946        0.008      332.744        1.607      862.296
12/10/2014  06:03:00        5.918       43.322       -6.813        9.254       12.513       12.311       85.641      156.568      151.551        0.118        0.020       43.724        5.776        0.017      332.796        1.691      862.296
12/10/2014  06:04:00       40.516       35.350        8.905       14.251        7.808       11.316      203.097       60.961      128.056        0.168        0.020       53.770        7.588        0.020      332.790        1.680      862.274
12/10/2014  06:05:00       30.048       35.341        2.113       19.099        9.237        9.277      364.760       85.324       86.057        0.135        0.027       46.388        8.486        0.033      332.817        1.728      862.259
12/10/2014  06:06:00       -1.073       35.319      -10.439        7.057       13.666        4.503       49.808      186.766       20.278        0.081        0.013       35.335        6.249        0.031      332.826        1.742      862.282
12/10/2014  06:07:00      -28.583       -5.421       -5.193       16.714       14.197       10.119      279.364      201.552      102.389        0.073        0.029       29.092        9.830        0.114      332.875        1.824      862.337
12/10/2014  06:08:00      -13.803       11.719       -9.401       18.912       15.908       14.141      357.682      253.057      199.975        0.061        0.041       18.107       14.802        0.668      332.822        1.736      862.347
12/10/2014  06:09:00       27.071       55.443        8.939       16.970       17.077       17.189      287.991      291.626      295.445        0.238        0.044       61.699       14.618        0.056      332.863        1.804      862.298
12/10/2014  06:10:00       15.238       51.641       -5.888       11.022       16.025       13.169      121.492      256.805      173.421        0.174        0.028       53.842        8.132        0.023      332.818        1.730      862.268
12/10/2014  06:11:00        6.506        3.554        2.536       15.115       12.985       11.841      228.456      168.620      140.203        0.030        0.027        7.413        9.115        1.512      332.841        1.765      862.288
12/10/2014  06:12:00        4.479        1.899        8.341        9.628       13.801        9.032       92.696      190.462       81.576        0.023        0.018        4.864        6.611        1.847      332.943        1.934      862.298
12/10/2014  06:13:00       41.318       38.106       24.669       24.676       18.540       24.506      608.908      343.740      600.561        0.266        0.078       56.207       17.116        0.093      332.964        1.969      862.264
12/10/2014  06:14:00       47.597       38.660        1.788       20.715       17.121       18.736      429.118      293.131      351.042        0.242        0.054       61.319       16.242        0.070      332.894        1.855      862.217
12/10/2014  06:15:00        9.581       61.910      -11.813       11.064       17.413        7.581      122.421      303.212       57.469        0.227        0.024       62.647        8.703        0.019      332.931        1.914      862.199
12/10/2014  06:16:00        7.908       51.390       -8.505       11.498       11.371        9.358      132.200      129.298       87.580        0.156        0.017       51.995        8.163        0.025      332.975        1.989      862.196
12/10/2014  06:17:00       23.879       23.219       -5.853        8.876        9.611        8.279       78.791       92.364       68.539        0.069        0.012       33.306        7.461        0.050      332.971        1.981      862.195
12/10/2014  06:18:00       25.833       37.103       -3.079       11.367       12.858        5.794      129.204      165.321       33.571        0.119        0.016       45.211        4.984        0.012      332.998        2.025      862.179
12/10/2014  06:19:00       47.629       36.766        3.007       16.126       14.510        9.482      260.037      210.539       89.907        0.209        0.028       60.169        8.295        0.019      333.007        2.041      862.137
12/10/2014  06:20:00       71.834       34.896       12.460       14.613       12.996       12.662      213.550      168.901      160.334        0.354        0.027       79.862        7.676        0.009      333.007        2.040      862.101
12/10/2014  06:21:00       72.941       47.896        7.165       17.221       13.451       16.836      296.566      180.938      283.458        0.421        0.038       87.261       11.225        0.017      333.013        2.051      862.069
12/10/2014  06:22:00       49.033       16.620        6.664       30.194       15.350       15.886      911.700      235.629      252.364        0.206        0.070       51.773       14.963        0.084      333.061        2.131      862.059
12/10/2014  06:23:00        3.268      -13.459        1.019       12.209       16.120        9.601      149.048      259.860       92.179        0.035        0.025       13.851        7.301        0.278      333.076        2.155      862.097
12/10/2014  06:24:00        7.828      -12.367       -1.217        4.949        8.047        6.961       24.493       64.753       48.458        0.018        0.007       14.636        2.190        0.022      333.113        2.216      862.119
12/10/2014  06:25:00        6.903       -4.147       -0.701       14.443       18.744       12.724      208.605      351.325      161.891        0.039        0.036        8.053       13.937        2.995      333.140        2.260      862.125
12/10/2014  06:26:00       53.746       50.758       39.845       27.907       20.043       18.047      778.784      401.723      325.709        0.428        0.075       73.926       15.547        0.044      333.015        2.053      862.105
12/10/2014  06:27:00       69.862       33.489       10.759       25.598       27.658       21.042      655.272      764.963      442.780        0.399        0.093       77.474       13.106        0.029      333.058        2.126      862.061
12/10/2014  06:28:00       41.762       38.798       -0.660       16.013        9.736       11.078      256.424       94.791      122.719        0.186        0.024       57.003        7.995        0.020      333.038        2.093      862.021
12/10/2014  06:29:00       19.767       42.587        2.789       12.082        9.387        7.738      145.983       88.115       59.880        0.125        0.015       46.951        5.497        0.014      333.023        2.067      861.993
12/10/2014  06:30:00       -1.676       28.918       -3.452        9.133       11.200        2.912       83.420      125.430        8.479        0.053        0.011       28.966        1.888        0.004      333.062        2.133      861.990
12/10/2014  06:31:00       -4.291        1.618        2.918        3.641        4.266        3.806       13.254       18.198       14.485        0.004        0.002        4.586        3.816        0.692      333.169        2.307      861.999
12/10/2014  06:32:00       -8.260       -1.451        0.188        7.968        5.265        3.494       63.497       27.720       12.207        0.009        0.005        8.386        3.070        0.134      333.035        2.087      861.996
12/10/2014  06:33:00        3.264       18.611        1.873       11.167       11.028        6.423      124.708      121.621       41.257        0.032        0.014       18.895        5.189        0.075      333.088        2.176      861.958
12/10/2014  06:34:00       36.131       34.631       -1.890        9.405        9.429        8.940       88.458       88.913       79.916        0.138        0.013       50.047        5.817        0.014      333.122        2.230      861.907
12/10/2014  06:35:00       24.839       25.703       -3.307       14.437       17.721       12.398      208.424      314.025      153.708        0.098        0.034       35.744       11.418        0.102      333.095        2.184      861.880
12/10/2014  06:36:00       21.444       22.993       -2.287       10.270       15.601       10.500      105.472      243.382      110.242        0.073        0.023       31.441       11.058        0.124      333.072        2.148      861.891
12/10/2014  06:37:00        5.453       22.974       -4.488        8.299        6.431        2.811       68.871       41.364        7.904        0.035        0.006       23.612        1.520        0.004      333.101        2.195      861.920
12/10/2014  06:38:00      -29.943        4.202       -4.956       26.947        7.625        4.013      726.165       58.147       16.104        0.087        0.040       30.236        4.127        0.019      333.129        2.238      861.925
12/10/2014  06:39:00      -61.784       -6.049       -2.652       17.613       11.817       11.223      310.216      139.635      125.956        0.222        0.029       62.080       10.093        0.026      332.864        1.805      861.910
12/10/2014  06:40:00      -49.204       -0.852       -6.313        5.871        5.245        6.684       34.470       27.507       44.672        0.128        0.005       49.211        3.534        0.005      332.930        1.916      861.862
12/10/2014  06:41:00      -24.633        0.804       -2.638       17.266        8.763        8.765      298.113       76.799       76.819        0.053        0.023       24.646        6.686        0.074      332.898        1.863      861.814
12/10/2014  06:42:00      -34.917       -9.785       -3.781       15.204        8.503        7.694      231.154       72.301       59.196        0.085        0.018       36.262        8.517        0.055      332.954        1.952      861.799
12/10/2014  06:43:00      -71.222       -9.781      -12.554        9.476        5.653        5.624       89.788       31.959       31.625        0.274        0.008       71.891        4.119        0.003      332.956        1.956      861.802
12/10/2014  06:44:00     -107.681      -12.613      -10.369       24.729       14.603       14.091      611.534      213.248      198.547        0.644        0.051      108.418       13.462        0.015      332.869        1.814      861.792
12/10/2014  06:45:00     -109.925      -17.946       -7.545       24.516       16.867       12.790      601.052      284.491      163.577        0.676        0.052      111.380       11.417        0.011      332.731        1.585      861.756
12/10/2014  06:46:00      -97.500      -44.992       -2.924       20.043       18.181       10.353      401.706      330.562      107.194        0.619        0.042      107.380        7.733        0.005      332.757        1.628      861.735
12/10/2014  06:47:00      -14.170      -37.647        1.239       29.587       14.447       14.278      875.411      208.707      203.872        0.145        0.064       40.225       12.330        0.094      332.900        1.865      861.709
12/10/2014  06:48:00      -10.134      -20.042        1.547       15.747       11.932        7.120      247.957      142.368       50.701        0.047        0.022       22.458        4.504        0.040      333.080        2.159      861.650
12/10/2014  06:49:00      -29.247        1.293        4.738        7.508        6.965        7.531       56.375       48.507       56.710        0.052        0.008       29.276        1.723        0.003      333.117        2.221      861.555
12/10/2014  06:50:00      -32.437       22.417        2.744       30.494       18.783       16.475      929.863      352.804      271.429        0.156        0.078       39.430       15.504        0.155      333.059        2.125      861.464
12/10/2014  06:51:00      -71.321        2.066      -11.959       23.419       26.368       10.997      548.438      695.263      120.941        0.330        0.068       71.351       11.014        0.024      332.998        2.025      861.457
12/10/2014  06:52:00     -103.634      -60.877       -5.694       24.203       20.510       15.922      585.780      420.676      253.513        0.787        0.063      120.192        5.613        0.002      332.892        1.851      861.487
12/10/2014  06:53:00     -111.539      -60.255        1.629       41.255       26.018       21.072     1701.975      676.930      444.042        0.945        0.141      126.774       17.360        0.019      332.908        1.878      861.475
12/10/2014  06:54:00     -101.128      -63.386      -10.945       24.146       32.703       17.212      583.040     1069.513      296.241        0.816        0.097      119.351       13.121        0.012      332.952        1.950      861.403
12/10/2014  06:55:00      -48.786        9.103        3.727       21.116       22.600       15.096      445.885      510.750      227.886        0.183        0.059       49.628       10.340        0.043      332.988        2.010      861.338
12/10/2014  06:56:00      -38.392      -10.559       -4.760       11.157        9.596        7.782      124.485       92.075       60.561        0.094        0.014       39.818        6.110        0.024      333.177        2.322      861.311
12/10/2014  06:57:00      -99.552       -2.414      -15.520       29.566       10.513       11.141      874.157      110.524      124.128        0.563        0.055       99.581       13.717        0.019      333.094        2.183      861.319
12/10/2014  06:58:00     -171.571      -26.155      -17.520       34.547       30.134       19.708     1193.464      908.047      388.397        1.646        0.124      173.553       11.589        0.004      333.039        2.093      861.343
12/10/2014  06:59:00     -187.926      -53.624       -5.105       41.334       39.504       25.556     1708.539     1560.527      653.086        2.107        0.196      195.427       21.999        0.013      332.865        1.805      861.398
12/10/2014  07:00:00     -111.448      -54.511        9.871       70.978       38.945       29.298     5037.943     1516.701      858.364        1.145        0.371      124.065       34.211        0.076      332.999        2.028      861.412
12/10/2014  07:01:00      -70.249      -24.878        5.951       42.957       32.914       22.113     1845.279     1083.336      489.004        0.450        0.171       74.524       21.688        0.085      333.060        2.129      861.388
12/10/2014  07:02:00      -61.102      -20.589        4.636       37.267       24.579       18.131     1388.818      604.124      328.748        0.325        0.116       64.477       20.349        0.100      333.100        2.194      861.375
12/10/2014  07:03:00      -43.368      -23.137        2.029       35.491       20.434       16.534     1259.637      417.529      273.378        0.219        0.098       49.154       20.338        0.171      333.127        2.238      861.384
12/10/2014  07:04:00      -88.293      -38.880        6.056       38.287       22.492       16.993     1465.890      505.891      288.763        0.580        0.113       96.474       13.506        0.020      333.265        2.466      861.432
12/10/2014  07:05:00     -123.082      -87.038        7.081       44.363       36.573       30.149     1968.051     1337.558      908.966        1.349        0.211      150.747       23.734        0.025      333.178        2.322      861.456
12/10/2014  07:06:00      -88.310      -88.343        0.828       51.989       38.675       26.745     2702.812     1495.734      715.305        1.026        0.246      124.913       25.319        0.041      333.211        2.377      861.472
12/10/2014  07:07:00      -22.251      -31.510       -0.066       30.823       33.807       15.641      950.071     1142.942      244.645        0.191        0.117       38.575       14.733        0.146      333.321        2.558      861.432
12/10/2014  07:08:00      -25.946       10.206        7.330       19.335       12.840       12.355      373.860      164.870      152.647        0.076        0.035       27.881        1.246        0.002      333.461        2.790      861.380
12/10/2014  07:09:00       -9.345       39.391        7.097       16.928       17.838       10.945      286.574      318.205      119.792        0.121        0.036       40.484        7.270        0.032      333.368        2.636      861.381
12/10/2014  07:10:00      -26.029       21.678       -9.370       23.882       15.508        8.542      570.331      240.494       72.962        0.106        0.044       33.874        9.731        0.083      333.304        2.531      861.437
12/10/2014  07:11:00      -99.465      -19.521       -8.269       24.346       24.335       14.084      592.733      592.181      198.365        0.586        0.069      101.362       12.509        0.015      333.286        2.501      861.510
12/10/2014  07:12:00     -125.740      -62.076       -0.733       36.090       22.918       15.613     1302.475      525.239      243.751        1.087        0.104      140.228       16.982        0.015      333.225        2.401      861.546
12/10/2014  07:13:00      -87.255      -37.532        0.580       29.704       27.780       13.283      882.320      771.714      176.447        0.543        0.092       94.985       11.812        0.015      333.241        2.426      861.542
12/10/2014  07:14:00      -93.062        0.768      -11.728       29.422       14.806       13.732      865.630      219.221      188.560        0.504        0.064       93.065       10.195        0.012      333.293        2.512      861.504
12/10/2014  07:15:00     -108.317      -36.806      -10.225       25.882       23.462       16.686      669.880      550.470      278.428        0.735        0.075      114.400       13.516        0.014      333.173        2.314      861.533
12/10/2014  07:16:00      -52.790      -32.847        2.571       34.753       19.130       17.608     1207.782      365.940      310.053        0.288        0.094       62.175       14.526        0.055      333.245        2.433      861.564
12/10/2014  07:17:00      -33.609      -54.592       -1.774       23.926       39.408       16.917      572.465     1553.017      286.188        0.326        0.121       64.108       19.136        0.089      333.307        2.536      861.576
12/10/2014  07:18:00      -25.408      -21.092        0.907       16.502       22.373       14.745      272.323      500.536      217.403        0.104        0.050       33.022       15.062        0.208      333.316        2.551      861.575
12/10/2014  07:19:00      -10.845       -5.381       -5.261       10.939        7.449        7.336      119.660       55.494       53.819        0.020        0.011       12.107        5.651        0.218      333.285        2.498      861.555
12/10/2014  07:20:00      -19.960      -11.439       -5.886       13.348        9.166        5.317      178.172       84.020       28.275        0.043        0.015       23.005        4.119        0.032      333.368        2.637      861.533
12/10/2014  07:21:00      -11.697      -30.000       -2.439       10.162       12.484       14.297      103.271      155.855      204.411        0.075        0.023       32.199        5.908        0.034      333.406        2.700      861.528
12/10/2014  07:22:00      -10.062       20.903       36.841        8.421       20.127       17.613       70.922      405.091      310.223        0.134        0.039       23.199       17.415        0.564      333.365        2.632      861.494
12/10/2014  07:23:00       -7.427       24.764       41.063        9.279       25.182       15.575       86.095      634.134      242.584        0.166        0.048       25.854       10.998        0.181      333.385        2.665      861.423
12/10/2014  07:24:00       55.248       44.565       15.442       29.205       23.603       27.759      852.950      557.083      770.572        0.373        0.109       70.981        5.392        0.006      333.336        2.585      861.366
12/10/2014  07:25:00       37.781       27.661        2.508       23.162       24.100       20.537      536.475      580.808      421.753        0.187        0.077       46.825       10.411        0.049      333.211        2.375      861.355
12/10/2014  07:26:00      -22.994       10.239        3.665       37.975       11.437       12.079     1442.070      130.813      145.894        0.118        0.086       25.171       12.261        0.237      333.161        2.294      861.369
12/10/2014  07:27:00      -45.216       18.750        5.117       25.230       12.964       12.244      636.571      168.061      149.909        0.169        0.048       48.950       13.569        0.077      333.287        2.503      861.355
12/10/2014  07:28:00        4.785       27.938       15.356       11.761       23.670       13.594      138.319      560.256      184.791        0.096        0.044       28.345       14.997        0.280      333.229        2.407      861.306
12/10/2014  07:29:00       25.209       51.354       -3.815        7.716       16.047        9.158       59.540      257.497       83.871        0.184        0.020       57.208        6.008        0.011      333.132        2.247      861.277
12/10/2014  07:30:00       18.133       12.964        6.191       15.341        6.832        8.891      235.337       46.674       79.058        0.045        0.018       22.291        4.303        0.037      333.281        2.492      861.304
12/10/2014  07:31:00      -35.033        4.107        3.243       22.193       13.386        8.955      492.529      179.189       80.201        0.100        0.038       35.273       10.460        0.088      333.349        2.606      861.327
12/10/2014  07:32:00      -37.727      -15.068        3.717       33.447       20.075       14.964     1118.704      402.995      223.918        0.170        0.087       40.625       15.563        0.147      333.374        2.648      861.353
12/10/2014  07:33:00      -61.937      -42.648        6.268       30.157       23.340       17.972      909.431      544.745      322.992        0.374        0.089       75.201       15.405        0.042      333.392        2.676      861.359
12/10/2014  07:34:00      -61.401      -49.548        4.046       36.614       30.061       16.051     1340.585      903.649      257.645        0.437        0.125       78.899       19.434        0.061      333.530        2.905      861.356
12/10/2014  07:35:00      -36.387      -26.206       11.688       34.411       36.128       18.036     1184.136     1305.251      325.280        0.248        0.141       44.841       21.128        0.222      333.582        2.992      861.323
12/10/2014  07:36:00      -30.629      -17.332        5.773       23.814       25.102       17.390      567.092      630.099      302.418        0.139        0.075       35.193       13.018        0.137      333.564        2.961      861.286
12/10/2014  07:37:00      -69.915      -18.017        2.536       33.858       27.584       15.999     1146.375      760.878      255.955        0.369        0.108       72.199       14.346        0.039      333.536        2.914      861.334
12/10/2014  07:38:00      -46.773      -29.185        2.979       31.740       21.347       14.101     1007.417      455.710      198.839        0.235        0.083       55.132       16.818        0.093      333.576        2.981      861.352
12/10/2014  07:39:00       14.923       -2.994       13.302       11.837       11.737       17.017      140.125      137.748      289.584        0.049        0.028       15.220       14.409        0.896      333.623        3.060      861.306
12/10/2014  07:40:00      -25.782       -8.514        1.480       17.235       20.957        5.981      297.037      439.194       35.777        0.076        0.039       27.152        6.397        0.056      333.577        2.984      861.323
12/10/2014  07:41:00      -38.064       30.181        0.275       20.846       16.740       11.777      434.557      280.231      138.696        0.161        0.043       48.577        8.413        0.030      333.595        3.012      861.307
12/10/2014  07:42:00      -19.799       26.594        4.642       15.228       25.405       15.350      231.889      645.396      235.613        0.112        0.056       33.155       15.058        0.206      333.665        3.129      861.306
12/10/2014  07:43:00      -21.682       16.669        4.216       20.972       14.081       10.860      439.844      198.274      117.943        0.076        0.038       27.349        8.008        0.086      333.650        3.104      861.330
12/10/2014  07:44:00      -40.457       34.029        0.145       19.294       24.015       12.631      372.275      576.731      159.538        0.195        0.055       52.865       12.278        0.054      333.682        3.155      861.299
12/10/2014  07:45:00      -70.542       -9.382       -2.852       27.680       32.125       16.528      766.177     1031.994      273.160        0.357        0.104       71.163       16.721        0.055      333.488        2.835      861.299
12/10/2014  07:46:00      -73.569        1.975       -7.521       24.464       21.952       15.321      598.500      481.888      234.746        0.339        0.066       73.596       11.914        0.026      333.308        2.536      861.342
12/10/2014  07:47:00       22.351       18.024        3.969       32.483       36.131       16.139     1055.114     1305.446      260.478        0.173        0.131       28.713        6.569        0.052      333.383        2.661      861.340
12/10/2014  07:48:00       12.706       67.859      -15.090       34.426       27.459       10.548     1185.157      754.017      111.251        0.352        0.103       69.038        7.252        0.011      333.416        2.714      861.293
12/10/2014  07:49:00      -41.553       34.082        4.242       31.129       30.566       18.260      968.991      934.267      333.439        0.257        0.112       53.742       14.457        0.072      333.618        3.049      861.251
12/10/2014  07:50:00      -94.053        7.593      -11.280       28.784       27.316       19.783      828.520      746.148      391.355        0.550        0.098       94.359       15.675        0.028      333.551        2.939      861.244
12/10/2014  07:51:00      -97.339        2.756       -9.681       34.610       30.701       15.942     1197.862      942.572      254.144        0.598        0.120       97.378       15.139        0.024      333.476        2.815      861.230
12/10/2014  07:52:00      -79.233        7.520       -4.970       33.821       24.717       16.061     1143.844      610.925      257.971        0.419        0.101       79.589       16.862        0.045      333.463        2.794      861.215
12/10/2014  07:53:00      -69.006       17.874       -7.621       25.228       18.318       10.420      636.432      335.533      108.586        0.311        0.054       71.283       10.573        0.022      333.650        3.103      861.185
12/10/2014  07:54:00      -63.618       89.020      -25.355       16.347       23.466       12.660      267.233      550.662      160.274        0.680        0.049      109.415        5.346        0.002      333.647        3.100      861.147
12/10/2014  07:55:00      -65.348       82.801      -16.723       34.413       35.742       18.603     1184.253     1277.497      346.058        0.711        0.140      105.481       10.931        0.011      333.872        3.472      861.113
12/10/2014  07:56:00     -100.803       -9.672      -11.222       20.103       24.146       18.854      404.120      583.019      355.465        0.586        0.067      101.266       12.357        0.015      333.760        3.286      861.137
12/10/2014  07:57:00     -100.245      -26.672      -14.869       23.202       24.214       16.219      538.324      586.328      263.063        0.618        0.069      103.732       10.223        0.010      333.769        3.301      861.151
12/10/2014  07:58:00      -88.954       69.455      -15.282       35.898       40.542       21.377     1288.701     1643.631      456.963        0.818        0.169      112.857       19.891        0.031      334.031        3.736      861.120
12/10/2014  07:59:00      -35.773       64.219      -15.224       19.858       39.405       17.255      394.343     1552.715      297.748        0.394        0.112       73.511       13.999        0.036      334.154        3.940      861.089
12/10/2014  08:00:00      -70.668      -30.806       -8.769       43.896       27.569       17.517     1926.869      760.054      306.857        0.451        0.150       77.091       13.927        0.033      333.940        3.585      861.143
12/10/2014  08:01:00      -40.350      -43.814       -6.263       42.464       29.007       18.787     1803.183      841.408      352.946        0.329        0.150       59.563       22.458        0.142      333.826        3.394      861.126
12/10/2014  08:02:00       22.140       18.031       24.486       16.359       10.741       10.650      267.628      115.373      113.412        0.096        0.025       28.554        2.867        0.010      333.852        3.439      861.012
12/10/2014  08:03:00      -40.319      -10.506      -10.336       68.309       38.660       10.746     4666.071     1494.558      115.469        0.406        0.314       41.666        5.596        0.018      333.976        3.644      861.052
12/10/2014  08:04:00     -195.461      -86.949      -13.927       61.863       32.880       27.272     3827.005     1081.074      743.781        2.580        0.283      213.928       20.083        0.009      333.866        3.459      861.180
12/10/2014  08:05:00     -126.735      -12.676       -2.614       74.680       53.641       28.285     5577.082     2877.322      800.054        1.274        0.463      127.367       24.041        0.036      333.879        3.482      861.166
12/10/2014  08:06:00        5.791       47.109        5.447       34.934       27.648       23.298     1220.385      764.400      542.794        0.240        0.126       47.464       16.855        0.126      333.991        3.671      861.040
12/10/2014  08:07:00       34.591       31.868        2.856       32.141       25.854       16.671     1033.038      668.437      277.912        0.210        0.099       47.033       16.557        0.124      333.959        3.616      860.956
12/10/2014  08:08:00      -16.078       38.111      -11.396       18.102       16.464       10.640      327.677      271.064      113.203        0.128        0.036       41.364        9.318        0.051      334.063        3.788      860.973
12/10/2014  08:09:00      -72.905       -8.064       -6.559       24.421       26.459       15.517      596.388      700.101      240.780        0.348        0.077       73.350       13.368        0.033      334.096        3.841      860.990
12/10/2014  08:10:00      -74.337      -30.800      -12.810       18.236       13.993       10.400      332.558      195.814      108.161        0.364        0.032       80.465       10.408        0.017      334.045        3.760      860.960
12/10/2014  08:11:00      -77.939       -3.308       -9.912       27.144       19.927       12.172      736.778      397.081      148.156        0.373        0.064       78.009       13.456        0.030      334.052        3.771      860.904
12/10/2014  08:12:00     -137.621      -15.284      -12.866       39.071       25.663       20.811     1526.551      658.603      433.105        1.098        0.131      138.467       19.878        0.021      334.116        3.876      860.908
12/10/2014  08:13:00     -257.744      -85.030       -4.815      113.981       62.761       39.336    12991.621     3938.995     1547.290        4.608        0.924      271.407       25.164        0.009      333.956        3.608      860.982
12/10/2014  08:14:00     -232.519      -65.199      -16.666      104.938      105.528       38.842    11011.993    11136.177     1508.663        4.112        1.183      241.487       40.685        0.028      333.861        3.450      861.010
12/10/2014  08:15:00      -82.754        8.782        0.469       42.954       30.007       17.544     1845.008      900.398      307.797        0.499        0.153       83.218       16.913        0.041      333.950        3.601      860.949
12/10/2014  08:16:00       -8.356       -0.900        5.691       11.201       10.002       13.661      125.453      100.032      186.621        0.026        0.021        8.404        6.840        0.662      334.090        3.833      860.870
12/10/2014  08:17:00      -85.899      -31.980       -9.015       27.857       25.811       13.763      776.033      666.182      189.432        0.506        0.082       91.659        7.611        0.007      334.189        3.996      860.881
12/10/2014  08:18:00      -93.576      -60.874       -0.888       44.768       29.082       22.325     2004.145      845.787      498.395        0.790        0.167      111.634       25.105        0.051      334.098        3.846      860.936
12/10/2014  08:19:00      -18.177      -25.049        8.785       35.669       17.276       15.369     1272.256      298.451      236.199        0.142        0.090       30.949       14.922        0.232      334.121        3.884      860.919
12/10/2014  08:20:00        0.742       10.356       10.531        9.557       12.021       10.950       91.340      144.505      119.904        0.029        0.018       10.383        5.581        0.289      334.217        4.046      860.841
12/10/2014  08:21:00        6.735       26.168       -3.065       17.964       15.848       13.009      322.696      251.175      169.238        0.074        0.037       27.020        8.339        0.095      334.224        4.055      860.768
12/10/2014  08:22:00      -49.296       54.270      -14.156       57.386       32.812       12.986     3293.151     1076.601      168.624        0.506        0.227       73.317       10.659        0.021      334.199        4.014      860.737
12/10/2014  08:23:00      -97.702      -45.031      -15.645       31.019       33.227       19.318      962.162     1104.009      373.172        0.713        0.122      107.580       15.790        0.022      334.083        3.822      860.871
12/10/2014  08:24:00      -55.292      -61.348        4.458       65.753       40.175       28.376     4323.509     1614.012      805.185        0.679        0.337       82.589       24.935        0.091      334.133        3.904      861.021
12/10/2014  08:25:00       51.365       16.564       16.448       49.336       33.393       25.320     2434.014     1115.084      641.095        0.369        0.210       53.970       12.401        0.053      334.181        3.984      860.950
12/10/2014  08:26:00      105.126       58.227       16.783       48.292       34.624       32.133     2332.137     1198.793     1032.518        0.964        0.228      120.174       18.470        0.024      334.161        3.951      860.784
12/10/2014  08:27:00       23.472       41.109       34.910       37.128       29.520       15.227     1378.513      871.424      231.859        0.297        0.124       47.339       13.348        0.080      334.221        4.050      860.755
12/10/2014  08:28:00      -12.395        8.197       23.442       27.589       23.120       18.408      761.178      534.541      338.845        0.120        0.082       14.860       19.161        1.663      334.259        4.115      860.825
12/10/2014  08:29:00       -4.220      -32.462        2.108       29.271       25.002       20.943      856.813      625.092      438.608        0.150        0.096       32.735       12.630        0.149      334.386        4.324      860.877
12/10/2014  08:30:00        2.043       24.140       34.497       15.622       21.537       13.740      244.048      463.856      188.799        0.134        0.045       24.227       12.000        0.245      334.343        4.254      860.878
12/10/2014  08:31:00       26.015       37.323       43.103       56.250       38.407       45.226     3164.074     1475.071     2045.381        0.530        0.334       45.495       29.254        0.413      334.285        4.157      860.826
12/10/2014  08:32:00       98.655       28.675       45.374       65.061       40.850       45.891     4232.984     1668.701     2105.997        1.031        0.400      102.738       28.686        0.078      334.208        4.028      860.751
12/10/2014  08:33:00       63.776       22.489       11.770       50.087       42.635       28.394     2508.663     1817.769      806.207        0.492        0.257       67.625       18.396        0.074      334.164        3.958      860.763
12/10/2014  08:34:00      -11.972      -35.829        1.876       15.992       15.528       11.119      255.740      241.115      123.622        0.103        0.031       37.776        8.380        0.049      334.186        3.994      860.881
12/10/2014  08:35:00      -98.146       -4.964      -11.673       31.571       22.603       14.361      996.719      510.903      206.246        0.575        0.086       98.271       13.093        0.018      334.228        4.062      860.973
12/10/2014  08:36:00      -73.200      -25.926        5.206       42.286       39.894       23.161     1788.089     1591.507      536.409        0.499        0.196       77.656       24.232        0.097      334.303        4.188      860.960
12/10/2014  08:37:00      -24.150      -20.399        8.922       33.973       23.995       16.407     1154.192      575.757      269.185        0.154        0.100       31.612       14.188        0.201      334.354        4.272      860.945
12/10/2014  08:38:00      -59.222      -28.210        4.930       54.257       29.185       19.777     2943.806      851.778      391.147        0.426        0.209       65.598       15.284        0.054      334.332        4.234      860.988
12/10/2014  08:39:00      -99.286      -24.985       -3.781       28.775       28.192       13.452      827.983      794.762      180.950        0.615        0.090      102.381        7.437        0.005      334.294        4.172      860.995
12/10/2014  08:40:00     -107.569        5.932      -10.492       37.148       26.062       18.545     1379.990      679.253      343.934        0.706        0.120      107.732       22.163        0.042      334.483        4.487      860.995
12/10/2014  08:41:00     -128.296      -60.860      -10.062       30.765       34.775       15.637      946.474     1209.297      244.530        1.133        0.120      142.000       14.843        0.011      334.303        4.187      861.049
12/10/2014  08:42:00      -78.424      -22.179       -3.911       21.760       22.541       20.923      473.512      508.103      437.758        0.404        0.071       81.500       16.073        0.039      334.313        4.203      861.081
12/10/2014  08:43:00      -44.156      -10.009       -2.916        8.371       16.049        7.784       70.070      257.565       60.592        0.122        0.019       45.276        5.287        0.014      334.366        4.291      861.051
12/10/2014  08:44:00      -87.500      -20.432       -8.223       19.809       14.129       11.275      392.383      199.623      127.115        0.443        0.036       89.854        9.174        0.010      334.404        4.354      861.045
12/10/2014  08:45:00     -128.674      -64.532       -3.969       36.790       32.472       20.165     1353.521     1054.421      406.613        1.178        0.141      143.949       13.975        0.009      334.385        4.324      861.077
12/10/2014  08:46:00      -99.464      -60.021        1.629       47.173       32.285       24.251     2225.252     1042.298      588.118        0.868        0.193      116.170       22.226        0.037      334.371        4.301      861.095
12/10/2014  08:47:00     -113.297      -65.866       -0.204       42.835       33.147       25.457     1834.877     1098.737      648.057        1.038        0.179      131.051       19.774        0.023      334.332        4.236      861.109
12/10/2014  08:48:00      -79.763      -71.582        3.303       70.050       51.206       32.323     4907.006     2622.038     1044.771        1.003        0.429      107.173       36.827        0.118      334.383        4.319      861.146
12/10/2014  08:49:00     -102.391      -90.417       -5.519       39.342       42.337       27.145     1547.756     1792.454      736.873        1.138        0.204      136.598       25.169        0.034      334.325        4.223      861.117
12/10/2014  08:50:00      -35.425       16.871        5.404       16.025       17.260       12.389      256.790      297.910      153.493        0.114        0.035       39.237        9.197        0.055      334.374        4.305      860.990
12/10/2014  08:51:00      -52.377       29.791       -1.189       24.223       27.908       17.494      586.753      778.884      306.036        0.265        0.084       60.257        9.866        0.027      334.466        4.456      860.891
12/10/2014  08:52:00      -64.324       25.941      -12.628       21.742       26.556       14.158      472.722      705.245      200.436        0.317        0.069       69.358       10.894        0.025      334.483        4.484      860.878
12/10/2014  08:53:00      -89.260      -27.365       -9.227       34.270       20.697       12.583     1174.419      428.346      158.340        0.528        0.088       93.361       14.900        0.025      334.463        4.453      860.944
12/10/2014  08:54:00      -84.737      -40.810      -12.289       40.104       24.157       21.466     1608.320      583.570      460.774        0.582        0.133       94.052       27.286        0.084      334.375        4.308      861.024
12/10/2014  08:55:00       20.572        0.866        6.877       16.603       19.017       14.387      275.673      361.628      206.974        0.066        0.042       20.590       12.516        0.370      334.505        4.522      861.028
12/10/2014  08:56:00       70.130       48.707       -3.179       25.514       19.999       18.803      650.949      399.952      353.560        0.435        0.070       85.385       12.783        0.022      334.500        4.512      860.949
12/10/2014  08:57:00       80.212       34.719      -11.850       27.124       24.838       18.232      735.710      616.937      332.402        0.473        0.084       87.403       10.519        0.014      334.491        4.499      860.949
12/10/2014  08:58:00       -4.444       -7.362       -4.624       45.057       23.428       20.881     2030.157      548.878      436.022        0.155        0.151        8.599       19.015        4.890      334.523        4.550      861.075
12/10/2014  08:59:00      -80.589      -57.855        2.659       51.206       40.254       28.799     2622.031     1620.423      829.356        0.746        0.254       99.206       31.193        0.099      334.602        4.681      861.151
12/10/2014  09:00:00      -11.318       20.619       17.887       34.514       24.476       15.321     1191.249      599.078      234.740        0.145        0.101       23.521       18.280        0.604      334.596        4.673      861.079
12/10/2014  09:01:00       12.829       24.055       -6.467       23.015       20.143       15.099      529.671      405.738      227.993        0.097        0.058       27.262        8.614        0.100      334.551        4.597      861.014
12/10/2014  09:02:00      -24.672      -19.050       -9.902       22.558       15.615        8.829      508.862      243.833       77.956        0.095        0.042       31.170       10.426        0.112      334.635        4.737      861.029
12/10/2014  09:03:00       14.470      -17.931        6.943       23.291       19.991       17.516      542.474      399.658      306.801        0.091        0.062       23.041       16.142        0.491      334.716        4.873      861.032
12/10/2014  09:04:00       26.271       14.301        8.501       15.523        8.622       10.254      240.954       74.344      105.137        0.069        0.021       29.911        7.705        0.066      334.613        4.701      860.993
12/10/2014  09:05:00      -32.309       -5.928       -0.339       20.503       12.956       12.932      420.366      167.863      167.224        0.092        0.038       32.848        8.666        0.070      334.693        4.835      860.994
12/10/2014  09:06:00       22.967       38.174       23.920       25.131       21.117       22.429      631.580      445.931      503.046        0.207        0.079       44.551       15.667        0.124      334.608        4.694      860.965
12/10/2014  09:07:00      105.518       69.299        3.933       30.417       22.625       28.871      925.192      511.878      833.562        0.911        0.114      126.240       18.555        0.022      334.511        4.533      860.869
12/10/2014  09:08:00       50.130       61.515       43.662       51.833       41.801       34.065     2686.697     1747.335     1160.422        0.690        0.280       79.354       36.918        0.216      334.477        4.474      860.822
12/10/2014  09:09:00       13.405       40.262       51.958       24.862       23.193       17.123      618.128      537.903      293.214        0.297        0.072       42.435       14.186        0.112      334.451        4.432      860.852
12/10/2014  09:10:00      -12.019      -10.409       39.839       18.452       40.722       26.148      340.490     1658.305      683.695        0.226        0.134       15.900       24.110        2.300      334.621        4.714      860.893
12/10/2014  09:11:00        5.048       19.135       43.268       25.349       29.542       26.314      642.595      872.737      692.452        0.224        0.110       19.789       20.234        1.045      334.574        4.636      860.846
12/10/2014  09:12:00       72.162       53.010       37.341       36.453       31.493       38.972     1328.853      991.805     1518.842        0.662        0.192       89.540       19.873        0.049      334.538        4.576      860.787
12/10/2014  09:13:00       91.688       39.562       32.478       43.519       28.530       31.568     1893.931      813.963      996.514        0.736        0.185       99.859       21.045        0.044      334.405        4.357      860.802
12/10/2014  09:14:00       38.875       56.849       69.567       35.175       30.056       17.317     1237.269      903.365      299.870        0.601        0.122       68.871       17.631        0.066      334.370        4.298      860.864
12/10/2014  09:15:00       18.108       70.962       78.848       39.384       45.459       27.989     1551.091     2066.519      783.407        0.799        0.220       73.236       29.953        0.167      334.427        4.392      860.872
12/10/2014  09:16:00       72.679       77.299       51.486       55.166       36.106       34.679     3043.281     1303.621     1202.604        0.973        0.277      106.100       33.676        0.101      334.369        4.297      860.852
12/10/2014  09:17:00       93.208       61.548       27.517       31.473       24.066       29.784      990.541      579.196      887.093        0.784        0.123      111.696       25.735        0.053      334.334        4.241      860.849
12/10/2014  09:18:00       93.841       49.845       25.493       37.531       41.837       31.226     1408.563     1750.296      975.084        0.804        0.207      106.258       20.815        0.038      334.338        4.246      860.822
12/10/2014  09:19:00       50.818       68.785       66.030       47.238       36.098       33.666     2231.448     1303.085     1133.377        0.817        0.233       85.521       27.522        0.104      334.380        4.314      860.825
12/10/2014  09:20:00       57.293       68.016       86.887       65.316       50.598       39.840     4266.203     2560.134     1587.208        1.193        0.421       88.930       43.017        0.234      334.346        4.259      860.855
12/10/2014  09:21:00      112.944      122.069       84.270       58.534       40.496       52.359     3426.276     1639.964     2741.494        2.128        0.390      166.305       38.400        0.053      334.307        4.193      860.828
12/10/2014  09:22:00       96.476       89.362       75.601       70.985       58.656       53.378     5038.842     3440.535     2849.208        1.717        0.566      131.504       40.027        0.093      334.261        4.117      860.791
12/10/2014  09:23:00      129.257       13.075       44.688       65.282       40.696       44.505     4261.804     1656.142     1980.655        1.339        0.395      129.917       33.846        0.068      334.273        4.136      860.791
12/10/2014  09:24:00       97.350       34.605       23.143       67.741       39.917       42.349     4588.877     1593.344     1793.416        0.959        0.399      103.318       30.147        0.085      334.285        4.156      860.792
12/10/2014  09:25:00       94.932       50.266       27.441       44.258       41.320       33.092     1958.786     1707.383     1095.100        0.853        0.238      107.419       19.652        0.033      334.315        4.208      860.764
12/10/2014  09:26:00       79.814       32.021       35.529       45.519       45.882       25.368     2071.945     2105.156      643.527        0.674        0.241       85.998       25.182        0.086      334.311        4.201      860.742
12/10/2014  09:27:00       67.013       10.149       35.332       45.300       27.762       25.384     2052.109      770.711      644.364        0.465        0.173       67.777       20.892        0.095      334.313        4.203      860.743
12/10/2014  09:28:00      105.937       59.384       14.140       44.275       40.829       21.320     1960.296     1667.042      454.526        0.951        0.204      121.446       14.768        0.015      334.292        4.170      860.680
12/10/2014  09:29:00       79.311       65.586        4.008       58.084       39.578       40.152     3373.768     1566.440     1612.205        0.858        0.328      102.916       28.224        0.075      334.245        4.091      860.597
12/10/2014  09:30:00      115.075       85.964       26.522       53.621       34.562       30.607     2875.219     1194.514      936.785        1.317        0.250      143.639       27.105        0.036      334.175        3.973      860.595
12/10/2014  09:31:00       73.395       39.808        7.324       40.041       31.884       22.712     1603.289     1016.565      515.843        0.508        0.157       83.495       16.170        0.038      334.159        3.947      860.621
12/10/2014  09:32:00       66.667       53.168        0.197       26.040       19.660       17.232      678.072      386.534      296.945        0.432        0.068       85.272       12.779        0.022      334.197        4.012      860.634
12/10/2014  09:33:00       91.740       40.865       10.763       40.294       25.847       28.321     1623.578      668.077      802.097        0.665        0.155      100.430        7.052        0.005      334.278        4.145      860.576
12/10/2014  09:34:00       65.072       42.849        0.086       51.756       25.210       18.292     2678.729      635.545      334.595        0.486        0.182       77.913       12.097        0.024      334.201        4.018      860.544
12/10/2014  09:35:00       39.821       55.320        2.262       24.989       34.050       23.339      624.453     1159.401      544.692        0.349        0.116       68.162       18.286        0.072      334.171        3.968      860.531
12/10/2014  09:36:00        0.025       42.785       -3.864       15.026       22.683       13.367      225.775      514.530      178.670        0.138        0.046       42.785       10.988        0.066      334.178        3.980      860.518
12/10/2014  09:37:00       25.962       57.669       -3.154       20.295       26.202       12.431      411.887      686.565      154.527        0.263        0.063       63.243       12.793        0.041      334.169        3.965      860.501
12/10/2014  09:38:00       30.236       67.723      -13.470       15.462       24.005       12.762      239.065      576.247      162.874        0.333        0.049       74.166       11.303        0.023      334.190        4.000      860.436
12/10/2014  09:39:00       43.651       83.495       -5.778       26.352       26.267       21.560      694.411      689.953      464.821        0.538        0.092       94.217       18.213        0.037      334.197        4.008      860.393
12/10/2014  09:40:00       51.685       52.180        4.232       26.950       26.984       20.904      726.285      728.153      436.980        0.365        0.095       73.444       15.075        0.042      334.216        4.042      860.388
12/10/2014  09:41:00       35.143       35.182       -1.077       24.305       25.044       20.034      590.714      627.195      401.364        0.205        0.081       49.728       14.825        0.089      334.216        4.044      860.372
12/10/2014  09:42:00       73.143       47.707        0.231       19.480       22.861       22.303      379.462      522.603      497.446        0.451        0.070       87.326        8.424        0.009      334.172        3.969      860.364
12/10/2014  09:43:00       50.742       16.389        3.459       33.056       19.854       21.168     1092.671      394.186      448.095        0.239        0.097       53.323       14.401        0.073      334.200        4.017      860.399
12/10/2014  09:44:00       17.630       55.126       -6.162       17.689       24.285       12.149      312.909      589.754      147.610        0.222        0.053       57.876       10.249        0.031      334.163        3.955      860.416
12/10/2014  09:45:00        5.083       86.935      -17.131       10.713       13.883        7.566      114.764      192.735       57.238        0.412        0.018       87.084        6.426        0.005      334.158        3.947      860.358
12/10/2014  09:46:00       13.189       80.850      -13.532       24.082       31.419       18.766      579.938      987.168      352.152        0.441        0.096       81.919       18.821        0.053      334.267        4.125      860.357
12/10/2014  09:47:00       15.539       88.090      -17.222       14.945       19.365       12.729      223.363      375.017      162.036        0.453        0.038       89.450        2.978        0.001      334.236        4.074      860.396
12/10/2014  09:48:00       -1.362       71.788        0.656       21.501       44.586       18.041      462.279     1987.896      325.474        0.397        0.139       71.801       20.931        0.085      334.295        4.173      860.426
12/10/2014  09:49:00      -19.088       21.283        5.581       18.708       26.007       17.176      349.979      676.384      295.017        0.108        0.066       28.588       10.623        0.138      334.490        4.498      860.444
12/10/2014  09:50:00        9.784       43.845       -0.272       27.564       30.110       23.371      759.766      906.606      546.184        0.211        0.111       44.923       15.923        0.126      334.404        4.356      860.416
12/10/2014  09:51:00       62.314       59.211        5.558       34.310       25.746       21.263     1177.191      662.833      452.136        0.486        0.115       85.959       18.447        0.046      334.288        4.163      860.369
12/10/2014  09:52:00       78.450       59.281       -2.521       30.215       28.271       22.240      912.934      799.261      494.618        0.594        0.110       98.329       19.276        0.038      334.248        4.095      860.347
12/10/2014  09:53:00       89.986       45.104       -1.149       40.199       39.844       25.521     1615.921     1587.514      651.303        0.699        0.193      100.657        8.347        0.007      334.249        4.098      860.348
12/10/2014  09:54:00       38.312       34.337       -0.397       22.207       16.340       21.627      493.135      267.000      467.708        0.194        0.061       51.447       14.721        0.082      334.236        4.075      860.374
12/10/2014  09:55:00       81.888       56.210        7.637       37.919       16.248       20.868     1437.872      263.995      435.463        0.603        0.107       99.324       16.119        0.026      334.231        4.068      860.298
12/10/2014  09:56:00       87.705       43.322        0.411       26.397       14.302       10.877      696.785      204.547      118.319        0.529        0.051       97.821        6.300        0.004      334.187        3.996      860.294
12/10/2014  09:57:00        7.329        5.570       -3.607       20.695       23.514       13.448      428.295      552.907      180.853        0.063        0.058        9.206       14.901        2.620      334.228        4.062      860.307
12/10/2014  09:58:00       -5.172        8.209       -2.659       21.912       19.159        9.739      480.128      367.062       94.845        0.052        0.047        9.702        7.355        0.575      334.383        4.322      860.264
12/10/2014  09:59:00     -105.138      -28.976      -10.598       42.761       23.959       14.177     1828.511      574.058      200.978        0.730        0.130      109.058       18.058        0.027      334.420        4.381      860.278
12/10/2014  10:00:00     -191.338     -106.322      -10.345       65.624       39.187       30.288     4306.540     1535.594      917.367        2.739        0.338      218.894       18.940        0.007      334.402        4.348      860.320
12/10/2014  10:01:00     -226.635      -60.340      -14.218       76.788       67.747       34.889     5896.380     4589.624     1217.212        3.345        0.585      234.530       24.569        0.011      334.492        4.497      860.367
12/10/2014  10:02:00     -166.443      -89.223        3.197       83.490       73.983       44.533     6970.535     5473.412     1983.176        2.505        0.721      188.849       41.872        0.049      334.466        4.455      860.329
12/10/2014  10:03:00     -113.068       -7.564       -4.755       60.313       34.650       21.884     3637.626     1200.642      478.893        0.909        0.266      113.320       19.863        0.031      334.439        4.412      860.197
12/10/2014  10:04:00      -21.879       24.897        0.727       32.360       25.537       20.438     1047.143      652.120      417.729        0.161        0.106       33.145       13.803        0.173      334.580        4.647      860.159
12/10/2014  10:05:00      -86.954      -29.680      -10.290       41.443       33.509       23.472     1717.536     1122.829      550.927        0.597        0.170       91.880       19.481        0.045      334.559        4.610      860.173
12/10/2014  10:06:00      -76.739      -25.822       -3.938       54.305       33.764       22.880     2949.040     1140.010      523.480        0.559        0.231       80.967       28.003        0.120      334.597        4.673      860.120
12/10/2014  10:07:00      -13.054      -21.303        9.925       22.420       23.583       15.800      502.645      556.161      249.648        0.102        0.065       24.984       11.202        0.201      334.876        5.137      860.039
12/10/2014  10:08:00      -57.171      -25.099       -6.358       14.661       13.894       12.689      214.942      193.047      161.007        0.225        0.028       62.438        8.479        0.018      334.628        4.724      860.047
12/10/2014  10:09:00      -69.706      -26.740       -3.157       28.629       22.843       13.724      819.617      521.816      188.340        0.356        0.076       74.659       11.465        0.024      334.721        4.881      860.034
12/10/2014  10:10:00      -56.185       -9.886       -3.562       37.882       21.012       10.300     1435.011      441.521      106.097        0.262        0.099       57.048        9.937        0.030      334.644        4.752      859.986
12/10/2014  10:11:00        6.093      -13.537       11.542        9.331       15.546        8.694       87.077      241.665       75.586        0.038        0.020       14.845        5.090        0.118      334.847        5.090      859.990
12/10/2014  10:12:00       11.071        3.721       13.707        8.092        9.740        8.321       65.481       94.865       69.243        0.028        0.011       11.680        6.911        0.350      334.884        5.151      859.997
12/10/2014  10:13:00      -16.412       50.405       -9.659       32.869       21.668        8.595     1080.394      469.503       73.868        0.226        0.081       53.010       10.306        0.038      334.905        5.185      859.924
12/10/2014  10:14:00      -95.978      -31.557      -13.166       28.052       33.703       16.540      786.890     1135.895      273.577        0.629        0.110      101.033       12.524        0.015      334.839        5.076      859.963
12/10/2014  10:15:00     -102.146      -81.588       -1.544       32.768       28.469       19.793     1073.767      810.495      391.778        0.968        0.114      130.730       13.326        0.010      334.801        5.013      860.002
12/10/2014  10:16:00     -110.504       -9.328      -13.576       25.107       39.414       19.649      630.353     1553.490      386.080        0.753        0.128      110.897       14.106        0.016      334.862        5.115      859.938
12/10/2014  10:17:00      -58.218       22.857      -10.184       18.197       23.600       15.100      331.116      556.948      228.011        0.257        0.056       62.544       11.871        0.036      334.931        5.230      859.852
12/10/2014  10:18:00      -72.806      -22.339      -13.152       23.337       22.209       16.594      544.635      493.232      275.359        0.364        0.066       76.156       18.969        0.062      334.920        5.212      859.846
12/10/2014  10:19:00      -82.346      -23.258        0.700       30.481       21.703       18.025      929.101      471.026      324.907        0.452        0.086       85.567       15.411        0.032      334.934        5.235      859.912
12/10/2014  10:20:00      -89.727      -54.680       -5.689       23.959       16.442       14.362      574.026      270.349      206.272        0.606        0.053      105.075        5.902        0.003      334.885        5.152      859.917
12/10/2014  10:21:00      -75.789      -28.294       -2.502       30.272       18.560       14.805      916.415      344.460      219.185        0.402        0.074       80.899        3.109        0.001      334.946        5.253      859.875
12/10/2014  10:22:00       13.500      -18.412       -3.538       16.151       15.176       18.502      260.863      230.304      342.317        0.068        0.042       22.831        4.937        0.047      335.051        5.429      859.828
12/10/2014  10:23:00       -9.689      -10.255        7.682       10.301       17.510       11.335      106.115      306.583      128.473        0.040        0.027       14.108       12.809        0.824      335.059        5.443      859.784
12/10/2014  10:24:00      -18.847      -38.393       -2.003       32.585       15.806       17.396     1061.780      249.824      302.635        0.172        0.081       42.769       10.175        0.057      335.049        5.428      859.799
12/10/2014  10:25:00      -36.294      -46.311        4.107       34.212       31.490       23.459     1170.455      991.629      550.305        0.310        0.136       58.838       19.468        0.109      335.086        5.487      859.876
12/10/2014  10:26:00      -22.067      -32.451       13.337       33.787       30.310       20.820     1141.567      918.724      433.483        0.211        0.125       39.243       22.644        0.333      335.156        5.603      859.850
12/10/2014  10:27:00      -89.147      -45.523        7.151       40.021       40.185       24.027     1601.651     1614.856      577.308        0.693        0.190      100.098       17.068        0.029      335.121        5.544      859.835
12/10/2014  10:28:00     -153.097     -117.498       -1.430       51.234       50.066       31.686     2624.948     2506.583     1003.999        2.169        0.307      192.988       27.200        0.020      335.119        5.541      859.894
12/10/2014  10:29:00     -157.670     -108.470       -1.370       81.854       79.042       42.593     6700.116     6247.596     1814.168        2.569        0.738      191.378       38.130        0.040      335.082        5.477      859.987
12/10/2014  10:30:00     -253.222     -138.651      -16.908       69.354       57.120       43.485     4809.949     3262.691     1890.981        4.680        0.498      288.696       36.990        0.016      334.876        5.134      859.977
12/10/2014  10:31:00      -64.683      -45.550        3.340       54.508       53.087       35.005     2971.162     2818.232     1225.375        0.664        0.351       79.112       39.795        0.253      334.873        5.133      859.857
12/10/2014  10:32:00     -114.192      -48.595       -6.088       47.134       27.982       20.938     2221.614      782.992      438.393        0.944        0.172      124.102       25.019        0.041      334.885        5.152      859.837
12/10/2014  10:33:00     -145.765     -104.058       -0.661       76.678       50.008       36.508     5879.470     2500.776     1332.802        2.089        0.486      179.097       36.713        0.042      334.918        5.204      859.901
12/10/2014  10:34:00     -183.132     -136.872      -14.779       69.424       61.563       40.913     4819.642     3790.036     1673.897        3.138        0.514      228.629       33.207        0.021      334.902        5.178      859.903
12/10/2014  10:35:00     -130.193      -74.432       -1.837       76.238       43.112       31.718     5812.274     1858.645     1006.007        1.558        0.434      149.968       38.798        0.067      334.948        5.258      859.872
12/10/2014  10:36:00     -120.618      -33.655        5.304       53.062       49.867       31.281     2815.596     2486.683      978.530        1.099        0.314      125.225       26.435        0.045      334.939        5.242      859.783
12/10/2014  10:37:00     -124.916      -54.024       -9.842       37.114       36.090       21.804     1377.449     1302.513      475.435        1.089        0.158      136.098       12.966        0.009      334.998        5.341      859.725
12/10/2014  10:38:00     -122.816      -48.613       -3.505       54.035       47.406       36.318     2919.744     2247.316     1319.013        1.197        0.324      132.087        7.953        0.004      334.999        5.345      859.721
12/10/2014  10:39:00     -113.401      -72.588       -2.392       55.598       36.119       26.230     3091.177     1304.583      688.032        1.161        0.254      134.643       19.171        0.020      335.055        5.436      859.707
12/10/2014  10:40:00      -87.883       -8.842       -5.504       38.196       20.362       18.614     1458.951      414.603      346.480        0.503        0.111       88.326       16.128        0.033      335.091        5.495      859.628
12/10/2014  10:41:00     -103.423      -30.674       -5.214       29.844       19.497       16.865      890.679      380.120      284.430        0.661        0.078      107.876       16.480        0.023      335.137        5.571      859.597
12/10/2014  10:42:00      -70.152      -78.067       -5.160       41.840       29.220       18.820     1750.548      853.780      354.211        0.700        0.148      104.956       19.515        0.035      335.092        5.496      859.615
12/10/2014  10:43:00      -82.088     -112.467      -10.410       28.173       46.202       18.569      793.694     2134.641      344.811        1.138        0.164      139.238       23.834        0.029      335.075        5.468      859.676
12/10/2014  10:44:00     -118.886      -98.971      -15.755       39.972       42.339       26.214     1597.770     1792.599      687.188        1.413        0.204      154.691       23.365        0.023      335.097        5.504      859.709
12/10/2014  10:45:00     -116.620      -80.122       -0.382       56.112       29.382       27.490     3148.519      863.325      755.688        1.239        0.238      141.491       28.564        0.041      335.155        5.601      859.716
12/10/2014  10:46:00     -104.346      -71.432       -4.689       39.347       45.390       26.455     1548.156     2060.264      699.883        1.016        0.215      126.454       27.041        0.046      335.103        5.516      859.692
12/10/2014  10:47:00      -11.419      -65.651        6.648       35.868       59.573       29.341     1286.511     3548.889      860.881        0.509        0.285       66.636       26.472        0.158      335.086        5.488      859.631
12/10/2014  10:48:00       21.705       35.642       31.047       32.877       44.773       24.976     1080.919     2004.616      623.825        0.321        0.185       41.730       23.108        0.307      335.201        5.677      859.508
12/10/2014  10:49:00       19.958       98.280       96.260       40.648       37.804       27.847     1652.279     1429.163      775.458        1.159        0.193      100.286       25.346        0.064      335.209        5.690      859.398
12/10/2014  10:50:00       70.908       96.657       80.867       54.439       41.818       24.999     2963.576     1748.775      624.940        1.312        0.267      119.877       25.041        0.044      335.162        5.615      859.301
12/10/2014  10:51:00        1.900       -0.644       40.730       34.434       56.232       30.216     1185.686     3162.023      913.007        0.346        0.263        2.006       38.436      366.997      335.216        5.703      859.253
12/10/2014  10:52:00      -38.852      -29.329        5.553       38.656       27.133       27.409     1494.254      736.206      751.265        0.269        0.149       48.680       23.496        0.233      335.303        5.846      859.269
12/10/2014  10:53:00      -73.870      -77.525       10.881       82.061       64.458       35.489     6733.941     4154.827     1259.493        1.186        0.607      107.083       28.527        0.071      335.170        5.624      859.286
12/10/2014  10:54:00     -180.286     -129.767       -7.243       53.322       40.614       32.661     2843.265     1649.537     1066.756        2.748        0.278      222.132       24.485        0.012      334.986        5.317      859.322
12/10/2014  10:55:00     -105.681      -59.037      -15.388       38.799       50.212       20.841     1505.375     2521.201      434.338        0.967        0.223      121.053       10.852        0.008      335.043        5.415      859.307
12/10/2014  10:56:00      -19.657      -58.326       -5.420       26.702       38.833       15.974      713.017     1508.034      255.160        0.315        0.124       61.549       12.176        0.039      335.133        5.565      859.239
12/10/2014  10:57:00      -21.155      -18.411       -1.771       19.239       32.734       25.003      370.157     1071.541      625.154        0.143        0.103       28.044       16.937        0.365      335.309        5.856      859.151
12/10/2014  10:58:00      -36.235       -6.925       -3.482       21.725       17.898       10.562      471.962      320.355      111.561        0.114        0.045       36.891        6.306        0.029      335.330        5.892      859.097
12/10/2014  10:59:00      -60.647      -52.278        4.903       45.722       22.404       14.990     2090.469      501.919      224.698        0.463        0.141       80.069       12.859        0.026      335.293        5.829      859.096
12/10/2014  11:00:00      -75.438      -26.740       -6.437       18.394       13.481       15.381      338.352      181.737      236.584        0.360        0.038       80.037        6.225        0.006      335.213        5.694      859.085
12/10/2014  11:01:00      -41.900      -35.449       -6.202       20.366       30.207        9.328      414.776      912.445       87.004        0.223        0.071       54.884       12.480        0.052      335.263        5.780      859.134
12/10/2014  11:02:00      -21.972      -50.862      -11.580       22.021       46.150       15.171      484.914     2129.803      230.156        0.302        0.142       55.405       13.254        0.057      335.331        5.892      859.171
12/10/2014  11:03:00       36.438       59.250       49.579       51.810       34.181       36.045     2684.317     1168.356     1299.262        0.622        0.258       69.558       28.144        0.164      335.400        6.010      859.092
12/10/2014  11:04:00       33.548       24.299       43.523       50.097       31.524       27.149     2509.714      993.763      737.057        0.392        0.212       41.423       28.184        0.463      335.513        6.198      859.036
12/10/2014  11:05:00       -4.540        7.995       58.811       20.356       47.508       24.144      414.369     2257.008      582.952        0.340        0.163        9.194       25.472        7.675      335.480        6.141      859.102
12/10/2014  11:06:00       58.645      -91.345      -15.540       33.449       30.702       22.660     1118.846      942.638      513.491        0.730        0.129      108.550       15.271        0.020      335.421        6.043      859.097
12/10/2014  11:07:00       62.235      -12.418       16.875       24.981       47.026       26.321      624.069     2211.487      692.783        0.392        0.176       63.462       26.558        0.175      335.433        6.063      859.047
12/10/2014  11:08:00       66.678      -53.430       -3.932       40.215       42.231       26.363     1617.243     1783.423      694.999        0.571        0.205       85.444       30.086        0.124      335.544        6.248      859.048
12/10/2014  11:09:00       42.388      -25.502        2.113       47.279       58.156       36.477     2235.325     3382.084     1330.588        0.470        0.347       49.468       44.257        0.800      335.754        6.599      859.039
12/10/2014  11:10:00        7.910       51.579       68.596       29.488       37.448       22.529      869.570     1402.343      507.569        0.510        0.139       52.182       18.627        0.127      335.869        6.790      858.995
12/10/2014  11:11:00       61.211      -77.422        3.239       51.828       75.522       42.655     2686.144     5703.593     1819.448        0.998        0.510       98.697       56.423        0.327      335.640        6.409      858.983
12/10/2014  11:12:00       60.226      -56.433       -4.070       45.712       38.961       34.242     2089.601     1517.960     1172.512        0.580        0.239       82.534       34.222        0.172      335.623        6.381      859.009
12/10/2014  11:13:00      -47.672      -23.901        2.539       42.425       25.049       25.495     1799.876      627.444      649.981        0.296        0.154       53.328       29.129        0.298      335.753        6.597      859.031
12/10/2014  11:14:00      -14.656       -3.746       16.948       26.890       25.749       14.968      723.082      663.010      224.036        0.106        0.081       15.127       20.664        1.866      335.784        6.649      858.934
12/10/2014  11:15:00       -6.987       17.576       40.086        9.338       13.913       10.064       87.192      193.563      101.289        0.117        0.019       18.914        7.700        0.166      335.822        6.713      858.808
12/10/2014  11:16:00      -19.087       -7.531       11.965       16.364       21.787       18.772      267.783      474.681      352.383        0.083        0.055       20.519       17.206        0.703      335.829        6.723      858.783
12/10/2014  11:17:00      -62.099      -37.676       -3.238       27.121       15.637       11.523      735.524      244.503      132.785        0.320        0.056       72.635       11.095        0.023      335.736        6.569      858.761
12/10/2014  11:18:00      -59.190      -36.545        0.190       29.463       22.229       12.883      868.052      494.143      165.968        0.318        0.076       69.562       11.387        0.027      335.775        6.634      858.702
12/10/2014  11:19:00      -91.782        0.349       -8.595       38.160       26.100       17.440     1456.223      681.206      304.171        0.547        0.122       91.782       16.346        0.032      335.874        6.798      858.686
12/10/2014  11:20:00     -124.845      -20.519      -15.362       35.071       20.213       17.235     1230.006      408.548      297.034        0.909        0.097      126.520       17.112        0.018      335.941        6.912      858.713
12/10/2014  11:21:00      -87.343      -53.344       -8.750       37.018       27.880       16.635     1370.326      777.289      276.707        0.649        0.121      102.344       11.153        0.012      335.701        6.511      858.693
12/10/2014  11:22:00      -49.288      -23.258        3.502       23.245       26.651       14.414      540.339      710.269      207.765        0.222        0.073       54.500       10.660        0.038      335.845        6.753      858.663
12/10/2014  11:23:00      -64.884      -30.058       -8.687       29.763       25.733       14.391      885.833      662.201      207.096        0.347        0.088       71.508       13.855        0.038      335.845        6.751      858.671
12/10/2014  11:24:00      -31.841      -15.519       -7.000       21.364       16.920       14.830      456.416      286.295      219.935        0.113        0.048       35.421        8.379        0.056      335.884        6.816      858.670
12/10/2014  11:25:00      -18.677       38.670       -8.223       17.170       18.104       14.824      294.812      327.751      219.744        0.138        0.042       42.945        7.794        0.033      335.812        6.696      858.635
12/10/2014  11:26:00      -15.686       25.879        2.505       20.165       26.073       13.132      406.608      679.779      172.454        0.109        0.063       30.262       11.319        0.140      335.900        6.841      858.657
12/10/2014  11:27:00      -91.425      -22.023      -11.283       26.187       33.770       11.873      685.778     1140.399      140.968        0.547        0.098       94.041       11.519        0.015      335.877        6.805      858.682
12/10/2014  11:28:00     -104.357       21.975      -13.839       49.704       38.005       23.144     2470.441     1444.384      535.636        0.801        0.223      106.645       23.312        0.048      336.033        7.064      858.686
12/10/2014  11:29:00      -98.420       35.323      -18.067       33.146       23.719       21.300     1098.647      562.574      453.690        0.669        0.106      104.567       12.354        0.014      335.840        6.741      858.664
12/10/2014  11:30:00      -22.991       26.406       -9.625       33.749       27.970       19.126     1138.998      782.293      365.816        0.180        0.114       35.013       21.780        0.387      335.635        6.401      858.579
12/10/2014  11:31:00       47.141       28.944        6.621       20.048       17.882       13.380      401.913      319.751      179.021        0.200        0.045       55.317        8.067        0.021      335.694        6.498      858.534
12/10/2014  11:32:00       11.739       17.181       -7.732       17.788       12.722       16.099      316.405      161.842      259.187        0.061        0.037       20.809       10.370        0.248      335.722        6.547      858.555
12/10/2014  11:33:00      -33.482      -15.458       -3.796       34.139       27.694       10.205     1165.464      766.982      104.135        0.171        0.102       36.878       14.145        0.147      335.805        6.681      858.574
12/10/2014  11:34:00      -73.709      -38.230        0.780       33.600       24.788       19.681     1128.955      614.438      387.329        0.451        0.107       83.033       15.720        0.036      335.794        6.666      858.577
12/10/2014  11:35:00      -46.127       -7.972        1.120       36.884       35.016       20.636     1360.394     1226.134      425.861        0.260        0.151       46.811       20.984        0.201      335.747        6.586      858.502
12/10/2014  11:36:00      -31.712       -8.988        3.101       33.567       29.776       20.818     1126.725      886.583      433.376        0.177        0.122       32.962       18.279        0.308      335.836        6.734      858.410
12/10/2014  11:37:00      -24.377      -12.263       -3.287       29.121       34.017       16.841      848.021     1157.171      283.634        0.152        0.114       27.287       18.138        0.442      335.867        6.789      858.382
12/10/2014  11:38:00       -0.395      -20.646       11.532       26.229       16.450       12.495      687.961      270.594      156.124        0.084        0.056       20.649        3.047        0.022      335.845        6.751      858.372
12/10/2014  11:39:00       63.395       45.834       12.120       37.830       23.495       19.642     1431.096      552.014      385.808        0.432        0.118       78.228       18.787        0.058      335.781        6.645      858.272
12/10/2014  11:40:00      114.948       65.500        8.948       24.716       40.816       24.921      610.901     1665.967      621.038        1.024        0.145      132.300       11.408        0.007      335.749        6.589      858.194
12/10/2014  11:41:00       37.923       48.126       26.848       21.715       22.533       25.668      471.559      507.727      658.831        0.306        0.082       61.272       12.363        0.041      335.729        6.556      858.243
12/10/2014  11:42:00       59.507       42.730       13.122       35.714       28.994       22.057     1275.511      840.638      486.517        0.407        0.130       73.259       17.720        0.059      335.653        6.431      858.254
12/10/2014  11:43:00      111.644       76.041       18.813       19.659       16.157       19.542      386.467      261.043      381.895        0.981        0.051      135.080        8.141        0.004      335.611        6.361      858.271
12/10/2014  11:44:00       56.261       43.690       16.685       35.211       33.435       27.136     1239.812     1117.882      736.364        0.422        0.155       71.233       19.227        0.073      335.699        6.506      858.229
12/10/2014  11:45:00       51.079       41.876       47.513       35.324       35.462       26.401     1247.783     1257.579      697.037        0.491        0.160       66.050       17.153        0.067      335.707        6.521      858.158
12/10/2014  11:46:00       99.734       48.517        6.921       37.880       28.856       27.283     1434.912      832.647      744.357        0.768        0.151      110.908       16.259        0.021      335.685        6.485      858.072
12/10/2014  11:47:00       75.187       31.538        4.389       45.975       27.271       29.262     2113.698      743.695      856.262        0.519        0.186       81.533       16.092        0.039      335.674        6.465      858.043
12/10/2014  11:48:00       30.782       30.977       -2.513       20.705       23.821       14.509      428.686      567.423      210.500        0.156        0.060       43.671       12.365        0.080      335.651        6.427      858.037
12/10/2014  11:49:00       69.803       36.727        6.804       25.141       16.646       17.359      632.073      277.084      301.328        0.374        0.061       78.876       14.576        0.034      335.640        6.411      858.004
12/10/2014  11:50:00       62.973       37.818        2.001       19.135       20.217       13.181      366.165      408.711      173.731        0.317        0.047       73.456        6.629        0.008      335.652        6.430      857.988
12/10/2014  11:51:00       53.669       47.872        9.074       22.880       12.049        9.677      523.488      145.184       93.650        0.301        0.038       71.917        5.766        0.006      335.626        6.384      857.965
12/10/2014  11:52:00       39.888       33.743        7.012       19.149       10.556       13.372      366.690      111.438      178.807        0.172        0.033       52.246        8.003        0.023      335.664        6.452      857.908
12/10/2014  11:53:00       63.985       52.108       32.478       25.145       27.465       29.532      632.282      754.299      872.134        0.506        0.113       82.519       13.673        0.027      335.819        6.708      857.846
12/10/2014  11:54:00       70.226       47.942       47.744       35.440       35.093       33.048     1255.962     1231.516     1092.198        0.654        0.179       85.030       21.627        0.065      335.792        6.662      857.835
12/10/2014  11:55:00       54.778       73.118       86.074       35.719       45.654       31.410     1275.883     2084.255      986.594        1.005        0.217       91.361       31.883        0.122      335.774        6.632      857.747
12/10/2014  11:56:00       65.912       80.524       85.039       43.110       44.469       36.571     1858.468     1977.493     1337.417        1.162        0.259      104.059       28.554        0.075      335.752        6.597      857.662
12/10/2014  11:57:00       96.570       85.808       56.354       40.517       30.870       32.906     1641.610      952.956     1082.834        1.177        0.184      129.185       24.464        0.036      335.669        6.458      857.606
12/10/2014  11:58:00      108.862       92.433       54.858       46.235       26.669       25.832     2137.653      711.248      667.280        1.346        0.176      142.810       23.712        0.028      335.663        6.448      857.536
12/10/2014  11:59:00       77.257       78.026       54.302       56.423       33.572       33.589     3183.506     1127.048     1128.242        1.022        0.272      109.803       34.331        0.098      335.739        6.574      857.471
12/10/2014  12:00:00       24.567       51.275       62.075       28.201       35.406       23.653      795.307     1253.563      559.458        0.485        0.130       56.856       20.400        0.129      335.805        6.683      857.488
12/10/2014  12:01:00       10.318       47.733       53.798       30.025       35.117       31.813      901.510     1233.196     1012.051        0.421        0.157       48.835       27.618        0.320      335.849        6.757      857.466
12/10/2014  12:02:00       75.950       22.254       34.528       45.047       31.854       33.995     2029.216     1014.671     1155.636        0.583        0.210       79.144       16.786        0.045      335.758        6.606      857.393
12/10/2014  12:03:00      139.569       86.021       10.319       67.580       37.092       32.167     4566.994     1375.806     1034.739        1.698        0.349      163.948       18.954        0.013      335.643        6.414      857.330
12/10/2014  12:04:00      134.645       81.408        3.436       39.204       36.785       31.477     1536.990     1353.129      990.821        1.432        0.194      157.342       20.169        0.016      335.586        6.319      857.322
12/10/2014  12:05:00      136.814       88.275        8.493       47.426       29.948       31.782     2249.254      896.860     1010.111        1.537        0.208      162.820       22.457        0.019      335.581        6.312      857.316
12/10/2014  12:06:00      108.489       56.392       16.674       31.874       25.533       26.540     1015.921      651.953      704.383        0.880        0.119      122.270       14.345        0.014      335.599        6.341      857.325
12/10/2014  12:07:00       91.618       48.597       10.630       39.139       21.449       23.099     1531.824      460.078      533.568        0.670        0.126      103.709        9.525        0.008      335.572        6.294      857.334
12/10/2014  12:08:00       61.921       43.868        1.002       38.830       29.686       20.679     1507.773      881.231      427.635        0.429        0.141       75.885       20.499        0.073      335.619        6.375      857.292
12/10/2014  12:09:00       95.531       42.478        8.525       43.063       24.998       20.967     1854.400      624.898      439.624        0.696        0.146      104.549        8.846        0.007      335.617        6.370      857.218
12/10/2014  12:10:00      117.424       68.494        0.432       37.920       25.822       25.848     1437.915      666.764      668.127        1.063        0.139      135.941       19.118        0.020      335.630        6.394      857.173
12/10/2014  12:11:00      109.361       69.681       37.993       49.122       26.802       31.876     2412.949      718.365     1016.101        1.120        0.207      129.674       25.447        0.039      335.615        6.369      857.122
12/10/2014  12:12:00      106.841       58.518       42.828       71.708       41.738       47.495     5142.070     1742.045     2255.811        1.290        0.457      121.817       40.415        0.110      335.718        6.537      857.000
12/10/2014  12:13:00      117.593       88.549       26.626       72.394       57.636       47.657     5240.834     3321.906     2271.212        1.660        0.542      147.204       40.524        0.076      335.664        6.448      856.892
12/10/2014  12:14:00      128.545       73.265       29.263       62.025       48.009       34.266     3847.121     2304.881     1174.161        1.504        0.366      147.958       21.826        0.022      335.576        6.301      856.930
12/10/2014  12:15:00       88.756       54.773        7.125       30.965       20.078       20.561      958.830      403.142      422.757        0.636        0.089      104.296        6.423        0.004      335.498        6.172      857.001
12/10/2014  12:16:00       46.958       47.471        9.775       22.527       18.797       19.074      507.450      353.340      363.804        0.289        0.061       66.772       13.530        0.041      335.582        6.312      857.018
12/10/2014  12:17:00       53.165       47.480       15.259       32.757       25.532       28.020     1073.002      651.876      785.120        0.391        0.125       71.280       14.545        0.042      335.682        6.479      856.943
12/10/2014  12:18:00       66.052       53.638       12.667       47.731       37.838       30.080     2278.260     1431.724      904.781        0.601        0.231       85.088       24.711        0.084      335.626        6.385      856.900
12/10/2014  12:19:00       97.308       87.973       -7.274       58.339       41.756       36.991     3403.407     1743.585     1368.361        1.189        0.326      131.179       25.363        0.037      335.487        6.154      856.865
12/10/2014  12:20:00       47.460       94.125       -9.440       44.007       37.734       25.060     1936.651     1423.880      627.998        0.759        0.199      105.414       17.859        0.029      335.485        6.150      856.839
12/10/2014  12:21:00       53.023       84.818       -7.750       30.338       44.043       28.588      920.415     1939.808      817.262        0.687        0.184      100.028       27.406        0.075      335.457        6.103      856.854
12/10/2014  12:22:00       56.135       41.140        1.866       44.549       28.158       17.091     1984.646      792.872      292.111        0.396        0.153       69.596       16.932        0.059      335.481        6.144      856.876
12/10/2014  12:23:00       12.479       79.028      -14.604       19.462       36.331       15.459      378.767     1319.973      238.990        0.428        0.097       80.007       20.745        0.067      335.501        6.176      856.825
12/10/2014  12:24:00       48.032       32.471        1.792       42.225       25.434       19.810     1782.950      646.880      392.425        0.309        0.141       57.978       13.633        0.055      335.569        6.289      856.853
12/10/2014  12:25:00       58.907       41.948       16.868       23.522       21.878       20.637      553.277      478.660      425.867        0.349        0.073       72.317       11.719        0.026      335.627        6.387      856.860
12/10/2014  12:26:00       48.912       16.643        4.859       28.440       12.794       22.305      808.835      163.698      497.498        0.208        0.074       51.666       15.024        0.085      335.632        6.397      856.851
12/10/2014  12:27:00       53.434       41.261       26.199       33.591       20.168       23.141     1128.369      406.751      535.487        0.366        0.104       67.510       16.369        0.059      335.642        6.413      856.795
12/10/2014  12:28:00       22.956       26.188       28.442       33.296       22.583       24.788     1108.624      510.014      614.446        0.213        0.112       34.826       26.204        0.566      335.731        6.561      856.766
12/10/2014  12:29:00       -5.619       34.847       53.018       15.602       21.362       15.313      243.410      456.324      234.496        0.250        0.047       35.297       10.920        0.096      335.808        6.689      856.810
12/10/2014  12:30:00        7.592       11.926       19.237       13.205       18.338       16.519      174.371      336.281      272.885        0.068        0.039       14.138       14.191        1.008      335.781        6.644      856.808
12/10/2014  12:31:00      -28.233      -10.396        3.819       27.618       12.036       14.905      762.727      144.867      222.144        0.102        0.056       30.086       10.312        0.117      335.899        6.840      856.807
12/10/2014  12:32:00      -42.930       10.562        2.801       45.547       29.326       17.881     2074.495      860.013      319.738        0.261        0.163       44.210       19.752        0.200      336.080        7.141      856.827
12/10/2014  12:33:00       14.285      -30.586        3.331       17.332       24.176       13.927      300.390      584.477      193.962        0.111        0.054       33.758        5.641        0.028      335.951        6.925      856.827
12/10/2014  12:34:00       -0.631       17.644       21.710       16.943       28.069       22.473      287.056      787.888      505.022        0.118        0.079       17.656        8.154        0.213      335.984        6.981      856.718
12/10/2014  12:35:00       23.130       33.126       -0.895       18.899       31.508       17.535      357.168      992.741      307.460        0.164        0.083       40.402       18.349        0.206      335.881        6.809      856.588
12/10/2014  12:36:00       28.242       44.536      -10.756       16.547       16.704       12.671      273.820      279.022      160.546        0.180        0.036       52.736        7.493        0.020      335.871        6.794      856.599
12/10/2014  12:37:00       11.108       28.129       -6.874        7.331        8.503        7.902       53.736       72.309       62.443        0.058        0.009       30.243        5.756        0.036      335.892        6.827      856.555
12/10/2014  12:38:00       19.956       35.058        5.174       10.545        8.687       12.296      111.199       75.465      151.182        0.100        0.017       40.340        6.092        0.023      335.920        6.875      856.437
12/10/2014  12:39:00       57.632       47.495        2.274       34.082       14.889       14.459     1161.579      221.673      209.070        0.359        0.080       74.681       10.313        0.019      335.955        6.932      856.315
12/10/2014  12:40:00      115.260       57.280       13.321       34.121       21.002       25.809     1164.229      441.079      666.113        0.951        0.114      128.708       16.481        0.016      336.016        7.034      856.284
12/10/2014  12:41:00       42.728        8.165        4.556       31.401       23.034       20.877      986.000      530.580      435.856        0.193        0.098       43.502       20.288        0.217      336.012        7.028      856.320
12/10/2014  12:42:00        4.885        0.609       12.959        8.374        9.188       12.029       70.116       84.427      144.687        0.025        0.015        4.923        7.625        2.399      336.258        7.438      856.347
12/10/2014  12:43:00       13.419        6.801       10.259       12.641        6.762       13.938      159.803       45.730      194.279        0.037        0.020       15.044        6.981        0.215      336.221        7.376      856.337
12/10/2014  12:44:00       47.612       25.704       17.173       23.978       13.352       19.187      574.925      178.285      368.149        0.217        0.056       54.107        9.991        0.034      336.124        7.215      856.367
12/10/2014  12:45:00       21.355       20.772       26.937       17.975       14.347       12.959      323.110      205.833      167.948        0.115        0.035       29.791        4.858        0.027      336.320        7.542      856.410
12/10/2014  12:46:00       24.465        7.369        1.804       15.309       11.915       12.728      234.351      141.979      162.004        0.060        0.027       25.550        9.919        0.151      336.318        7.538      856.439
12/10/2014  12:47:00       33.773       35.922       -1.694       22.555       22.758       22.193      508.711      517.914      492.519        0.198        0.076       49.306       13.414        0.074      336.398        7.672      856.444
12/10/2014  12:48:00       14.237       27.571        9.373       30.897       27.367       23.211      954.654      748.927      538.766        0.165        0.112       31.030       17.367        0.313      336.604        8.017      856.422
12/10/2014  12:49:00       57.259       25.400       10.868       36.317       19.261       21.712     1318.900      370.989      471.421        0.310        0.108       62.639       12.774        0.042      336.401        7.678      856.408
12/10/2014  12:50:00       64.268       39.642       22.442       42.255       33.295       24.267     1785.499     1108.560      588.898        0.484        0.174       75.511       17.188        0.052      336.492        7.831      856.334
12/10/2014  12:51:00      115.009       65.604       20.113       42.965       33.503       30.370     1845.957     1122.447      922.309        1.091        0.195      132.404       27.814        0.044      336.374        7.633      856.260
12/10/2014  12:52:00       98.884       30.172        2.023       67.275       39.535       31.698     4525.919     1563.007     1004.755        0.889        0.355      103.385       17.372        0.028      336.409        7.690      856.278
12/10/2014  12:53:00      -13.300       -0.240        4.157       22.712        9.293        9.569      515.830       86.364       91.562        0.044        0.035       13.302       11.549        0.754      336.701        8.179      856.350
12/10/2014  12:54:00      -11.675      -52.659       -4.209       26.228       21.117       15.745      687.903      445.932      247.903        0.215        0.069       53.938        9.156        0.029      336.620        8.045      856.373
12/10/2014  12:55:00        3.104        0.201       15.012       20.710       19.529       12.804      428.897      381.369      163.948        0.060        0.049        3.110        5.201        2.796      336.842        8.415      856.347
12/10/2014  12:56:00        6.250       18.928       -5.131       13.496       12.799        5.587      182.130      163.809       31.209        0.040        0.019       19.933        2.900        0.021      336.686        8.153      856.350
12/10/2014  12:57:00       10.143        9.211       15.215       14.906       21.022       16.429      222.195      441.904      269.928        0.068        0.047       13.701       12.269        0.802      336.853        8.434      856.351
12/10/2014  12:58:00       37.992       29.859       31.920       26.781       27.733       15.310      717.220      769.143      234.409        0.254        0.086       48.322        3.905        0.007      336.835        8.402      856.319
12/10/2014  12:59:00       38.917       74.310       61.741       37.800       28.671       28.098     1428.864      822.040      789.500        0.694        0.152       83.884       17.619        0.044      336.836        8.406      856.251
12/10/2014  13:00:00       24.459       63.148       40.223       40.454       40.450       35.879     1636.496     1636.217     1287.327        0.538        0.228       67.720       28.934        0.183      336.935        8.568      856.239
12/10/2014  13:01:00       50.911       63.570       26.827       48.818       32.113       41.187     2383.194     1031.217     1696.369        0.623        0.256       81.444       33.722        0.171      336.874        8.468      856.173
12/10/2014  13:02:00       68.597       51.324       17.593       55.682       40.406       31.264     3100.456     1632.612      977.443        0.668        0.286       85.672       30.949        0.130      336.895        8.503      856.176
12/10/2014  13:03:00       40.688       38.462        8.547       33.741       29.203       22.081     1138.473      852.793      487.578        0.284        0.124       55.990       18.283        0.107      336.843        8.417      856.210
12/10/2014  13:04:00       29.171       31.815       22.766       25.890       24.709       25.736      670.269      610.552      662.357        0.216        0.097       43.164       18.634        0.186      336.787        8.323      856.204
12/10/2014  13:05:00       21.436       55.114       -9.590       32.577       57.997       22.516     1061.245     3363.695      506.956        0.426        0.247       59.136       25.111        0.180      336.783        8.317      856.161
12/10/2014  13:06:00        1.645      -43.461       13.765       19.034       26.168       16.691      362.304      684.748      278.585        0.170        0.066       43.492        7.060        0.026      336.936        8.572      856.246
12/10/2014  13:07:00       19.922       28.459       58.505       43.130       52.817       21.763     1860.198     2789.612      473.626        0.488        0.256       34.739       25.953        0.558      337.071        8.798      856.314
12/10/2014  13:08:00      112.178       84.294        9.390       20.579       34.185       32.963      423.497     1168.644     1086.574        1.123        0.134      140.319       13.454        0.009      336.779        8.310      856.249
12/10/2014  13:09:00       15.917       25.117       -2.789       29.091       34.810       20.761      846.304     1211.709      431.020        0.169        0.124       29.736       16.500        0.308      336.867        8.457      856.210
12/10/2014  13:10:00       12.091       82.415      -18.113       11.063       16.204        8.284      122.386      262.583       68.620        0.386        0.023       83.298        6.079        0.005      336.825        8.388      856.232
12/10/2014  13:11:00      -26.265       65.992       -2.167       27.289       45.618       15.910      744.700     2081.041      253.127        0.406        0.154       71.026       20.005        0.079      337.132        8.899      856.230
12/10/2014  13:12:00      -36.967       14.705       -0.439       28.287       22.544       17.156      800.163      508.218      294.339        0.159        0.080       39.784       10.023        0.063      337.471        9.467      856.288
12/10/2014  13:13:00      -75.966      -29.427       -9.427       18.371       13.751       15.564      337.504      189.090      242.234        0.375        0.038       81.467        9.642        0.014      337.110        8.863      856.384
12/10/2014  13:14:00      -90.400      -52.085       -6.350       53.475       44.438       23.983     2859.562     1974.753      575.191        0.817        0.270      104.331       17.570        0.028      337.128        8.891      856.361
12/10/2014  13:15:00      -93.879       -1.971        0.519       37.675       31.659       14.501     1419.399     1002.317      210.286        0.572        0.132       93.899       12.761        0.018      337.165        8.956      856.280
12/10/2014  13:16:00      -84.830       27.147       -4.944       29.957       37.329       18.590      897.395     1393.456      345.594        0.530        0.132       89.068       20.877        0.055      337.261        9.116      856.237
12/10/2014  13:17:00      -36.280      -24.057        6.215       20.318       19.538       11.774      412.834      381.751      138.624        0.143        0.047       43.531       11.725        0.073      337.366        9.293      856.266
12/10/2014  13:18:00      -60.714      -45.846       -2.343       36.404       31.198       20.592     1325.269      973.307      424.013        0.426        0.136       76.079       18.825        0.061      337.263        9.121      856.263
12/10/2014  13:19:00      -85.247      -52.894       -4.899       53.556       25.848       24.073     2868.232      668.130      579.508        0.710        0.206      100.324       16.913        0.028      337.256        9.109      856.252
12/10/2014  13:20:00      -91.953      -47.494       -2.977       29.948       27.106       18.311      896.904      734.743      335.300        0.634        0.098      103.494       18.828        0.033      337.229        9.063      856.265
12/10/2014  13:21:00      -43.520       -1.610       -4.317       32.965       30.671       18.236     1086.663      940.684      332.557        0.214        0.118       43.550       18.701        0.184      337.383        9.320      856.260
12/10/2014  13:22:00      -29.344       21.599       -9.226       23.186       23.564       14.003      537.581      555.281      196.089        0.135        0.064       36.436       12.169        0.112      337.517        9.543      856.224
12/10/2014  13:23:00       17.669        3.282       -7.336       11.996       12.529        7.514      143.894      156.982       56.461        0.037        0.018       17.971        5.198        0.084      337.563        9.620      856.205
12/10/2014  13:24:00       33.629       21.167        8.112       13.136       12.706       15.632      172.563      161.438      244.364        0.111        0.029       39.736        8.748        0.048      337.534        9.573      856.219
12/10/2014  13:25:00       55.523       28.509       25.469       25.043       20.176       23.981      627.156      407.087      575.077        0.308        0.080       62.414       14.327        0.053      337.573        9.638      856.251
12/10/2014  13:26:00      101.452       37.157       12.574       45.545       29.539       30.258     2074.339      872.553      915.517        0.785        0.193      108.042       17.243        0.025      337.654        9.774      856.180
12/10/2014  13:27:00       98.816       56.645        9.256       31.340       34.902       32.494      982.211     1218.179     1055.854        0.816        0.163      113.900       23.565        0.043      337.683        9.824      856.135
12/10/2014  13:28:00       35.072       50.630       39.080       47.505       26.762       33.868     2256.685      716.215     1147.049        0.472        0.206       61.591       33.544        0.297      337.867       10.131      856.183
12/10/2014  13:29:00       76.004       54.068       12.219       35.833       27.055       30.993     1284.006      731.977      960.539        0.591        0.149       93.273       21.443        0.053      337.774        9.976      856.181
12/10/2014  13:30:00      133.261       71.380       27.088       50.144       36.435       38.445     2514.444     1327.545     1478.051        1.445        0.266      151.174       26.448        0.031      337.692        9.838      856.171
12/10/2014  13:31:00       88.144       54.885       37.000       72.687       46.570       48.482     5283.438     2168.733     2350.467        1.097        0.490      103.835       45.130        0.189      337.722        9.888      856.151
12/10/2014  13:32:00      103.288       45.369       43.185       68.693       55.080       45.843     4718.701     3033.759     2101.618        1.222        0.493      112.813       38.638        0.117      337.692        9.838      856.182
12/10/2014  13:33:00       98.289       67.357       44.075       41.524       39.363       40.686     1724.225     1549.464     1655.340        1.053        0.246      119.154       26.014        0.048      337.710        9.868      856.208
12/10/2014  13:34:00       33.608       80.987       98.781       47.956       42.236       33.949     2299.813     1783.891     1152.559        1.134        0.262       87.683       29.741        0.115      337.823       10.058      856.165
12/10/2014  13:35:00       45.945       52.322       74.580       50.701       46.936       38.665     2570.546     2203.009     1494.987        0.834        0.313       69.631       29.947        0.185      337.815       10.044      856.153
12/10/2014  13:36:00       72.654       52.676       41.675       50.568       49.140       38.772     2557.147     2414.761     1503.255        0.813        0.324       89.741       30.248        0.114      337.851       10.105      856.108
12/10/2014  13:37:00       41.190       11.910       16.025       32.986       24.596       23.700     1088.057      604.973      561.688        0.217        0.113       42.878       17.237        0.162      337.973       10.309      856.049
12/10/2014  13:38:00       39.909       21.772      -10.629       47.943       38.665       26.357     2298.570     1494.965      694.710        0.333        0.224       45.462       15.488        0.116      338.013       10.375      856.081
12/10/2014  13:39:00       14.616      -14.214        7.112       24.791       29.271       11.237      614.613      856.785      126.279        0.103        0.080       20.388        5.311        0.068      338.123       10.560      856.159
12/10/2014  13:40:00       93.075       61.750       39.793       78.193       73.319       45.420     6114.148     5375.727     2062.965        1.380        0.678      111.696       44.690        0.160      338.164       10.629      856.116
12/10/2014  13:41:00       64.147       99.600       92.162       63.482       41.769       45.508     4030.002     1744.686     2070.981        1.519        0.392      118.469       38.883        0.108      338.253       10.779      855.995
12/10/2014  13:42:00      183.496       98.087       51.737       80.649       53.715       56.601     6504.247     2885.305     3203.701        2.928        0.630      208.067       45.171        0.047      338.215       10.712      855.875
12/10/2014  13:43:00      122.045       47.156       53.607       92.281       60.370       52.776     8515.745     3644.485     2785.267        1.747        0.747      130.839       46.865        0.128      338.279       10.821      855.838
12/10/2014  13:44:00        8.018       60.500       94.260       41.860       58.641       48.606     1752.299     3438.716     2362.578        1.008        0.378       61.029       46.667        0.585      338.403       11.032      855.930
12/10/2014  13:45:00       95.834       50.052       29.496       43.095       45.749       30.164     1857.217     2092.939      909.854        0.871        0.243      108.117       14.093        0.017      338.279       10.822      855.934
12/10/2014  13:46:00       57.960       64.084       21.686       20.040       26.007       26.348      401.621      676.350      694.192        0.485        0.089       86.407       18.777        0.047      338.337       10.919      855.846
12/10/2014  13:47:00      161.003       84.094       33.196       53.747       42.955       38.920     2888.727     1845.128     1514.751        2.017        0.312      181.642       27.737        0.023      338.477       11.153      855.844
12/10/2014  13:48:00       75.519       47.954       53.347       70.305       59.915       48.816     4942.753     3589.839     2382.966        1.088        0.546       89.458       49.452        0.306      338.614       11.384      855.893
12/10/2014  13:49:00       11.748       39.595       79.934       42.474      102.422       66.925     1804.064    10490.333     4478.973        1.243        0.839       41.301       71.756        3.018      338.661       11.464      855.969
12/10/2014  13:50:00       76.157     -117.422       -7.518       59.590       67.841       44.939     3550.997     4602.429     2019.492        1.491        0.509      139.957       44.251        0.100      338.515       11.218      855.968
12/10/2014  13:51:00       59.674       34.151       44.093       43.013       45.392       32.906     1850.094     2060.415     1082.820        0.583        0.250       68.755       22.348        0.106      338.512       11.215      855.922
12/10/2014  13:52:00       32.074       -3.293       11.455       26.694       36.839       31.081      712.548     1357.077      966.040        0.210        0.152       32.243       31.015        0.925      338.529       11.241      855.847
12/10/2014  13:53:00       34.854       51.207       62.076       39.296       37.024       20.336     1544.147     1370.798      413.572        0.551        0.166       61.943       13.055        0.044      338.571       11.314      855.808
12/10/2014  13:54:00       99.140     -110.129        6.895       75.244       76.824       46.524     5661.609     5901.943     2164.488        1.786        0.686      148.179       47.960        0.105      338.644       11.434      855.841
12/10/2014  13:55:00       52.671        7.042       43.316       54.059       77.138       63.607     2922.420     5950.269     4045.866        0.881        0.646       53.140       55.491        1.090      338.720       11.563      855.908
12/10/2014  13:56:00       58.121      -78.622       13.961       51.416       65.145       46.107     2643.634     4243.823     2125.881        0.938        0.451       97.772       44.621        0.208      338.699       11.528      855.920
12/10/2014  13:57:00       84.284     -115.932       -7.012       40.267       55.498       33.930     1621.397     3079.983     1151.244        1.322        0.293      143.332       26.736        0.035      338.491       11.178      855.932
12/10/2014  13:58:00       97.033     -130.574       -7.290       56.338       55.842       32.834     3174.005     3118.370     1078.059        1.694        0.369      162.680       33.330        0.042      338.527       11.238      855.956
12/10/2014  13:59:00      100.758     -124.648      -26.549       37.309       41.107       26.717     1391.945     1689.754      713.804        1.509        0.190      160.279       21.058        0.017      338.486       11.169      855.929
12/10/2014  14:00:00       67.463      -59.296        5.836       57.571       41.325       43.522     3314.380     1707.755     1894.194        0.751        0.346       89.818       33.916        0.143      338.568       11.309      855.900
12/10/2014  14:01:00       34.262       -6.747       49.372       49.793       63.870       48.682     2479.325     4079.406     2369.890        0.629        0.446       34.920       42.812        1.503      338.734       11.587      855.909
12/10/2014  14:02:00       32.998       -9.366       62.262       45.314       68.013       40.934     2053.322     4625.748     1675.599        0.670        0.418       34.301       36.777        1.150      338.806       11.706      855.936
12/10/2014  14:03:00       22.984       44.990       59.117       44.525       39.518       37.436     1982.477     1561.694     1401.457        0.550        0.247       50.521       29.760        0.347      338.803       11.703      855.949
12/10/2014  14:04:00       26.340      -25.841       16.797       33.114       39.543       21.823     1096.518     1563.645      476.261        0.239        0.157       36.899       22.378        0.368      338.764       11.637      855.912
12/10/2014  14:05:00       66.326       23.915       18.031       23.099       21.649       25.592      533.564      468.690      654.939        0.348        0.083       70.506       16.683        0.056      338.621       11.395      855.875
12/10/2014  14:06:00       94.842       34.821       23.822       40.099       30.698       28.825     1607.933      942.345      830.885        0.708        0.169      101.033       21.181        0.044      338.587       11.340      855.867
12/10/2014  14:07:00       65.741       39.731       -1.988       15.973       18.560       18.639      255.125      344.461      347.430        0.343        0.047       76.814       13.199        0.030      338.522       11.230      855.927
12/10/2014  14:08:00        4.493       14.494       11.431       20.989       16.288       16.479      440.548      265.313      271.546        0.067        0.049       15.174       16.184        1.138      338.669       11.478      856.013
12/10/2014  14:09:00      -16.113       37.513       -8.510       22.439       25.287       13.771      503.510      639.427      189.644        0.154        0.067       40.827       14.003        0.118      338.675       11.488      856.045
12/10/2014  14:10:00      -18.449       41.863       10.373       16.559       23.332       15.474      274.192      544.403      239.432        0.163        0.053       45.748       15.075        0.109      338.835       11.756      856.035
12/10/2014  14:11:00       17.781        4.934       16.649       13.269       10.397       16.135      176.077      108.099      260.332        0.058        0.027       18.453        7.223        0.153      338.858       11.795      855.999
12/10/2014  14:12:00        9.256       18.525       12.235       11.248        9.987       17.539      126.523       99.748      307.628        0.056        0.027       20.709       10.305        0.248      338.763       11.634      855.985
12/10/2014  14:13:00       22.741        2.137       24.256       22.394       30.349       21.313      501.476      921.068      454.242        0.149        0.094       22.841       20.082        0.773      338.784       11.670      855.998
12/10/2014  14:14:00        8.428       41.562       50.204       22.951       29.290       22.524      526.737      857.897      507.351        0.311        0.095       42.408       17.752        0.175      338.791       11.682      855.974
12/10/2014  14:15:00       16.021      -31.473        5.012       24.023       27.756       23.796      577.084      770.391      566.240        0.159        0.096       35.316       19.826        0.315      338.783       11.669      855.952
12/10/2014  14:16:00      -28.374      -18.974       -6.632       13.392       18.681       10.039      179.341      348.962      100.788        0.092        0.031       34.133        8.554        0.063      338.743       11.601      855.963
12/10/2014  14:17:00      -58.901      -30.556       -2.353       29.181       18.658       13.362      851.533      348.136      178.555        0.289        0.069       66.355        6.615        0.010      338.710       11.547      855.946
12/10/2014  14:18:00       17.214       24.823       12.415       32.246       24.216       18.109     1039.787      586.391      327.927        0.151        0.098       30.207       15.423        0.261      338.709       11.542      855.885
12/10/2014  14:19:00       24.748       57.968       64.430       28.356       35.383       27.910      804.070     1251.930      778.950        0.548        0.142       63.030       23.805        0.143      338.702       11.532      855.807
12/10/2014  14:20:00       19.032       58.422       66.618       25.697       33.794       21.740      660.358     1142.005      472.639        0.524        0.114       61.444       20.791        0.114      338.687       11.507      855.788
12/10/2014  14:21:00       37.717       74.467       68.679       35.188       25.122       32.046     1238.183      631.122     1026.951        0.729        0.145       83.474       26.375        0.100      338.602       11.363      855.784
12/10/2014  14:22:00       37.504       -0.766       46.435       43.685       69.895       51.865     1908.347     4885.296     2690.025        0.652        0.474       37.512       51.646        1.896      338.775       11.655      855.764
12/10/2014  14:23:00        3.278       44.422       38.929       25.844       29.340       39.530      667.894      860.846     1562.608        0.329        0.155       44.543       28.430        0.407      338.781       11.665      855.675
12/10/2014  14:24:00       -6.942       47.108      -13.363       18.634       22.270       10.869      347.227      495.960      118.127        0.170        0.048       47.617        9.305        0.038      338.670       11.480      855.642
12/10/2014  14:25:00        1.900       35.700       10.663       24.994       25.682       23.600      624.696      659.563      556.956        0.162        0.092       35.750       19.184        0.288      338.779       11.662      855.698
12/10/2014  14:26:00       35.547       25.646       11.571       13.408        9.736       20.978      179.769       94.785      440.095        0.138        0.036       43.833        6.342        0.021      338.675       11.487      855.756
12/10/2014  14:27:00       13.466        3.949        5.939       13.214       13.856       15.581      174.620      191.989      242.770        0.042        0.030       14.033        7.382        0.277      338.672       11.483      855.785
12/10/2014  14:28:00        7.923       16.486       50.058       26.229       28.889       19.055      687.958      834.602      363.106        0.236        0.094       18.291       15.268        0.697      338.731       11.581      855.745
12/10/2014  14:29:00       61.334      -63.667       -3.466       42.339       47.209       29.982     1792.565     2228.648      898.918        0.637        0.246       88.404       15.719        0.032      338.675       11.488      855.718
12/10/2014  14:30:00       49.406      -65.866       -9.667       21.195       36.589       14.711      449.224     1338.752      216.419        0.444        0.100       82.336       11.651        0.020      338.637       11.424      855.671
12/10/2014  14:31:00       31.689        9.249        3.948        9.074       17.327       18.168       82.344      300.224      330.084        0.091        0.036       33.011       10.833        0.108      338.621       11.395      855.587
12/10/2014  14:32:00       66.106       38.351       -0.083       21.936       19.086       19.128      481.174      364.281      365.892        0.353        0.061       76.425        8.277        0.012      338.575       11.319      855.568
12/10/2014  14:33:00       45.404       63.668       51.655       39.358       35.205       33.227     1549.076     1239.371     1104.057        0.634        0.195       78.199       29.252        0.140      338.602       11.364      855.553
12/10/2014  14:34:00       21.594       30.305       23.539       32.678       24.392       16.008     1067.849      594.957      256.258        0.193        0.096       37.211       15.523        0.174      338.667       11.473      855.552
12/10/2014  14:35:00      -13.148      -20.164       10.920       15.655       12.828       12.052      245.064      164.555      145.251        0.063        0.028       24.071        8.928        0.138      338.695       11.520      855.565
12/10/2014  14:36:00      -18.882      -32.307       18.120       23.516       27.713       28.435      552.986      768.014      808.541        0.193        0.106       37.420        1.857        0.002      338.718       11.561      855.568
12/10/2014  14:37:00        4.911       32.194       13.476       20.584       24.164       15.399      423.681      583.897      237.140        0.124        0.062       32.566       15.997        0.241      338.762       11.634      855.562
12/10/2014  14:38:00     -108.743      -16.232       -9.744       47.492       20.303       17.489     2255.451      412.212      305.856        0.758        0.149      109.948       23.002        0.044      338.964       11.975      855.564
12/10/2014  14:39:00      -98.974      -31.736       -8.400       28.883       14.160       13.096      834.254      200.507      171.497        0.604        0.060      103.938       12.399        0.014      338.741       11.597      855.578
12/10/2014  14:40:00      -27.341      -13.711        2.313       18.492       14.335       11.830      341.957      205.490      139.944        0.081        0.034       30.587       12.487        0.167      338.849       11.779      855.540
12/10/2014  14:41:00       -9.949       -0.563        5.610       14.020       35.220        9.305      196.551     1240.419       86.589        0.083        0.076        9.965       14.582        2.141      338.897       11.861      855.510
12/10/2014  14:42:00      -87.195      -18.558       -6.211       48.289       32.759       21.492     2331.852     1073.159      461.898        0.593        0.193       89.148       28.439        0.102      339.088       12.183      855.499
12/10/2014  14:43:00     -127.647      -36.319       -5.506       31.001       27.293       19.888      961.036      744.929      395.551        0.987        0.105      132.713       15.840        0.014      339.003       12.040      855.484
12/10/2014  14:44:00      -92.485       14.473       -4.391       57.855       37.248       27.811     3347.227     1387.427      773.479        0.714        0.275       93.610       25.794        0.076      338.894       11.855      855.421
12/10/2014  14:45:00     -109.315       33.383      -13.800       35.975       47.515       28.369     1294.170     2257.677      804.777        0.880        0.218      114.299       23.428        0.042      338.991       12.020      855.353
12/10/2014  14:46:00      -77.391      -45.832       -7.093       37.713       28.397       22.446     1422.280      806.381      503.836        0.544        0.137       89.944       22.040        0.060      338.839       11.764      855.397
12/10/2014  14:47:00      -54.622      -11.748       -9.078       34.263       14.802       14.381     1173.986      219.092      206.804        0.240        0.080       55.871       16.091        0.083      338.833       11.752      855.461
12/10/2014  14:48:00      -38.975      -21.152       -5.166       13.128        6.595        8.560      172.331       43.492       73.277        0.114        0.014       44.344        8.018        0.033      338.859       11.796      855.472
12/10/2014  14:49:00      -79.732      -17.102      -15.013       39.180       14.590       11.953     1535.056      212.877      142.876        0.438        0.095       81.545       14.955        0.034      338.882       11.836      855.438
12/10/2014  14:50:00     -110.810      -40.798      -13.673       45.986       25.878       16.896     2114.696      669.685      285.463        0.860        0.153      118.082       18.180        0.024      338.896       11.859      855.422
12/10/2014  14:51:00     -129.859      -59.569      -12.948       47.846       23.109       17.280     2289.287      534.013      298.615        1.185        0.156      142.870       15.002        0.011      338.823       11.736      855.434
12/10/2014  14:52:00     -107.511      -31.809       -8.147       36.999       25.000       18.966     1368.953      625.009      359.702        0.749        0.118      112.118       20.465        0.033      338.962       11.971      855.390
12/10/2014  14:53:00      -36.628      -40.667       -6.233       24.268       11.767       14.267      588.947      138.474      203.550        0.198        0.047       54.730       12.634        0.053      338.925       11.909      855.353
12/10/2014  14:54:00       -7.153       14.830        5.425       10.501       17.533       13.451      110.265      307.407      180.939        0.045        0.030       16.465       10.335        0.394      339.010       12.049      855.343
12/10/2014  14:55:00       23.165        5.735        6.691       12.394       13.189       12.432      153.608      173.940      154.554        0.055        0.024       23.864       10.183        0.182      338.965       11.974      855.366
12/10/2014  14:56:00        5.367      -26.372       -4.826       17.050       15.145        8.643      290.692      229.366       74.703        0.067        0.030       26.912        5.071        0.036      338.975       11.991      855.379
12/10/2014  14:57:00      -60.915       -7.459       -3.003       18.482       20.092       19.684      341.591      403.679      387.465        0.245        0.057       61.370       12.420        0.041      339.113       12.224      855.339
12/10/2014  14:58:00      -94.987      -16.297       -0.698       50.151       38.500       24.414     2515.138     1482.282      596.035        0.694        0.230       96.375       27.081        0.079      339.211       12.390      855.293
12/10/2014  14:59:00     -151.966      -25.742       -9.566       30.675       29.152       19.860      940.983      849.830      394.422        1.302        0.109      154.131       10.884        0.005      339.019       12.065      855.254
12/10/2014  15:00:00      -66.572       -6.088       -5.570       38.545       42.432       19.902     1485.740     1800.467      396.087        0.409        0.184       66.849       19.332        0.084      339.158       12.300      855.204
12/10/2014  15:01:00      -67.140      -18.009       -1.378       39.952       21.886       19.614     1596.128      478.988      384.693        0.365        0.123       69.513       22.947        0.109      339.106       12.211      855.229
12/10/2014  15:02:00      -54.119       -1.145       -3.388       32.869       30.308       18.034     1080.390      918.557      325.215        0.263        0.116       54.131       17.477        0.104      339.023       12.072      855.178
12/10/2014  15:03:00      -19.807       34.285       -6.828       29.835       15.160       15.462      890.108      229.835      239.085        0.149        0.068       39.595       11.439        0.083      339.105       12.210      855.081
12/10/2014  15:04:00      -56.547       12.273       -0.131       43.097       46.290       20.778     1857.338     2142.740      431.708        0.389        0.222       57.864       15.581        0.073      339.402       12.710      855.077
12/10/2014  15:05:00      -14.204      -75.387       -8.690       22.041       31.983       19.639      485.821     1022.935      385.693        0.393        0.095       76.714       16.191        0.045      339.099       12.200      855.150
12/10/2014  15:06:00       -0.949        6.933       21.751       26.300       33.715       21.343      691.681     1136.689      455.517        0.140        0.114        6.998       22.909       10.717      339.069       12.151      855.153
12/10/2014  15:07:00       43.451       36.838       11.083       13.828       15.876       16.916      191.206      252.035      286.140        0.205        0.036       56.965       12.231        0.046      339.052       12.120      855.071
12/10/2014  15:08:00        3.197        3.475        2.073       15.480        7.260        8.004      239.627       52.706       64.058        0.019        0.018        4.722        2.675        0.321      339.053       12.123      855.058
12/10/2014  15:09:00       -4.095        0.708       -2.498        8.259       10.080        5.712       68.212      101.609       32.623        0.011        0.010        4.156        4.142        0.994      339.299       12.538      855.011
12/10/2014  15:10:00       -2.801      -25.313        0.458       24.553       13.976       14.683      602.844      195.337      215.586        0.083        0.051       25.468        9.919        0.152      339.134       12.259      855.013
12/10/2014  15:11:00     -114.046      -20.714      -19.752       33.428       27.441       16.123     1117.433      752.987      259.954        0.798        0.107      115.912       18.275        0.025      339.373       12.661      854.971
12/10/2014  15:12:00     -133.419        5.931      -12.243       56.279       45.393       29.596     3167.288     2060.518      875.936        1.204        0.305      133.551       26.328        0.039      339.719       13.247      854.875
12/10/2014  15:13:00      -86.658      -39.051       -1.495       49.385       41.910       28.249     2438.837     1756.435      797.989        0.701        0.250       95.051       25.404        0.071      339.083       12.173      854.947
12/10/2014  15:14:00     -156.270      -54.090       -4.237       51.857       43.592       25.900     2689.188     1900.291      670.811        1.631        0.263      165.366       20.800        0.016      339.070       12.151      855.004
12/10/2014  15:15:00     -136.674      -35.718       -5.330       52.723       43.072       23.061     2779.699     1855.193      531.800        1.257        0.258      141.264       23.777        0.028      339.168       12.316      854.996
12/10/2014  15:16:00      -53.505      -26.376        7.458       52.802       31.994       21.328     2788.085     1023.599      454.897        0.394        0.213       59.653       24.958        0.175      339.187       12.348      854.982
12/10/2014  15:17:00      -46.199      -35.467       -0.531       62.793       30.161       25.057     3943.014      909.707      627.835        0.444        0.274       58.243       29.213        0.252      339.235       12.430      854.964
12/10/2014  15:18:00     -148.490      -49.925       -3.108       42.675       39.219       20.292     1821.172     1538.125      411.776        1.416        0.189      156.658       19.014        0.015      339.142       12.273      855.001
12/10/2014  15:19:00      -51.871       -6.068        3.859       40.551       44.056       24.270     1644.419     1940.972      589.022        0.346        0.209       52.225       25.807        0.244      339.176       12.331      854.967
12/10/2014  15:20:00       14.183      -40.161        2.409       33.544       28.239       23.523     1125.217      797.462      553.336        0.215        0.124       42.592       20.063        0.222      339.177       12.331      854.943
12/10/2014  15:21:00        2.315       17.904       27.004       25.616       17.496       20.557      656.198      306.123      422.597        0.122        0.069       18.053        9.001        0.249      339.139       12.267      854.969
12/10/2014  15:22:00       -6.806       15.950        0.307       28.344       23.185       15.449      803.387      537.547      238.660        0.094        0.079       17.341       15.916        0.842      339.332       12.593      854.968
12/10/2014  15:23:00      -85.915       60.286      -11.644       44.132       44.908       18.702     1947.657     2016.755      349.782        0.773        0.216      104.957       20.516        0.038      339.659       13.142      854.971
12/10/2014  15:24:00      -40.093       23.093       -7.698       21.775       20.726       15.071      474.167      429.549      227.138        0.167        0.057       46.268       11.268        0.059      339.432       12.761      855.080
12/10/2014  15:25:00      -43.426       23.879        1.495       27.219       29.232       17.931      740.879      854.523      321.527        0.219        0.096       49.559       15.310        0.095      339.463       12.814      855.164
12/10/2014  15:26:00      -15.858       56.755       -6.516       22.272       27.692       16.437      496.028      766.838      270.166        0.252        0.077       58.929       16.821        0.081      339.355       12.630      855.188
12/10/2014  15:27:00       21.878      102.390      -17.305       18.532       42.922       19.397      343.452     1842.320      376.245        0.691        0.128      104.701       26.792        0.065      339.300       12.537      855.123
12/10/2014  15:28:00       15.517       45.163      -16.342       25.032       34.852       20.422      626.611     1214.697      417.049        0.240        0.113       47.754       20.155        0.178      339.231       12.424      855.080
12/10/2014  15:29:00       -7.095       82.946      -16.251       33.986       38.870       18.855     1155.064     1510.887      355.524        0.511        0.151       83.249       18.567        0.050      339.327       12.583      855.138
12/10/2014  15:30:00        1.889      121.434      -23.920       37.517       35.804       18.242     1407.552     1281.938      332.752        0.917        0.151      121.448       16.260        0.018      339.427       12.753      855.177
12/10/2014  15:31:00       -5.490      181.480      -32.692       11.233       22.510        8.319      126.183      506.717       69.208        1.737        0.035      181.563        6.837        0.001      339.608       13.058      855.174
12/10/2014  15:32:00        1.278       99.407      -19.181       36.928       31.350       16.875     1363.666      982.803      284.764        0.644        0.132       99.415       12.960        0.017      339.679       13.178      855.213
12/10/2014  15:33:00      -23.848       69.084      -10.861       37.111       27.121       20.978     1377.215      735.571      440.070        0.401        0.128       73.085        8.061        0.012      339.751       13.299      855.204
12/10/2014  15:34:00      -17.928       58.198       -9.754       22.446       28.324       16.526      503.835      802.265      273.118        0.269        0.079       60.897       10.906        0.032      339.801       13.385      855.175
12/10/2014  15:35:00       31.655        9.376       -1.520       27.033       15.186       11.907      730.778      230.608      141.788        0.110        0.055       33.014        8.599        0.068      339.515       12.902      855.229
12/10/2014  15:36:00       38.883       61.350       52.801       42.899       41.277       37.256     1840.295     1703.829     1388.021        0.650        0.247       72.634       31.892        0.193      339.301       12.539      855.288
12/10/2014  15:37:00       91.837       59.556       31.325       57.892       45.578       41.567     3351.502     2077.361     1727.803        1.006        0.358      109.457       33.272        0.092      339.362       12.643      855.260
12/10/2014  15:38:00       74.259       51.997        5.359       39.520       29.031       24.221     1561.821      842.825      586.650        0.562        0.150       90.654       25.000        0.076      339.393       12.694      855.183
12/10/2014  15:39:00       18.712       10.989        5.720       23.387       23.918       17.181      546.930      572.050      295.202        0.096        0.071       21.700       12.516        0.333      339.346       12.616      855.188
12/10/2014  15:40:00        5.577       17.833       -6.202       22.381       21.059        9.847      500.917      443.471       96.959        0.071        0.052       18.684       11.987        0.412      339.421       12.742      855.224
12/10/2014  15:41:00       80.700       98.735       -5.854       54.885       37.372       30.299     3012.349     1396.660      918.038        1.081        0.266      127.519       25.808        0.041      339.485       12.852      855.148
12/10/2014  15:42:00      145.242       99.226       21.821       49.344       38.844       43.723     2434.857     1508.849     1911.724        1.864        0.293      175.901       29.073        0.027      339.690       13.195      855.115
12/10/2014  15:43:00      126.565       74.759       20.130       45.129       37.954       28.555     2036.655     1440.473      815.394        1.315        0.215      146.996       14.543        0.010      339.655       13.136      855.107
12/10/2014  15:44:00       97.239       45.057       37.948       51.205       35.448       41.349     2621.972     1256.554     1709.769        0.926        0.279      107.171       29.234        0.074      339.586       13.020      855.124
12/10/2014  15:45:00      107.630       67.324       52.636       37.993       36.743       38.622     1443.435     1350.080     1491.658        1.159        0.214      126.951       28.332        0.050      339.525       12.919      855.100
12/10/2014  15:46:00       82.511       49.444       20.735       55.428       63.816       50.612     3072.254     4072.461     2561.589        0.969        0.485       96.191       43.932        0.209      339.475       12.833      855.037
12/10/2014  15:47:00       57.670       14.608       23.564       67.105       74.133       42.213     4503.028     5495.712     1781.964        0.794        0.589       59.491       38.199        0.412      339.673       13.167      855.078
12/10/2014  15:48:00      -32.762      -68.912        2.896       45.738       35.482       31.945     2091.963     1258.985     1020.469        0.510        0.219       76.303       27.838        0.133      339.583       13.016      855.174
12/10/2014  15:49:00     -103.583      -16.795      -16.629       20.098       21.882       15.586      403.939      478.828      242.908        0.621        0.056      104.936        5.275        0.003      339.455       12.800      855.260
12/10/2014  15:50:00      -86.625      -23.636      -14.049       47.415       27.417       21.139     2248.168      751.672      446.870        0.585        0.172       89.792       23.534        0.069      339.933       13.606      855.270
12/10/2014  15:51:00      -62.257        3.446       -7.173       44.717       34.898       20.054     1999.648     1217.895      402.182        0.378        0.181       62.352       17.457        0.078      339.937       13.614      855.252
12/10/2014  15:52:00       28.840       55.386       28.177       25.796       31.953       36.895      665.414     1020.972     1361.229        0.387        0.152       62.445       27.107        0.188      339.650       13.129      855.183
12/10/2014  15:53:00       74.390       72.549       -1.865       33.175       25.934       27.645     1100.604      672.580      764.221        0.667        0.127      103.909       19.918        0.037      339.766       13.324      855.095
12/10/2014  15:54:00       29.625       83.686       -1.215       47.930       32.448       31.756     2297.286     1052.864     1008.466        0.612        0.218       88.775       28.563        0.104      339.884       13.524      855.141
12/10/2014  15:55:00       34.732        1.005       14.016       33.023       35.151       20.424     1090.545     1235.616      417.154        0.207        0.137       34.746       18.254        0.276      339.732       13.266      855.141
12/10/2014  15:56:00       13.796        0.989       -2.267       47.291       25.776       14.440     2236.437      664.413      208.512        0.165        0.155       13.831       11.773        0.725      339.888       13.531      855.134
12/10/2014  15:57:00      -49.843      -29.079      -14.508       15.715       30.226       13.446      246.974      913.613      180.791        0.244        0.067       57.705        7.932        0.019      339.613       13.064      855.209
12/10/2014  15:58:00      -28.247      -21.528       -1.906       18.512       16.216        8.480      342.703      262.953       71.917        0.097        0.034       35.516        4.247        0.014      339.791       13.368      855.219
12/10/2014  15:59:00      -50.915      -35.973       -3.310       39.679       13.474       12.684     1574.455      181.552      160.878        0.291        0.096       62.341       11.435        0.034      339.608       13.058      855.247
12/10/2014  16:00:00      -49.176       -0.773       -7.952       20.123       22.671       10.404      404.949      513.978      108.235        0.175        0.051       49.182        9.454        0.037      339.824       13.422      855.222
12/10/2014  16:01:00     -117.938      -41.606      -16.612       32.661       22.097       10.179     1066.743      488.265      103.618        0.879        0.083      125.061       11.591        0.009      339.631       13.096      855.177
12/10/2014  16:02:00     -101.736      -49.434      -12.260       37.579       20.310        9.390     1412.216      412.490       88.170        0.743        0.096      113.110       13.636        0.015      339.695       13.206      855.196
12/10/2014  16:03:00      -11.717      -77.276      -12.414       29.065       23.899       12.607      844.778      571.182      158.930        0.392        0.079       78.159        9.005        0.013      339.812       13.402      855.262
12/10/2014  16:04:00     -102.832     -104.788       -7.391       35.472       46.280       33.391     1258.245     2141.858     1114.946        1.306        0.226      146.816       21.796        0.022      339.912       13.570      855.368
12/10/2014  16:05:00      -87.853     -111.995        1.463       56.260       65.298       30.575     3165.179     4263.781      934.809        1.431        0.418      142.342       33.807        0.056      340.216       14.084      855.347
12/10/2014  16:06:00     -195.169      -56.966        6.444      109.820       70.965       50.910    12060.362     5035.983     2591.853        3.053        0.984      203.313       45.830        0.051      340.170       14.003      855.223
12/10/2014  16:07:00     -149.359     -313.083        9.848       92.935      147.740       51.715     8636.947    21827.098     2674.392        7.678        1.657      346.885       50.193        0.021      340.700       14.897      855.124
12/10/2014  16:08:00     -166.665     -222.696      -16.953      139.006      134.438       50.974    19322.749    18073.702     2598.372        5.882        2.000      278.156       56.737        0.042      341.085       15.550      855.044
12/10/2014  16:09:00     -228.823     -306.510      -17.092      160.572      157.684       80.804    25783.439    24864.140     6529.298       10.188        2.859      382.503       67.933        0.032      340.910       15.255      855.075
12/10/2014  16:10:00     -300.377      -76.608      -10.732      139.972       84.683       66.336    19592.118     7171.189     4400.477        6.368        1.558      309.992       69.385        0.050      340.785       15.043      855.150
12/10/2014  16:11:00     -268.891     -164.431       -4.330      193.905      113.930       62.697    37599.288    12980.152     3930.971        7.692        2.726      315.182       89.035        0.080      340.760       15.000      855.099
12/10/2014  16:12:00     -180.666     -135.836        5.756      134.354       93.394       59.812    18051.049     8722.448     3577.451        4.073        1.518      226.034       57.684        0.065      340.700       14.900      855.023
12/10/2014  16:13:00     -384.131     -249.186      -21.052      171.996      118.163       75.991    29582.580    13962.465     5774.659       12.970        2.466      457.875       77.947        0.029      340.775       15.025      855.077
12/10/2014  16:14:00     -410.331     -306.184        7.276      207.211      206.094       98.047    42936.249    42474.571     9613.180       17.858        4.751      511.977      107.223        0.044      340.769       15.015      855.062
12/10/2014  16:15:00     -344.992     -271.964       -1.094      194.704      164.727      107.902    37909.755    27134.894    11642.823       13.482        3.834      439.300      119.880        0.074      340.798       15.066      854.975
12/10/2014  16:16:00     -170.356      -15.416       16.265      166.155       92.158       61.796    27607.505     8493.028     3818.728        3.471        1.996      171.052       63.795        0.139      340.660       14.832      854.807
12/10/2014  16:17:00     -297.608     -190.666       -5.108      134.154      106.460       62.111    17997.327    11333.777     3857.747        7.906        1.659      353.446       56.744        0.026      340.753       14.989      854.845
12/10/2014  16:18:00     -123.221     -175.109        0.236      136.175      106.298       59.287    18543.721    11299.309     3514.977        3.960        1.668      214.118       62.774        0.086      340.708       14.913      854.997
12/10/2014  16:19:00     -152.844     -162.737      -29.406      112.515       82.882       47.881    12659.725     6869.447     2292.607        3.626        1.091      223.259       32.279        0.021      340.654       14.821      855.025
12/10/2014  16:20:00     -146.598     -129.707       -6.915      128.480       67.365       42.326    16507.146     4538.043     1791.506        3.060        1.142      195.742       30.882        0.025      340.545       14.638      855.048
12/10/2014  16:21:00     -193.412     -136.438        3.911      122.700       91.668       54.387    15055.199     8403.036     2957.927        4.122        1.321      236.693       55.615        0.055      340.471       14.513      855.100
12/10/2014  16:22:00     -147.359     -145.078       -9.720       81.789       87.651       43.554     6689.491     7682.689     1896.967        2.956        0.813      206.790       42.124        0.041      340.434       14.449      855.012
12/10/2014  16:23:00     -166.601     -186.355        2.985      111.607      134.139       55.838    12456.178    17993.236     3117.861        4.802        1.678      249.968       61.525        0.061      340.553       14.650      854.934
12/10/2014  16:24:00      -90.776     -178.146        5.829       79.761      137.287       54.084     6361.738    18847.747     2925.091        3.407        1.407      199.941       59.181        0.088      340.527       14.606      854.904
12/10/2014  16:25:00     -109.223     -103.091       20.858       80.859       81.498       53.695     6538.249     6641.884     2883.174        1.952        0.803      150.192       46.857        0.097      340.484       14.534      854.878
12/10/2014  16:26:00       -7.916     -196.687       23.263      104.551      100.454       48.007    10930.993    10091.065     2304.694        3.130        1.166      196.846       40.050        0.041      340.632       14.784      854.862
12/10/2014  16:27:00      -86.395     -142.155       -3.370       88.453       91.889       41.611     7823.947     8443.675     1731.496        2.284        0.900      166.350       41.867        0.063      340.547       14.641      854.914
12/10/2014  16:28:00     -103.817     -120.625       19.005       85.883      105.155       55.077     7375.806    11057.639     3033.466        2.357        1.073      159.149       60.256        0.143      340.536       14.623      854.923
12/10/2014  16:29:00     -156.740     -159.691       -7.836       58.803       69.248       37.239     3457.827     4795.331     1386.752        2.988        0.482      223.760       33.592        0.023      340.558       14.659      854.937
12/10/2014  16:30:00     -113.808     -129.453      -10.363       61.494       82.931       40.034     3781.480     6877.485     1602.681        2.104        0.613      172.367       36.040        0.044      340.579       14.694      854.838
12/10/2014  16:31:00     -144.388     -176.352        6.381      114.914      121.943       49.329    13205.311    14870.167     2433.332        4.124        1.525      227.921       55.451        0.059      340.582       14.699      854.731
12/10/2014  16:32:00      -54.434     -225.221      -25.521      153.654       78.093       48.570    23609.509     6098.580     2359.026        4.320        1.603      231.706       24.445        0.011      340.626       14.775      854.776
12/10/2014  16:33:00      -12.471     -182.781       -9.519      179.760       98.751       80.790    32313.612     9751.787     6527.081        4.111        2.430      183.206       66.008        0.130      340.601       14.730      854.780
12/10/2014  16:34:00     -234.034     -144.053      -12.124      109.701      105.164       60.567    12034.257    11059.493     3668.378        5.121        1.338      274.815       44.071        0.026      340.507       14.572      854.740
12/10/2014  16:35:00     -125.901     -100.251        1.717       81.687       94.606       48.962     6672.802     8950.258     2397.269        2.196        0.901      160.939       48.546        0.091      340.411       14.410      854.581
12/10/2014  16:36:00      -58.551     -139.064       -5.514       65.142       56.485       40.801     4243.518     3190.528     1664.752        1.595        0.455      150.887       35.957        0.057      340.461       14.497      854.489
12/10/2014  16:37:00      -96.722     -136.811       11.156       91.135      107.358       40.891     8305.616    11525.746     1672.108        2.485        1.075      167.548       52.899        0.100      340.444       14.468      854.471
12/10/2014  16:38:00      -29.567     -131.822       -1.945       78.864       69.583       43.369     6219.532     4841.742     1880.835        1.560        0.647      135.097       23.953        0.031      340.440       14.462      854.466
12/10/2014  16:39:00      -64.096      -96.395       13.144      174.772      110.605       77.458    30545.363    12233.366     5999.708        3.117        2.439      115.760       68.396        0.349      340.401       14.394      854.391
12/10/2014  16:40:00     -158.004      -66.884        6.388      111.464       83.535       64.475    12424.324     6978.015     4157.011        2.651        1.178      171.578       64.163        0.140      340.371       14.342      854.373
12/10/2014  16:41:00     -109.792     -114.869       18.115      164.624      113.494       62.826    27101.016    12880.858     3947.132        3.474        2.196      158.900       60.549        0.145      340.426       14.436      854.413
12/10/2014  16:42:00      -76.015     -131.782      -24.975       66.485       77.219       47.526     4420.260     5962.842     2258.757        1.820        0.632      152.134       23.640        0.024      340.479       14.526      854.497
12/10/2014  16:43:00     -117.621     -222.893      -26.534       97.749      119.330       58.676     9554.863    14239.669     3442.871        4.572        1.362      252.024       42.393        0.028      340.530       14.611      854.539
12/10/2014  16:44:00      -32.057     -212.321        0.903      114.168      155.192       75.669    13034.281    24084.455     5725.824        4.447        2.142      214.727       78.145        0.132      340.580       14.696      854.555
12/10/2014  16:45:00      -94.041     -112.951       -4.721       89.602       85.337       51.119     8028.564     7282.474     2613.175        1.977        0.896      146.975       29.800        0.041      340.560       14.663      854.582
12/10/2014  16:46:00      -51.981     -119.142        1.085      108.748       84.821       62.178    11826.201     7194.648     3866.095        1.989        1.144      129.988       53.541        0.170      340.615       14.756      854.615
12/10/2014  16:47:00      -94.244     -404.068       -3.852      149.856      183.645       82.801    22456.692    33725.597     6856.061       11.759        3.152      414.913       89.469        0.046      340.781       15.035      854.602
12/10/2014  16:48:00      -76.627     -326.357      -15.251      144.602      129.814       72.358    20909.635    16851.607     5235.743        7.780        2.150      335.232       65.185        0.038      340.773       15.022      854.586
12/10/2014  16:49:00       -4.039     -266.916      -16.062      194.684      155.815       92.407    37901.965    24278.227     8539.069        7.110        3.536      266.947       46.151        0.030      340.717       14.929      854.542
12/10/2014  16:50:00      -15.219     -204.402       -0.654      174.037      156.261       90.199    30288.860    24417.585     8135.908        5.241        3.142      204.967       94.539        0.213      340.655       14.822      854.554
12/10/2014  16:51:00      -56.088     -384.766       -9.533      238.292      166.888       99.367    56783.143    27851.545     9873.887       12.288        4.725      388.833       65.623        0.028      340.741       14.967      854.581
12/10/2014  16:52:00      -76.759     -332.053      -19.030      124.480      134.952       80.752    15495.154    18211.998     6520.837        7.836        2.011      340.809       74.621        0.048      340.724       14.940      854.654
12/10/2014  16:53:00      -91.825     -170.009        9.921      141.104      124.871       72.609    19910.440    15592.646     5272.069        3.910        2.039      193.222       59.572        0.095      340.555       14.653      854.578
12/10/2014  16:54:00      -28.185     -170.549       23.838      159.265      140.081       76.755    25365.363    19622.667     5891.265        4.065        2.544      172.862       52.480        0.092      340.663       14.837      854.530
12/10/2014  16:55:00       32.515     -138.263       40.003      167.439      145.759       90.165    28035.969    21245.787     8129.694        3.958        2.871      142.035       85.047        0.359      340.532       14.616      854.535
12/10/2014  16:56:00      -97.500     -250.451        1.528      158.885      182.046       85.819    25244.511    33140.580     7364.870        6.898        3.287      268.760       83.319        0.096      340.612       14.750      854.560
12/10/2014  16:57:00     -121.424     -209.243       17.104      126.470      171.348       74.208    15994.689    29360.124     5506.898        5.483        2.543      241.923       76.056        0.099      340.572       14.682      854.640
12/10/2014  16:58:00     -119.063     -173.804        0.677      158.176      183.499       88.491    25019.614    33672.059     7830.578        5.544        3.326      210.674       82.505        0.153      340.568       14.677      854.692
12/10/2014  16:59:00     -240.878     -255.153        4.729      148.408      186.773       77.077    22025.049    34884.213     5940.926        9.299        3.143      350.892       85.897        0.060      340.545       14.636      854.680
12/10/2014  17:00:00      -40.763     -171.089       12.424      117.426      105.873       62.844    13788.885    11209.071     3949.345        3.001        1.447      175.878       49.496        0.079      340.479       14.526      854.623
12/10/2014  17:01:00      -55.004     -165.191       -4.818      104.115      100.562       54.345    10839.853    10112.806     2953.400        2.712        1.195      174.108       35.662        0.042      340.473       14.516      854.625
12/10/2014  17:02:00     -110.104     -253.996       -0.309      190.995      193.632       86.385    36479.088    37493.394     7462.296        7.902        4.072      276.833       93.097        0.113      340.447       14.470      854.644
12/10/2014  17:03:00      -75.845     -242.968       -1.669      143.567      158.833       81.908    20611.578    25228.059     6708.905        5.866        2.627      254.531       77.177        0.092      340.442       14.462      854.630
12/10/2014  17:04:00      -48.096     -202.690       25.326      125.899      123.487       70.482    15850.454    15249.128     4967.755        4.005        1.803      208.318       57.897        0.077      340.409       14.407      854.612
12/10/2014  17:05:00     -106.927     -278.115      -18.955      159.701      139.164       74.948    25504.313    19366.584     5617.193        6.980        2.524      297.962       48.115        0.026      340.426       14.435      854.615
12/10/2014  17:06:00     -112.835     -153.905      -16.652       93.021       88.092       57.218     8652.996     7760.160     3273.874        2.819        0.984      190.837       38.295        0.040      340.330       14.273      854.609
12/10/2014  17:07:00     -150.525     -187.096      -12.588      109.693      111.447       57.525    12032.450    12420.384     3309.092        4.279        1.388      240.130       45.816        0.036      340.276       14.180      854.569
12/10/2014  17:08:00     -119.078     -241.617       -4.647      151.747      165.384       75.400    23027.156    27351.710     5685.128        6.431        2.803      269.367       82.095        0.093      340.322       14.260      854.554
12/10/2014  17:09:00      -20.166     -290.619      -19.620      164.433      189.080       89.737    27038.051    35751.323     8052.783        7.803        3.542      291.318       71.769        0.061      340.417       14.420      854.625
12/10/2014  17:10:00     -207.448     -222.992       -8.300      121.356      159.866       61.724    14727.246    25557.130     3809.796        6.845        2.205      304.565       44.386        0.021      340.298       14.217      854.592
12/10/2014  17:11:00     -126.097     -129.595       -1.362      116.131       84.052       58.936    13486.516     7064.776     3473.448        2.836        1.201      180.818       53.304        0.087      340.301       14.224      854.522
12/10/2014  17:12:00     -132.462     -148.231        2.631      103.215       86.357       68.819    10653.331     7457.462     4736.074        3.118        1.142      198.793       60.155        0.092      340.192       14.041      854.564
12/10/2014  17:13:00     -154.945     -193.592       17.291      133.933      146.700       81.478    17938.145    21520.909     6638.588        5.393        2.305      247.963       81.612        0.108      340.171       14.004      854.678
12/10/2014  17:14:00     -212.043     -132.058        3.163      134.016      113.120       61.756    17960.237    12796.234     3813.859        4.848        1.729      249.804       76.961        0.095      340.090       13.869      854.703
12/10/2014  17:15:00     -312.411     -205.184        0.881      180.190      155.314       77.292    32468.540    24122.554     5974.040       10.112        3.128      373.766       87.546        0.055      340.052       13.803      854.625
12/10/2014  17:16:00     -315.223     -218.773       -8.046      191.115      145.397       94.198    36524.756    21140.398     8873.319       10.690        3.327      383.702      102.135        0.071      340.134       13.942      854.601
12/10/2014  17:17:00     -248.194     -283.233      -11.605      134.074      131.456       76.187    17975.711    17280.649     5804.458        9.150        2.053      376.592       76.136        0.041      340.089       13.865      854.700
12/10/2014  17:18:00     -187.514     -224.757       -4.536      113.584      124.049       71.413    12901.297    15388.054     5099.772        5.954        1.669      292.706       59.048        0.041      340.027       13.760      854.767
12/10/2014  17:19:00     -176.040     -121.189      -11.709      105.956       81.294       49.178    11226.727     6608.672     2418.477        3.303        1.013      213.722       46.717        0.048      339.962       13.652      854.729
12/10/2014  17:20:00     -151.755      -86.175       15.884       91.607       75.149       50.490     8391.862     5647.399     2549.254        2.365        0.829      174.516       53.476        0.094      339.875       13.506      854.730
12/10/2014  17:21:00     -213.863     -167.170        0.255      108.668      130.705       58.842    11808.632    17083.725     3462.347        5.301        1.618      271.447       60.295        0.049      339.944       13.621      854.749
12/10/2014  17:22:00     -125.173     -229.207       -8.616       98.894       98.164       49.752     9780.026     9636.170     2475.212        4.508        1.095      261.159       35.855        0.019      339.965       13.657      854.838
12/10/2014  17:23:00      -82.267     -220.340        2.624      123.921      105.413       51.046    15356.458    11111.992     2605.676        4.219        1.454      235.197       48.621        0.043      339.973       13.670      854.811
12/10/2014  17:24:00      -35.979      -46.671        3.078       81.391       83.937       45.440     6624.531     7045.357     2064.780        0.961        0.787       58.930       53.379        0.820      339.858       13.480      854.757
12/10/2014  17:25:00     -117.003      -94.203      -10.120       85.214       72.113       33.955     7261.407     5200.329     1152.970        1.814        0.681      150.213       18.759        0.016      339.923       13.588      854.732
12/10/2014  17:26:00     -116.437     -150.738        6.817      100.523       83.820       54.719    10104.879     7025.742     2994.171        2.822        1.006      190.472       20.016        0.011      339.940       13.616      854.633
12/10/2014  17:27:00     -162.602     -154.499        6.899      112.461      106.802       60.922    12647.445    11406.578     3711.515        3.906        1.388      224.298       60.430        0.073      339.902       13.550      854.582
12/10/2014  17:28:00     -142.955     -103.296       -4.709      113.034      106.777       48.618    12776.613    11401.302     2363.724        2.883        1.327      176.369       55.410        0.099      339.931       13.602      854.599
12/10/2014  17:29:00     -109.769      -59.950       14.466       83.647       56.185       40.094     6996.781     3156.746     1607.560        1.380        0.588      125.073       45.347        0.131      339.844       13.455      854.565
12/10/2014  17:30:00      -93.769      -89.630        6.014      128.213       73.858       47.115    16438.657     5455.040     2219.809        2.048        1.206      129.716       47.966        0.137      339.873       13.505      854.616
12/10/2014  17:31:00     -175.821     -120.613        1.781       77.459       74.841       37.626     5999.934     5601.117     1415.705        2.924        0.651      213.215       32.664        0.023      339.800       13.378      854.632
12/10/2014  17:32:00     -129.473     -169.833      -12.320       99.979      113.048       63.936     9995.890    12779.752     4087.812        3.631        1.343      213.557       49.325        0.053      339.974       13.671      854.527
12/10/2014  17:33:00     -187.576      -93.925      -10.046       72.480       54.488       40.148     5253.400     2968.955     1611.835        2.697        0.492      209.778       34.023        0.026      339.803       13.384      854.479
12/10/2014  17:34:00     -112.597      -56.504        9.445      106.302       51.728       40.065    11300.073     2675.807     1605.206        1.577        0.779      125.979       52.189        0.172      339.715       13.238      854.461
12/10/2014  17:35:00      -82.689     -164.195        2.566      129.210       82.622       48.553    16695.316     6826.452     2357.381        2.984        1.294      183.841       54.719        0.089      339.942       13.618      854.428
12/10/2014  17:36:00     -138.895      -69.176        7.164       98.348       85.410       44.171     9672.321     7294.806     1951.120        2.152        0.946      155.169       52.693        0.115      339.793       13.368      854.370
12/10/2014  17:37:00      -73.536     -176.726        1.438       65.526       98.037       43.182     4293.640     9611.206     1864.709        2.620        0.788      191.415       23.979        0.016      339.828       13.427      854.477
12/10/2014  17:38:00      -64.413     -131.338      -14.196       74.453       84.932       36.554     5543.176     7213.396     1336.170        1.784        0.705      146.284        3.109        0.000      339.876       13.507      854.550
12/10/2014  17:39:00      -68.143      -55.265       12.563       83.944       79.490       53.518     7046.663     6318.614     2864.168        1.204        0.811       87.736       51.740        0.348      339.830       13.432      854.490
12/10/2014  17:40:00      -24.097     -151.733        4.854       87.682      129.203       55.589     7688.201    16693.337     3090.109        2.554        1.374      153.635       67.326        0.192      340.052       13.806      854.478
12/10/2014  17:41:00     -118.190     -128.985      -15.982      114.906       67.814       36.525    13203.365     4598.775     1334.103        2.500        0.957      174.946       30.063        0.030      340.043       13.791      854.485
12/10/2014  17:42:00     -101.023     -156.814        7.183      119.439       98.410       58.480    14265.773     9684.584     3419.854        3.110        1.369      186.538       40.085        0.046      340.121       13.921      854.440
12/10/2014  17:43:00     -153.974     -239.477      -21.452       82.470       93.345       51.911     6801.228     8713.243     2694.759        4.986        0.910      284.705       31.844        0.013      340.152       13.970      854.366
12/10/2014  17:44:00     -164.132     -195.435       -8.167       90.643       97.819       44.462     8216.157     9568.589     1976.890        4.248        0.988      255.214       34.454        0.018      340.013       13.737      854.343
12/10/2014  17:45:00      -71.922      -75.768       21.302      122.141       98.186       58.456    14918.383     9640.411     3417.119        1.967        1.399      104.468       70.877        0.460      339.979       13.682      854.373
12/10/2014  17:46:00     -100.864     -126.928        7.898      111.021      117.369       59.091    12325.610    13775.518     3491.715        2.796        1.480      162.124       68.152        0.177      339.953       13.637      854.441
12/10/2014  17:47:00      -84.596     -114.838        7.094      112.859       76.515       53.922    12737.066     5854.513     2907.610        2.094        1.075      142.634       49.130        0.119      339.990       13.700      854.430
12/10/2014  17:48:00     -164.406     -129.865        2.166      108.102       80.769       54.308    11686.041     6523.638     2949.340        3.252        1.058      209.510       49.014        0.055      339.963       13.653      854.403
12/10/2014  17:49:00     -232.681     -269.445      -12.891      161.956      151.362       72.228    26229.610    22910.530     5216.914        9.062        2.718      356.007       76.884        0.047      340.047       13.795      854.416
12/10/2014  17:50:00       -8.655      -99.248        5.885      116.426      135.512       66.295    13554.977    18363.542     4395.079        2.313        1.816       99.624       75.732        0.578      340.150       13.971      854.392
12/10/2014  17:51:00       43.170     -101.099       16.924       98.993      102.635       56.594     9799.517    10534.024     3202.937        1.795        1.177      109.930       50.948        0.215      340.151       13.971      854.349
12/10/2014  17:52:00     -140.927     -112.300       27.733      126.348      123.145       72.851    15963.744    15164.606     5307.335        3.483        1.822      180.199       86.154        0.229      340.177       14.016      854.386
12/10/2014  17:53:00      -13.829     -141.055       33.689      161.319      109.965       83.826    26023.779    12092.268     7026.844        3.317        2.257      141.732       68.361        0.233      340.158       13.982      854.446
12/10/2014  17:54:00      -29.668     -195.137        5.935      125.268      123.372       71.529    15692.109    15220.613     5116.441        3.750        1.801      197.379       61.090        0.096      340.256       14.149      854.505
12/10/2014  17:55:00      -72.052     -256.164       -6.945      137.227      139.760       74.568    18831.376    19532.821     5560.440        5.738        2.196      266.104       72.431        0.074      340.326       14.265      854.493
12/10/2014  17:56:00     -157.604     -202.629       -3.408      106.036      124.493       49.845    11243.676    15498.520     2484.543        4.756        1.461      256.706       42.941        0.028      340.187       14.031      854.509
12/10/2014  17:57:00      -12.462     -184.139      -24.271       91.974       55.623       40.883     8459.248     3093.948     1671.457        2.394        0.661      184.560       33.857        0.034      340.185       14.030      854.524
12/10/2014  17:58:00      -85.093     -100.315       -5.850       90.082      103.379       47.191     8114.821    10687.184     2227.000        1.918        1.051      131.545       26.196        0.040      340.273       14.178      854.519
12/10/2014  17:59:00      -58.599     -218.399        1.173      133.664      137.280       70.047    17866.057    18845.682     4906.645        4.637        2.081      226.124       60.832        0.072      340.243       14.126      854.649
12/10/2014  18:00:00      -95.388     -166.347        0.153      110.281      156.578       53.042    12161.830    24516.610     2813.449        3.812        1.975      191.755       40.334        0.044      340.219       14.087      854.735
12/10/2014  18:01:00      -79.044     -124.730        7.810       80.257       80.046       53.514     6441.109     6407.369     2863.786        1.879        0.786      147.667       35.807        0.059      340.078       13.850      854.724
12/10/2014  18:02:00      -41.098     -162.781      -18.422       82.050      124.447       52.416     6732.193    15487.023     2747.398        2.674        1.248      167.889       25.531        0.023      340.226       14.099      854.644
12/10/2014  18:03:00       22.490     -132.801        3.871      158.128       89.062       62.866    25004.581     7932.054     3952.128        2.752        1.844      134.692       55.996        0.173      340.200       14.054      854.573
12/10/2014  18:04:00      -36.954      -82.083       25.675       85.165       63.612       46.968     7253.029     4046.481     2206.023        1.113        0.675       90.018       38.689        0.185      340.092       13.875      854.564
12/10/2014  18:05:00     -104.322     -191.220        4.360      130.716      118.648       54.104    17086.789    14077.269     2927.229        4.077        1.705      217.826       60.337        0.077      340.203       14.058      854.670
12/10/2014  18:06:00      -56.867     -243.193      -15.606      157.199      121.109       67.171    24711.484    14667.304     4511.945        5.325        2.195      249.754       57.710        0.053      340.345       14.296      854.605
12/10/2014  18:07:00      -64.917     -238.395       14.033      136.540      163.057       75.517    18643.096    26587.428     5702.813        5.608        2.547      247.076       48.298        0.038      340.367       14.334      854.522
12/10/2014  18:08:00      -53.121      -72.646        8.885       89.392       75.342       42.672     7990.921     5676.391     1820.916        1.183        0.774       89.995       37.749        0.176      340.191       14.039      854.492
12/10/2014  18:09:00      -55.346      -65.005      -10.562       91.281       64.372       34.499     8332.158     4143.702     1190.205        1.053        0.683       85.374       27.653        0.105      340.136       13.948      854.552
12/10/2014  18:10:00      -50.565     -147.605        0.349      121.594       95.503       39.132    14785.063     9120.838     1531.297        2.489        1.272      156.026       31.740        0.041      340.292       14.210      854.582
12/10/2014  18:11:00       -4.243     -178.552        6.666      125.396      145.649       82.164    15724.221    21213.701     6750.930        3.781        2.184      178.602       80.931        0.205      340.328       14.270      854.528
12/10/2014  18:12:00      -26.088     -163.436        0.646      143.448      132.534       58.468    20577.380    17565.233     3418.513        3.447        2.078      165.505       45.716        0.076      340.287       14.200      854.513
12/10/2014  18:13:00      -63.635     -301.909       -1.553      103.713      191.184       77.074    10756.406    36551.455     5940.346        7.421        2.662      308.542       82.097        0.071      340.564       14.669      854.537
12/10/2014  18:14:00       56.635     -120.122        9.362      111.173      118.620       65.437    12359.410    14070.628     4282.017        2.421        1.536      132.804       53.368        0.161      340.379       14.356      854.495
12/10/2014  18:15:00      -36.087     -233.556        8.196       99.937      146.614       71.824     9987.432    21495.596     5158.641        4.627        1.832      236.327       59.113        0.063      340.413       14.415      854.449
12/10/2014  18:16:00       34.865     -269.116      -15.796      167.934      149.030       79.239    28201.820    22209.798     6278.770        6.528        2.835      271.365       73.967        0.074      340.431       14.443      854.525
12/10/2014  18:17:00      -83.983     -245.426       -8.221      139.903      154.020       78.151    19572.896    23722.124     6107.533        5.837        2.470      259.398       78.491        0.092      340.397       14.388      854.631
12/10/2014  18:18:00     -133.525     -212.965       -5.435       96.479       93.921       53.106     9308.238     8821.195     2820.292        4.208        1.047      251.362       43.164        0.029      340.271       14.171      854.664
12/10/2014  18:19:00     -105.384     -131.073       -1.188      102.288      115.670       66.732    10462.757    13379.550     4453.131        2.829        1.415      168.184       61.962        0.136      340.147       13.964      854.667
12/10/2014  18:20:00      -54.672     -115.677       28.182      128.246      164.598       76.763    16446.913    27092.628     5892.588        3.329        2.472      127.946       92.169        0.519      340.173       14.010      854.618
12/10/2014  18:21:00      -68.186     -285.044       -0.656      196.353      136.835       71.699    38554.558    18723.747     5140.690        7.415        3.121      293.086       56.310        0.037      340.347       14.300      854.560
12/10/2014  18:22:00       63.414     -239.325       -9.924      152.938      140.058       80.143    23389.919    19616.350     6422.952        5.540        2.471      247.584       72.016        0.085      340.498       14.558      854.480
12/10/2014  18:23:00        1.884     -141.122       -8.700      145.473      131.275       72.906    21162.282    17233.013     5315.324        3.184        2.186      141.135       75.033        0.283      340.346       14.301      854.442
12/10/2014  18:24:00      -76.430     -258.757       -3.908      154.545      156.565       84.561    23884.012    24512.559     7150.582        6.417        2.777      269.809       83.002        0.095      340.378       14.353      854.465
12/10/2014  18:25:00      -39.767     -267.122      -19.362      160.626      135.562       65.122    25800.672    18376.974     4240.816        6.085        2.421      270.066       44.420        0.027      340.448       14.472      854.507
12/10/2014  18:26:00      -26.045     -181.111       -9.309      132.895      119.242       62.987    17661.017    14218.635     3967.347        3.470        1.792      182.974       54.336        0.088      340.339       14.289      854.544
12/10/2014  18:27:00      -77.467     -203.645      -13.517      156.374      138.441       67.444    24452.782    19165.783     4548.697        4.790        2.408      217.881       45.272        0.043      340.360       14.325      854.559
12/10/2014  18:28:00     -111.189     -161.663        5.880      115.995      105.260       51.628    13454.871    11079.624     2665.469        3.286        1.360      196.209       46.514        0.056      340.209       14.068      854.552
12/10/2014  18:29:00     -141.435      -79.576       17.867      100.977       89.773       48.860    10196.332     8059.280     2387.289        2.365        1.032      162.284       49.738        0.094      340.127       13.930      854.553
12/10/2014  18:30:00     -198.668     -245.234       -6.228       91.165       98.590       59.210     8311.118     9719.906     3505.799        6.059        1.077      315.608       47.096        0.022      340.155       13.975      854.556
12/10/2014  18:31:00     -138.878     -132.427       13.091       86.714       73.679       43.275     7519.394     5428.614     1872.704        2.591        0.741      191.896       25.459        0.018      340.070       13.835      854.516
12/10/2014  18:32:00      -88.826      -57.106       -8.317      117.838       84.114       48.174    13885.855     7075.082     2320.687        1.725        1.164      105.599       40.770        0.149      340.084       13.860      854.450
12/10/2014  18:33:00      -23.319      -84.888       25.120      108.190       97.099       51.095    11705.142     9428.221     2610.732        1.606        1.187       88.033       31.276        0.126      340.087       13.864      854.451
12/10/2014  18:34:00     -152.012      -89.791       -9.669       73.603       51.665       36.594     5417.377     2669.291     1339.133        2.034        0.471      176.550       38.110        0.047      340.058       13.814      854.495
12/10/2014  18:35:00      -97.055     -147.221       -9.949       97.090       67.711       37.307     9426.555     4584.713     1391.825        2.329        0.770      176.334       38.880        0.049      340.007       13.730      854.511
12/10/2014  18:36:00      -55.386     -144.267      -12.054       66.439       79.227       44.132     4414.111     6276.901     1947.643        1.833        0.632      154.534       30.105        0.038      340.096       13.882      854.473
12/10/2014  18:37:00      -91.662     -114.120       -1.633      100.413       77.894       43.667    10082.732     6067.518     1906.808        1.974        0.903      146.373       44.291        0.092      339.947       13.629      854.428
12/10/2014  18:38:00      -18.625      -98.611        4.287       69.023       43.832       40.506     4764.204     1921.277     1640.699        0.921        0.416      100.355       40.649        0.164      339.962       13.655      854.388
12/10/2014  18:39:00       -2.761     -109.849        8.395      115.298       75.117       54.148    13293.716     5642.588     2931.973        1.700        1.093      109.884       25.228        0.053      340.136       13.946      854.360
12/10/2014  18:40:00      -66.798     -117.386        4.662      126.347      107.473       60.241    15963.526    11550.439     3628.921        2.470        1.557      135.061       53.894        0.159      340.123       13.927      854.364
12/10/2014  18:41:00      -28.614      -82.914       11.716       78.146       64.201       49.061     6106.806     4121.794     2406.957        1.023        0.632       87.712       41.100        0.220      340.127       13.934      854.370
12/10/2014  18:42:00      -46.160      -79.164       -7.595       69.931       74.558       45.443     4890.323     5558.895     2065.062        1.048        0.626       91.639       48.071        0.275      340.153       13.976      854.381
12/10/2014  18:43:00      -27.402     -147.350        6.492       88.923      116.386       46.460     7907.286    13545.659     2158.509        2.305        1.181      149.876       47.437        0.100      340.231       14.107      854.406
12/10/2014  18:44:00      -64.956      -74.962       11.392       82.276       84.577       42.425     6769.414     7153.238     1799.866        1.284        0.786       99.190       54.207        0.299      340.067       13.831      854.451
12/10/2014  18:45:00     -119.559      -61.924        0.637       88.798       88.517       38.134     7885.157     7835.241     1454.237        1.765        0.859      134.644       33.394        0.062      340.127       13.932      854.449
12/10/2014  18:46:00      -97.009     -141.807       -2.529       58.415       55.754       33.663     3412.300     3108.540     1133.209        1.859        0.383      171.814       27.633        0.026      340.025       13.761      854.412
12/10/2014  18:47:00      -87.021      -76.666       -2.201      138.534       88.009       54.847    19191.546     7745.529     3008.241        2.169        1.497      115.975       45.496        0.154      339.984       13.690      854.424
12/10/2014  18:48:00      -80.726     -102.183        7.722       76.205       78.771       44.550     5807.198     6204.846     1984.689        1.550        0.700      130.223       43.336        0.111      340.123       13.926      854.491
12/10/2014  18:49:00      -77.535      -96.985       28.172      118.558       99.545       60.541    14056.040     9909.194     3665.247        2.192        1.382      124.169       45.548        0.135      340.202       14.058      854.511
12/10/2014  18:50:00      -25.896     -116.440       10.454       90.079       77.641       52.575     8114.275     6028.155     2764.114        1.562        0.845      119.285       35.751        0.090      340.085       13.861      854.564
12/10/2014  18:51:00      -50.013     -105.842       -6.935      122.056       60.057       41.176    14897.741     3606.892     1695.463        1.697        1.010      117.063       29.550        0.064      340.153       13.976      854.622
12/10/2014  18:52:00     -112.848     -173.233       -7.683       75.930      113.045       47.532     5765.404    12779.091     2259.302        3.180        1.040      206.747       49.234        0.057      340.079       13.849      854.659
12/10/2014  18:53:00      -65.930     -141.402        6.356      112.840       78.617       50.682    12732.804     6180.579     2568.699        2.293        1.074      156.017       46.911        0.090      340.031       13.770      854.675
12/10/2014  18:54:00     -111.349     -125.622       11.802       80.952      124.659       42.841     6553.153    15539.748     1835.314        2.612        1.196      167.867       47.000        0.078      339.927       13.593      854.688
12/10/2014  18:55:00     -187.425     -204.959      -22.415       80.054       92.108       48.272     6408.635     8483.900     2330.222        4.743        0.861      277.734       40.303        0.021      339.967       13.659      854.691
12/10/2014  18:56:00     -158.298     -117.984       -3.215       71.282       81.771       45.018     5081.175     6686.496     2026.647        2.639        0.690      197.430       40.235        0.042      339.914       13.572      854.687
12/10/2014  18:57:00     -149.781     -175.378        4.344       82.808       87.724       56.221     6857.222     7695.458     3160.815        3.546        0.886      230.633       51.624        0.050      339.993       13.703      854.704
12/10/2014  18:58:00     -109.040     -177.542       -7.502       71.881       90.047       46.413     5166.863     8108.493     2154.190        2.945        0.771      208.353       40.236        0.037      339.980       13.684      854.789
12/10/2014  18:59:00     -145.097     -161.362       -4.574       88.141       82.244       44.390     7768.788     6764.108     1970.452        3.180        0.825      217.004       40.913        0.036      339.955       13.641      854.841
12/10/2014  19:00:00     -163.176     -144.515       -5.416       76.207       89.697       41.584     5807.535     8045.637     1729.200        3.156        0.779      217.970       37.542        0.030      339.901       13.549      854.886
12/10/2014  19:01:00     -186.411     -132.686        2.682       97.096       96.074       55.923     9427.682     9230.276     3127.396        3.707        1.089      228.811       47.037        0.042      339.816       13.405      854.961
12/10/2014  19:02:00      -80.495     -121.727        0.826       62.845       62.823       35.445     3949.497     3946.732     1256.338        1.522        0.458      145.935       32.044        0.048      339.807       13.393      854.938
12/10/2014  19:03:00      -79.897     -129.885       -3.773       88.654      100.809       39.449     7859.614    10162.539     1556.240        2.142        0.979      152.492       46.466        0.093      339.793       13.368      854.865
12/10/2014  19:04:00     -164.698     -295.207      -10.924       73.363      117.496       45.591     5382.123    13805.210     2078.578        6.782        1.063      338.042       38.533        0.013      339.836       13.438      854.885
12/10/2014  19:05:00     -145.211     -190.479       -4.531      109.630      102.571       42.810    12018.762    10520.872     1832.684        4.088        1.219      239.517       51.332        0.046      339.830       13.430      854.953
12/10/2014  19:06:00     -131.533     -112.649       -3.194      100.433       78.529       47.506    10086.830     6166.866     2256.816        2.425        0.926      173.178       27.850        0.026      339.801       13.380      854.917
12/10/2014  19:07:00      -64.740      -96.679        2.809       56.415       46.857       37.670     3182.625     2195.565     1419.045        1.017        0.340      116.353       22.529        0.037      339.794       13.370      854.836
12/10/2014  19:08:00      -97.149      -83.854       -6.920       87.766       57.232       34.218     7702.844     3275.474     1170.890        1.433        0.607      128.333       23.070        0.032      339.817       13.411      854.788
12/10/2014  19:09:00     -105.157     -207.536       -4.630       66.485      102.040       35.307     4420.229    10412.175     1246.568        3.511        0.804      232.657       40.753        0.031      339.938       13.610      854.775
12/10/2014  19:10:00      -48.747     -120.274        3.759       79.539       83.321       42.208     6326.496     6942.320     1781.504        1.595        0.753      129.777       34.063        0.069      339.787       13.359      854.773
12/10/2014  19:11:00      -79.359      -89.731       12.380      123.105       70.245       51.409    15154.767     4934.294     2642.897        1.861        1.137      119.789       55.009        0.211      339.920       13.583      854.762
12/10/2014  19:12:00       -8.240      -37.759       30.462       82.676       53.957       38.458     6835.396     2911.410     1479.027        0.682        0.561       38.648       41.395        1.147      339.896       13.541      854.760
12/10/2014  19:13:00      -56.466     -169.150      -24.476       95.583      118.776       51.217     9136.133    14107.855     2623.146        2.913        1.293      178.326       50.716        0.081      340.064       13.824      854.806
12/10/2014  19:14:00       58.294     -315.414       -7.914      120.511      143.047       74.877    14522.800    20462.434     5606.557        7.176        2.030      320.756       62.325        0.038      340.243       14.126      854.812
12/10/2014  19:15:00       29.756     -211.147      -25.774      111.401       99.606       72.285    12410.211     9921.274     5225.129        3.684        1.378      213.233       48.652        0.052      340.244       14.128      854.791
12/10/2014  19:16:00       44.193     -187.571       16.340      181.747      210.805      109.082    33031.894    44438.775    11898.919        6.337        4.468      192.707      112.824        0.343      340.334       14.279      854.671
12/10/2014  19:17:00       47.123     -192.057        6.403      121.532      116.713       81.569    14769.923    13621.914     6653.534        3.709        1.752      197.754       70.698        0.128      340.375       14.349      854.694
12/10/2014  19:18:00       -9.737     -180.243       19.894      162.582      135.506       72.419    26433.023    18361.844     5244.584        4.150        2.502      180.506       51.394        0.081      340.315       14.247      854.711
12/10/2014  19:19:00      -56.154     -194.497       19.362       93.613      115.904       69.506     8763.322    13433.638     4831.054        3.419        1.351      202.441       69.435        0.118      340.347       14.303      854.709
12/10/2014  19:20:00      -17.238     -289.045        4.179      118.363      198.418       68.795    14009.724    39369.683     4732.712        7.098        2.906      289.559       59.899        0.043      340.326       14.266      854.774
12/10/2014  19:21:00       -5.022     -116.831        9.793       60.735      112.200       58.215     3688.795    12588.843     3388.954        1.671        0.983      116.939       37.987        0.106      340.196       14.049      854.803
12/10/2014  19:22:00      -21.087      -97.093       10.575      123.487       85.082       60.956    15249.039     7238.895     3715.667        1.809        1.310       99.357       42.381        0.182      340.209       14.071      854.805
12/10/2014  19:23:00       37.409     -256.378      -11.913      156.493      197.208       92.704    24490.032    38890.984     8594.032        6.961        3.599      259.093      104.432        0.162      340.305       14.231      854.798
12/10/2014  19:24:00      -29.543     -274.891        3.606      156.230      164.061       75.230    24407.790    26915.920     5659.526        6.671        2.849      276.473       59.428        0.046      340.409       14.408      854.820
12/10/2014  19:25:00      -30.031     -137.334       -8.976       76.647      121.379       55.260     5874.795    14732.812     3053.675        2.175        1.183      140.579       35.793        0.065      340.382       14.363      854.804
12/10/2014  19:26:00       37.101     -228.313        7.077      165.953      157.841       88.630    27540.297    24913.938     7855.313        5.692        3.015      231.308       65.337        0.080      340.397       14.387      854.783
12/10/2014  19:27:00       67.471     -179.449      -19.317      115.501      120.598       98.789    13340.532    14543.821     9759.347        3.738        1.882      191.714       89.508        0.218      340.326       14.265      854.785
12/10/2014  19:28:00       24.823     -258.381       -9.203      133.411       92.718       65.700    17798.401     8596.567     4316.555        4.908        1.536      259.571       53.791        0.043      340.404       14.397      854.835
12/10/2014  19:29:00        1.556     -220.108      -18.843      203.610      107.972       80.779    41456.889    11657.902     6525.260        5.421        2.982      220.113       52.756        0.057      340.396       14.383      854.822
12/10/2014  19:30:00      -29.587     -287.342       -2.911      123.958      158.207       68.026    15365.686    25029.578     4627.571        6.423        2.251      288.861       54.773        0.036      340.389       14.373      854.904
12/10/2014  19:31:00     -127.768     -148.632      -10.213      181.800      129.243       76.539    33051.290    16703.686     5858.217        4.706        2.781      196.000       80.109        0.167      340.276       14.183      855.016
12/10/2014  19:32:00     -117.325     -162.381        5.000       94.911       89.706       55.148     9008.079     8047.167     3041.357        3.012        1.005      200.331       45.394        0.051      340.295       14.214      854.986
12/10/2014  19:33:00     -140.299     -184.152       -4.949      133.803      104.865       63.255    17903.328    10996.596     4001.205        4.325        1.645      231.507       50.063        0.047      340.319       14.254      854.952
12/10/2014  19:34:00       -6.309      -68.826        5.043       74.839       76.987       47.213     5600.866     5927.065     2229.073        0.928        0.688       69.115       46.698        0.457      340.199       14.052      854.949
12/10/2014  19:35:00      -34.270     -211.176        7.405      126.571      126.443       58.424    16020.162    15987.827     3413.406        4.062        1.771      213.939       55.216        0.067      340.370       14.341      854.967
12/10/2014  19:36:00      -17.373     -121.722       -1.536       87.006       66.522       51.894     7570.078     4425.204     2692.998        1.490        0.734      122.955       17.970        0.021      340.282       14.195      854.920
12/10/2014  19:37:00      -23.819     -310.761      -20.137      106.956       77.999       51.790    11439.627     6083.897     2682.191        5.887        1.010      311.672       31.181        0.010      340.435       14.450      854.907
12/10/2014  19:38:00      -45.217     -226.829      -11.252      131.612       97.618       53.170    17321.680     9529.277     2827.092        4.164        1.484      231.292       41.287        0.032      340.350       14.306      854.893
12/10/2014  19:39:00     -133.884     -138.057      -14.325       67.337       58.718       43.187     4534.284     3447.801     1865.135        2.352        0.492      192.313       29.641        0.024      340.197       14.050      854.930
12/10/2014  19:40:00      -61.691      -81.524        0.097       68.160       54.283       30.715     4645.826     2946.607      943.386        0.949        0.427      102.235       29.308        0.082      340.207       14.068      854.970
12/10/2014  19:41:00      -91.252      -67.068       -2.151       64.705       66.519       37.640     4186.703     4424.813     1416.732        1.143        0.501      113.248       34.954        0.095      340.077       13.849      854.927
12/10/2014  19:42:00     -109.064     -117.432        2.543       85.770       92.338       42.957     7356.567     8526.306     1845.290        2.171        0.886      160.266       52.944        0.109      340.087       13.864      854.871
12/10/2014  19:43:00      -51.030     -122.618        2.950       67.633       79.811       43.481     4574.171     6369.734     1890.618        1.524        0.642      132.812       42.177        0.101      340.104       13.894      854.806
12/10/2014  19:44:00       -9.436     -119.979      -14.550      112.281       83.071       53.539    12607.055     6900.810     2866.385        1.853        1.119      120.350       46.238        0.148      340.101       13.889      854.796
12/10/2014  19:45:00      -22.809      -58.391        3.522       73.742       63.275       43.386     5437.901     4003.668     1882.357        0.763        0.566       62.688       37.218        0.352      340.153       13.976      854.752
12/10/2014  19:46:00      -74.836      -66.140        2.389       74.823       56.256       34.434     5598.546     3164.717     1185.711        0.996        0.497       99.875       26.861        0.072      340.033       13.774      854.712
12/10/2014  19:47:00     -190.695     -131.508       -3.378       80.150       54.021       42.398     6424.006     2918.247     1797.610        3.240        0.557      231.644       41.161        0.032      339.932       13.602      854.739
12/10/2014  19:48:00     -128.184     -169.051       -0.051       85.428      119.154       41.534     7297.890    14197.750     1725.112        3.411        1.161      212.154       37.337        0.031      339.892       13.534      854.770
12/10/2014  19:49:00     -101.327     -109.670        5.045       69.045       74.378       45.707     4767.192     5532.041     2089.171        1.735        0.619      149.314       41.423        0.077      339.936       13.611      854.746
12/10/2014  19:50:00     -134.951     -124.332       11.540      132.305       96.701       53.726    17504.518     9351.176     2886.455        3.177        1.487      183.495       60.511        0.109      339.923       13.587      854.737
12/10/2014  19:51:00     -186.939     -209.383      -15.821       74.220       84.447       47.815     5508.599     7131.370     2286.280        4.698        0.746      280.691       26.553        0.009      340.047       13.793      854.723
12/10/2014  19:52:00     -136.247     -188.711       -6.264       63.508       76.959       44.706     4033.275     5922.669     1998.653        3.308        0.598      232.755       23.697        0.010      340.184       14.026      854.739
12/10/2014  19:53:00      -70.331     -155.850       -4.963       98.945       83.399       39.855     9790.210     6955.383     1588.431        2.379        0.917      170.984       41.606        0.059      340.031       13.769      854.775
12/10/2014  19:54:00      -49.664     -104.743       -7.980       55.717       59.617       36.968     3104.387     3554.156     1366.619        1.076        0.401      115.921       25.599        0.049      340.012       13.739      854.801
12/10/2014  19:55:00     -127.300     -186.822        3.448       79.275       98.076       51.936     6284.559     9618.907     2697.399        3.486        0.930      226.070       53.068        0.055      339.989       13.699      854.877
12/10/2014  19:56:00     -126.166     -134.239        1.344       91.206       70.986       42.800     8318.457     5039.070     1831.808        2.456        0.759      184.223       40.984        0.049      339.917       13.576      854.941
12/10/2014  19:57:00     -141.267     -133.121        8.646       87.515      107.844       54.135     7658.797    11630.241     2930.553        2.998        1.111      194.107       51.379        0.070      339.927       13.594      854.933
12/10/2014  19:58:00      -10.211     -160.287      -10.910       98.403       75.096       42.970     9683.075     5639.364     1846.464        2.154        0.858      160.612       37.197        0.054      340.042       13.789      854.917
12/10/2014  19:59:00      -42.154     -156.740      -12.953       51.294       85.215       39.336     2631.078     7261.599     1547.312        1.897        0.572      162.309       26.508        0.027      339.970       13.667      854.958
12/10/2014  20:00:00      -94.618     -132.830       -6.442       60.928       69.384       33.625     3712.259     4814.204     1130.652        1.815        0.483      163.084       17.407        0.011      339.941       13.618      854.957
12/10/2014  20:01:00      -68.219      -97.290       -7.748       53.997       54.023       33.126     2915.699     2918.477     1097.353        1.055        0.347      118.824       25.192        0.045      339.969       13.666      854.920
12/10/2014  20:02:00      -27.538      -61.370       13.954       95.455       80.146       38.393     9111.657     6423.330     1474.041        1.086        0.850       67.266       44.722        0.442      339.810       13.399      854.873
12/10/2014  20:03:00     -102.780     -167.909        0.789       83.580       80.518       37.482     6985.615     6483.197     1404.871        2.681        0.744      196.869       25.360        0.017      339.882       13.519      854.871
12/10/2014  20:04:00     -161.127     -119.260       -2.207      112.671      100.042       56.295    12694.826    10008.473     3169.181        3.303        1.294      200.461       36.671        0.033      339.968       13.662      854.874
12/10/2014  20:05:00     -159.479     -180.246      -14.738      144.425       94.479       58.716    20858.520     8926.189     3447.577        4.568        1.662      240.670       46.171        0.037      340.001       13.718      854.896
12/10/2014  20:06:00     -131.448     -192.337        1.507      119.246      135.200       59.234    14219.716    18278.986     3508.725        4.513        1.800      232.964       49.143        0.044      340.074       13.842      854.944
12/10/2014  20:07:00     -127.873     -173.712      -12.199      164.419      103.655       59.132    27033.478    10744.387     3496.541        4.397        2.064      215.702       70.811        0.108      340.156       13.978      854.939
12/10/2014  20:08:00      -55.075      -69.902       20.521       58.894       51.815       36.371     3468.541     2684.806     1322.822        0.791        0.374       88.992       23.404        0.069      340.104       13.895      854.917
12/10/2014  20:09:00     -174.586     -217.696      -15.198       94.790      119.338       48.199     8985.118    14241.502     2323.110        5.182        1.277      279.055       31.971        0.013      340.075       13.843      854.871
12/10/2014  20:10:00     -161.128     -214.347       -9.573      129.078       92.841       53.637    16661.173     8619.479     2876.922        5.007        1.408      268.155       50.599        0.036      340.044       13.791      854.879
12/10/2014  20:11:00     -158.862     -185.361       -3.707       92.017       89.998       51.602     8467.081     8099.626     2662.720        3.942        0.961      244.123       41.559        0.029      339.984       13.688      854.918
12/10/2014  20:12:00     -143.404     -260.063       -8.150       80.124       88.373       53.214     6419.905     7809.806     2831.781        5.266        0.853      296.980       48.901        0.027      339.943       13.619      854.936
12/10/2014  20:13:00     -187.276     -176.503       -1.303      113.960      108.128       58.916    12986.816    11691.566     3471.099        4.718        1.407      257.343       57.410        0.050      339.884       13.519      854.900
12/10/2014  20:14:00     -206.525     -107.380        5.543      114.168       87.033       55.998    13034.300     7574.757     3135.804        3.897        1.187      232.773       59.417        0.065      339.887       13.524      854.861
12/10/2014  20:15:00     -154.423      -89.669        7.807      128.243       71.759       51.606    16446.388     5149.418     2663.175        2.810        1.213      178.570       60.446        0.115      339.880       13.515      854.793
12/10/2014  20:16:00     -202.298     -134.467       -1.193       94.149       77.489       57.283     8863.996     6004.577     3281.335        3.857        0.907      242.911       42.073        0.030      339.842       13.447      854.795
12/10/2014  20:17:00      -95.438      -88.899       13.220      110.801       65.586       47.145    12276.788     4301.510     2222.688        1.799        0.940      130.428       53.008        0.165      339.794       13.369      854.772
12/10/2014  20:18:00     -121.874      -94.968        5.103       82.564       76.611       42.232     6816.809     5869.211     1783.544        1.918        0.723      154.506       38.694        0.063      339.826       13.425      854.772
12/10/2014  20:19:00     -129.737     -112.601       15.767      113.355       96.703       52.882    12849.388     9351.487     2796.503        2.737        1.250      171.787       63.870        0.138      339.838       13.444      854.763
12/10/2014  20:20:00     -152.049     -175.732       -2.076       91.182       97.229       46.679     8314.234     9453.488     2178.913        3.697        0.997      232.380       41.062        0.031      339.897       13.543      854.750
12/10/2014  20:21:00     -122.923     -165.499        1.440       87.435       95.694       52.382     7644.881     9157.402     2743.865        3.102        0.977      206.155       39.143        0.036      339.936       13.609      854.757
12/10/2014  20:22:00      -69.667     -131.517       -8.088       66.215       61.873       38.934     4384.375     3828.311     1515.871        1.597        0.486      148.829       33.204        0.050      339.914       13.574      854.771
12/10/2014  20:23:00     -153.756     -213.869       -9.426       85.116      115.432       47.413     7244.818    13324.445     2248.027        4.614        1.141      263.402       42.253        0.026      339.963       13.652      854.796
12/10/2014  20:24:00       -2.198     -117.141       -6.201       68.643       97.387       46.697     4711.819     9484.230     2180.629        1.507        0.819      117.161       22.964        0.038      339.926       13.593      854.834
12/10/2014  20:25:00     -198.535     -121.422      -18.179       77.632       66.162       35.190     6026.754     4377.380     1238.334        3.306        0.582      232.722       15.582        0.004      339.931       13.598      854.865
12/10/2014  20:26:00     -194.974      -74.742        2.116       92.478       87.694       45.962     8552.147     7690.278     2112.485        3.098        0.918      208.809       34.611        0.027      339.866       13.489      854.870
12/10/2014  20:27:00     -179.405     -138.289        5.238      146.516       94.097       64.419    21467.012     8854.172     4149.802        4.290        1.724      226.517       76.738        0.115      339.928       13.595      854.859
12/10/2014  20:28:00     -131.300     -105.246        5.846       88.266       86.647       43.216     7790.880     7507.761     1867.634        2.276        0.858      168.275       50.739        0.091      339.831       13.432      854.898
12/10/2014  20:29:00     -216.406     -165.283        4.139      102.695       75.763       43.724    10546.166     5739.974     1911.750        4.618        0.910      272.305       47.802        0.031      339.840       13.447      854.933
12/10/2014  20:30:00     -202.846     -195.466        4.909      115.664      119.721       60.397    13378.052    14333.084     3647.790        5.536        1.568      281.697       62.040        0.049      339.901       13.548      854.978
12/10/2014  20:31:00     -204.051     -171.328        0.397      140.317      107.921       66.636    19688.861    11647.046     4440.330        5.338        1.789      266.439       73.119        0.075      339.885       13.522      854.977
12/10/2014  20:32:00     -147.815     -231.452        0.557      117.917      123.035       62.520    13904.515    15137.687     3908.780        5.418        1.648      274.626       58.822        0.046      339.916       13.574      854.973
12/10/2014  20:33:00      -44.917     -122.759       -8.705      118.295       84.129       58.075    13993.774     7077.723     3372.758        2.080        1.222      130.718       49.920        0.146      339.964       13.658      854.892
12/10/2014  20:34:00       24.642     -111.545        8.119       87.001      117.474       68.178     7569.177    13800.214     4648.174        1.956        1.301      114.235       69.400        0.369      340.095       13.880      854.764
12/10/2014  20:35:00      -13.826     -174.190      -10.539       92.498      102.729       42.266     8555.940    10553.250     1786.425        2.577        1.045      174.738       24.327        0.019      340.060       13.818      854.813
12/10/2014  20:36:00      -46.147      -98.565        9.982       64.958       62.060       42.089     4219.491     3851.429     1771.490        1.089        0.492      108.833       29.606        0.074      339.937       13.613      854.847
12/10/2014  20:37:00      -82.412      -54.727       13.846       91.999       68.700       44.079     8463.753     4719.671     1942.926        1.255        0.756       98.928       56.107        0.322      339.821       13.416      854.809
12/10/2014  20:38:00     -136.614     -140.167        2.723       62.324       57.739       39.631     3884.315     3333.787     1570.611        2.355        0.439      195.730       36.022        0.034      339.826       13.423      854.814
12/10/2014  20:39:00     -122.581     -127.313        7.765       91.380       56.018       43.810     8350.353     3137.970     1919.311        2.235        0.670      176.733       31.511        0.032      339.843       13.452      854.787
12/10/2014  20:40:00     -164.487     -142.739       -4.787       90.866       60.408       43.527     8256.593     3649.177     1894.575        3.062        0.690      217.785       31.118        0.020      339.760       13.311      854.774
12/10/2014  20:41:00     -105.064     -143.115       21.872       90.417      113.080       55.176     8175.223    12787.091     3044.361        2.800        1.200      177.539       53.636        0.091      339.743       13.284      854.792
12/10/2014  20:42:00      -80.355     -173.001        6.742       71.519       62.101       36.330     5115.002     3856.492     1319.894        2.336        0.515      190.752       31.875        0.028      339.744       13.285      854.795
12/10/2014  20:43:00     -123.149     -131.753        2.134       76.002       93.757       43.943     5776.367     8790.369     1930.944        2.451        0.825      180.345       41.108        0.052      339.748       13.292      854.765
12/10/2014  20:44:00     -151.267     -167.702        5.465       69.444       73.897       38.141     4822.410     5460.779     1454.767        3.138        0.587      225.844       31.457        0.019      339.728       13.257      854.768
12/10/2014  20:45:00     -134.113     -189.996       -5.260      102.123      110.899       62.826    10429.099    12298.507     3947.084        4.039        1.334      232.561       54.823        0.056      339.764       13.318      854.811
12/10/2014  20:46:00     -119.645     -106.095       10.415      115.005       89.197       50.161    13226.172     7956.156     2516.151        2.468        1.185      159.910       50.956        0.102      339.681       13.179      854.809
12/10/2014  20:47:00      -73.118     -145.449       19.219       58.381       76.076       42.455     3408.308     5787.559     1802.430        1.893        0.550      162.793       27.107        0.028      339.702       13.216      854.771
12/10/2014  20:48:00      -68.075     -126.546        0.919       58.748       61.849       35.663     3451.378     3825.259     1271.877        1.460        0.427      143.695       28.900        0.040      339.723       13.251      854.752
12/10/2014  20:49:00     -121.807     -105.334      -11.842       63.215       64.532       33.559     3996.099     4164.332     1126.195        1.768        0.464      161.035       28.602        0.032      339.724       13.252      854.729
12/10/2014  20:50:00      -73.461     -155.167      -13.287       85.669       49.616       33.430     7339.132     2461.699     1117.575        2.028        0.546      171.678       18.510        0.012      339.740       13.279      854.768
12/10/2014  20:51:00     -143.196     -122.717       -5.784       86.204       65.062       36.242     7431.058     4233.075     1313.508        2.429        0.649      188.586       34.315        0.033      339.694       13.200      854.808
12/10/2014  20:52:00     -189.300     -192.189      -15.805       93.183       91.972       52.754     8683.079     8458.790     2782.947        4.647        0.996      269.761       56.631        0.044      339.712       13.229      854.803
12/10/2014  20:53:00      -96.404      -93.205       -5.262       58.813       47.027       33.582     3458.917     2211.540     1127.728        1.240        0.340      134.093       22.745        0.029      339.670       13.162      854.771
12/10/2014  20:54:00      -74.093      -65.402        0.070       61.566       55.067       34.577     3790.415     3032.336     1195.583        0.889        0.401       98.829       27.429        0.077      339.702       13.217      854.762
12/10/2014  20:55:00     -112.418     -146.402       -2.950       83.323       89.627       55.380     6942.733     8032.929     3066.930        2.606        0.902      184.584       55.055        0.089      339.723       13.248      854.801
12/10/2014  20:56:00     -206.724     -241.333      -15.268       70.116       88.701       44.460     4916.196     7867.825     1976.669        5.798        0.738      317.768       39.051        0.015      339.790       13.361      854.819
12/10/2014  20:57:00      -65.417      -86.002       10.329       95.719       75.360       36.957     9162.222     5679.055     1365.792        1.399        0.810      108.054       43.713        0.164      339.717       13.240      854.779
12/10/2014  20:58:00      -19.212      -77.603        5.297       83.711       62.307       37.469     7007.487     3882.120     1403.913        0.935        0.615       79.946       42.793        0.287      339.753       13.305      854.678
12/10/2014  20:59:00       23.960     -137.383        5.153       96.540       79.418       39.177     9319.899     6307.214     1534.801        1.831        0.858      139.457       22.499        0.026      339.951       13.635      854.624
12/10/2014  21:00:00      -92.606      -67.882       -9.838       98.515       49.991       30.606     9705.222     2499.055      936.710        1.321        0.657      114.821       33.756        0.086      339.684       13.184      854.661
12/10/2014  21:01:00      -56.792      -62.287       19.933       93.547       95.786       47.811     8750.986     9175.026     2285.932        1.385        1.011       84.291       51.915        0.379      339.669       13.159      854.680
12/10/2014  21:02:00     -110.943      -75.439       11.996       80.380       51.949       36.122     6460.920     2698.700     1304.808        1.430        0.523      134.162       42.547        0.101      339.630       13.092      854.655
12/10/2014  21:03:00      -47.018      -95.311        8.486       46.488       48.716       31.866     2161.112     2373.213     1015.450        0.846        0.277      106.278       32.806        0.095      339.652       13.132      854.617
12/10/2014  21:04:00     -112.531      -68.683        3.469      109.621       85.927       39.444    12016.763     7383.398     1555.843        1.917        1.048      131.836       33.832        0.066      339.645       13.119      854.594
12/10/2014  21:05:00     -112.550     -117.945       15.057      124.339       84.115       50.300    15460.308     7075.410     2530.120        2.593        1.253      163.029       34.020        0.044      339.719       13.243      854.593
12/10/2014  21:06:00       25.547      -88.755       42.066       85.819       93.993       69.707     7364.921     8834.700     4859.015        1.567        1.053       92.359       62.929        0.464      339.740       13.280      854.580
12/10/2014  21:07:00      -52.961     -110.187       -1.129       70.633       78.312       41.742     4989.029     6132.731     1742.412        1.390        0.643      122.254       40.538        0.110      339.805       13.389      854.550
12/10/2014  21:08:00       35.074      -77.682        0.379       90.164       66.297       51.978     8129.522     4395.335     2701.683        1.124        0.761       85.233       34.046        0.160      339.886       13.528      854.496
12/10/2014  21:09:00      -34.427      -58.166       -6.470       64.215       83.974       41.731     4123.581     7051.551     1741.463        0.876        0.646       67.591       37.269        0.304      339.815       13.407      854.481
12/10/2014  21:10:00       25.362     -180.524        5.895      122.316       80.174       53.407    14961.244     6427.943     2852.288        2.875        1.212      182.297       42.362        0.054      339.969       13.665      854.420
12/10/2014  21:11:00      -42.274     -150.027        2.320       98.237       78.003       59.443     9650.473     6084.505     3533.423        2.178        0.963      155.870       36.829        0.056      339.989       13.698      854.307
12/10/2014  21:12:00      -78.223      -54.723       12.387       70.904       59.517       42.177     5027.332     3542.239     1778.924        0.981        0.517       95.464       37.253        0.152      339.789       13.363      854.228
12/10/2014  21:13:00      -62.170     -108.183       -3.996       79.347      101.365       41.198     6296.010    10274.802     1697.311        1.692        0.913      124.774       34.853        0.078      339.876       13.509      854.239
12/10/2014  21:14:00       12.706     -122.280       -2.649      120.957      147.223       48.950    14630.641    21674.666     2396.056        2.690        1.935      122.938       49.520        0.162      339.895       13.540      854.268
12/10/2014  21:15:00      -54.348      -67.746       -1.926       53.532       51.003       31.259     2865.704     2601.353      977.123        0.699        0.322       86.852       18.205        0.044      339.832       13.435      854.268
12/10/2014  21:16:00       18.033     -132.966        9.699      126.709      156.349       64.110    16055.293    24445.033     4110.092        3.135        2.231      134.183       56.124        0.175      339.811       13.398      854.262
12/10/2014  21:17:00       19.074       -7.691       42.963       40.105       71.407       49.301     1608.446     5099.011     2430.628        0.570        0.457       20.566       47.638        5.365      339.809       13.398      854.201
12/10/2014  21:18:00       17.484        1.024       42.924       29.868       48.705       40.246      892.126     2372.162     1619.714        0.352        0.244       17.514       37.077        4.482      339.708       13.227      854.192
12/10/2014  21:19:00      -19.156      -83.336      -12.210       44.581       48.485       26.151     1987.449     2350.821      683.859        0.624        0.251       85.509       29.669        0.120      339.726       13.259      854.224
12/10/2014  21:20:00     -110.854      -91.694       -2.497       86.961       62.743       34.088     7562.231     3936.647     1161.962        1.668        0.633      143.862       40.008        0.077      339.750       13.297      854.290
12/10/2014  21:21:00      -45.357     -220.597       -8.694       69.285      127.728       54.338     4800.444    16314.560     2952.667        3.743        1.203      225.211       43.301        0.037      339.876       13.507      854.342
12/10/2014  21:22:00     -175.104     -139.805        2.796      104.525      136.172       58.763    10925.453    18542.871     3453.088        4.156        1.646      224.068       60.215        0.072      339.868       13.493      854.286
12/10/2014  21:23:00     -127.881     -174.408        6.742      110.758      104.331       55.278    12267.349    10885.051     3055.685        3.651        1.310      216.268       58.358        0.073      339.750       13.294      854.301
12/10/2014  21:24:00     -172.038     -183.394        9.187      132.872      116.735       66.746    17654.867    13626.978     4455.055        4.952        1.787      251.456       65.516        0.068      339.719       13.242      854.360
12/10/2014  21:25:00     -198.092     -161.769       -1.516      139.210      127.477       77.684    19379.480    16250.492     6034.729        5.353        2.083      255.753       58.786        0.053      339.864       13.485      854.428
12/10/2014  21:26:00     -139.361     -109.213        9.606       92.468       73.444       44.652     8550.383     5394.019     1993.788        2.369        0.797      177.056       49.055        0.077      339.737       13.273      854.455
12/10/2014  21:27:00     -116.162     -120.831       -1.718       86.937      100.295       39.004     7558.087    10059.019     1521.342        2.361        0.957      167.612       36.019        0.046      339.710       13.228      854.440
12/10/2014  21:28:00     -139.456      -98.782       -2.249       59.934       41.104       36.672     3592.109     1689.548     1344.854        1.792        0.331      170.897       32.380        0.036      339.665       13.153      854.419
12/10/2014  21:29:00     -119.740     -131.720       14.506       94.084       78.367       45.424     8851.888     6141.371     2063.380        2.447        0.853      178.011       39.669        0.050      339.675       13.170      854.396
12/10/2014  21:30:00     -111.791     -178.862       -1.786       79.129       67.098       37.860     6261.417     4502.093     1433.381        2.834        0.610      210.924       36.267        0.030      339.723       13.247      854.380
12/10/2014  21:31:00     -143.392     -151.708       -0.943       91.460       59.572       40.191     8364.881     3548.792     1615.346        2.855        0.676      208.750       29.929        0.021      339.664       13.149      854.333
12/10/2014  21:32:00     -118.392     -146.110       -2.576       70.276       93.455       41.524     4938.665     8733.787     1724.231        2.538        0.770      188.055       40.028        0.045      339.582       13.011      854.338
12/10/2014  21:33:00     -152.945     -164.597       -6.186       71.925      109.781       42.692     5173.138    12051.858     1822.584        3.478        0.952      224.687       40.426        0.032      339.540       12.941      854.342
12/10/2014  21:34:00     -247.292     -126.847       -4.053       89.395       80.307       48.303     7991.432     6449.245     2333.226        4.701        0.839      277.928       51.016        0.034      339.500       12.873      854.357
12/10/2014  21:35:00     -182.733     -106.311       -8.739       86.645       70.414       46.243     7507.438     4958.070     2138.433        2.968        0.730      211.408       35.717        0.029      339.522       12.910      854.354
12/10/2014  21:36:00     -190.416     -161.338      -10.634      102.645       96.023       56.564    10536.036     9220.363     3199.469        4.267        1.148      249.576       48.266        0.037      339.523       12.910      854.372
12/10/2014  21:37:00     -222.168     -178.893       -6.381      129.950       90.756       58.809    16887.127     8236.715     3458.476        5.499        1.429      285.239       67.548        0.056      339.590       13.023      854.383
12/10/2014  21:38:00     -266.683     -150.567        2.454      121.302       97.046       62.953    14714.290     9417.880     3963.093        6.094        1.405      306.252       56.581        0.034      339.645       13.117      854.371
12/10/2014  21:39:00     -275.993     -145.178       -4.533      125.420      102.603       62.525    15730.180    10527.323     3909.332        6.371        1.508      311.847       58.744        0.035      339.583       13.011      854.324
12/10/2014  21:40:00     -249.448     -154.748       -5.405      134.070      109.592       57.422    17974.689    12010.340     3297.337        5.973        1.664      293.550       56.745        0.037      339.601       13.043      854.327
12/10/2014  21:41:00     -203.389     -136.537       -0.475      121.960       88.840       57.594    14874.223     7892.510     3317.125        4.304        1.304      244.968       57.882        0.056      339.617       13.069      854.375
12/10/2014  21:42:00     -241.545     -155.788        1.246      128.816      122.873       76.207    16593.582    15097.800     5807.471        6.005        1.875      287.427       77.001        0.072      339.705       13.217      854.415
12/10/2014  21:43:00     -290.141     -207.631      -20.823      134.969      117.889       66.946    18216.498    13897.799     4481.761        8.215        1.830      356.781       71.351        0.040      339.767       13.322      854.471
12/10/2014  21:44:00     -245.689     -167.775        2.823      127.535       99.888       56.604    16265.221     9977.603     3203.965        5.898        1.472      297.509       57.134        0.037      339.747       13.289      854.474
12/10/2014  21:45:00     -216.859     -187.142      -12.430      126.028      128.370       63.817    15883.130    16478.904     4072.643        5.931        1.822      286.443       44.676        0.024      339.748       13.291      854.475
12/10/2014  21:46:00     -260.013     -191.444      -18.252      100.262      123.061       53.056    10052.474    15144.011     2814.968        6.630        1.401      322.889       50.594        0.025      339.778       13.341      854.554
12/10/2014  21:47:00     -239.629     -124.608        6.055      136.584       97.891       70.519    18655.268     9582.698     4972.954        5.309        1.661      270.091       67.785        0.063      339.811       13.395      854.518
12/10/2014  21:48:00     -159.977      -75.018       11.835      122.624       76.166       61.784    15036.583     5801.211     3817.314        2.800        1.233      176.692       61.508        0.121      339.838       13.443      854.434
12/10/2014  21:49:00     -183.824     -132.946        8.085      127.367       85.907       59.866    16222.399     7379.970     3583.982        3.935        1.359      226.861       61.755        0.074      339.787       13.355      854.469
12/10/2014  21:50:00     -134.058     -104.770       30.311      169.452       90.720       66.245    28713.975     8230.037     4388.394        3.559        2.067      170.142       89.968        0.280      339.720       13.246      854.451
12/10/2014  21:51:00     -168.807     -208.617       -8.298      100.336      140.152       55.638    10067.265    19642.585     3095.635        5.244        1.640      268.359       63.236        0.056      339.759       13.311      854.384
12/10/2014  21:52:00     -224.864     -235.632      -13.825      108.593      109.251       64.634    11792.374    11935.689     4177.558        6.709        1.395      325.709       52.833        0.026      339.776       13.337      854.378
12/10/2014  21:53:00     -150.173     -180.526       -0.575      109.521      123.093       64.911    11994.773    15151.941     4213.488        4.324        1.568      234.823       70.808        0.091      339.814       13.403      854.395
12/10/2014  21:54:00     -129.676     -142.169       -4.254       98.679       97.686       47.722     9737.639     9542.513     2277.367        2.930        1.078      192.427       23.123        0.014      339.800       13.379      854.394
12/10/2014  21:55:00     -113.493     -129.010       -5.204       89.414       94.002       50.075     7994.831     8836.308     2507.527        2.444        0.967      171.826       36.599        0.045      339.870       13.496      854.301
12/10/2014  21:56:00     -133.103     -213.396       -9.373       94.077       82.774       41.515     8850.457     6851.565     1723.485        4.038        0.871      251.503       35.896        0.020      339.800       13.379      854.281
12/10/2014  21:57:00     -114.185     -228.295       -4.248      113.617      108.338       47.981    12908.727    11737.020     2302.178        4.606        1.347      255.259       36.291        0.020      339.750       13.295      854.373
12/10/2014  21:58:00     -134.059     -224.392        9.288      209.150      143.977       77.744    43743.891    20729.449     6044.173        6.945        3.526      261.388       74.353        0.081      339.913       13.569      854.423
12/10/2014  21:59:00     -163.746      -89.486        5.633      126.716       89.453       51.698    16056.830     8001.922     2672.728        3.079        1.337      186.603       37.447        0.040      339.911       13.566      854.358
12/10/2014  22:00:00     -295.414     -185.349       -8.224      147.426       89.052       62.398    21734.548     7930.198     3893.536        7.762        1.678      348.746       55.781        0.026      339.864       13.487      854.305
12/10/2014  22:01:00     -211.987     -154.829        6.383      186.690       97.227       70.986    34853.308     9453.118     5038.992        5.914        2.467      262.508       94.680        0.130      339.855       13.471      854.270
12/10/2014  22:02:00     -142.855     -142.868       -7.331       88.338       75.002       41.188     7803.619     5625.228     1696.483        2.800        0.756      202.037       31.232        0.024      339.852       13.465      854.253
12/10/2014  22:03:00     -122.047     -105.307       -2.487       84.274       71.789       34.626     7102.071     5153.615     1198.977        1.972        0.673      161.199       29.595        0.034      339.792       13.366      854.242
12/10/2014  22:04:00     -110.455     -165.941      -11.367       86.598       67.089       44.887     7499.133     4500.904     2014.812        2.694        0.701      199.341       32.789        0.027      339.810       13.398      854.254
12/10/2014  22:05:00      -42.556     -149.789       -8.667       81.467       65.993       33.258     6636.816     4355.028     1106.074        1.821        0.605      155.717       18.403        0.014      339.858       13.477      854.220
12/10/2014  22:06:00     -112.820     -152.690      -10.525       83.437       98.509       43.334     6961.654     9703.967     1877.831        2.734        0.927      189.848       43.079        0.051      339.823       13.419      854.182
12/10/2014  22:07:00     -127.390     -134.004        4.955      121.458       82.981       51.192    14752.025     6885.803     2620.596        2.923        1.213      184.893       60.219        0.106      339.738       13.275      854.266
12/10/2014  22:08:00     -155.961     -161.566        5.903       88.000      105.898       43.389     7743.988    11214.485     1882.567        3.565        1.042      224.561       46.286        0.042      339.736       13.270      854.383
12/10/2014  22:09:00      -82.874      -87.954        5.424       75.145       53.178       34.414     5646.805     2827.871     1184.321        1.214        0.483      120.847       34.258        0.080      339.725       13.256      854.383
12/10/2014  22:10:00      -39.827     -150.333       -1.336       67.666       74.709       36.351     4578.738     5581.438     1321.383        1.783        0.574      155.519       40.795        0.069      339.771       13.332      854.289
12/10/2014  22:11:00       26.101       27.043       49.771       35.243       51.870       32.322     1242.090     2690.509     1044.692        0.443        0.249       37.584       30.292        0.650      339.616       13.071      854.203
12/10/2014  22:12:00      -20.511      -22.002       33.939       60.755       62.718       38.212     3691.131     3933.511     1460.180        0.557        0.454       30.080       40.103        1.777      339.757       13.309      854.141
12/10/2014  22:13:00      -82.087      -44.953       -1.642       51.873       31.757       24.118     2690.832     1008.498      581.677        0.652        0.214       93.590       24.856        0.071      339.769       13.330      854.121
12/10/2014  22:14:00     -121.917     -100.086       -0.665       76.999       63.472       40.401     5928.844     4028.677     1632.273        1.823        0.579      157.737       40.331        0.065      339.752       13.299      854.178
12/10/2014  22:15:00     -145.665     -109.316       -6.047       91.127       84.329       43.602     8304.100     7111.461     1901.142        2.526        0.866      182.122       35.516        0.038      339.708       13.223      854.278
12/10/2014  22:16:00     -134.330     -156.620      -17.095       69.442       81.292       39.732     4822.212     6608.431     1578.650        2.794        0.650      206.336       43.348        0.044      339.634       13.100      854.346
12/10/2014  22:17:00     -164.061     -136.027       -5.125       95.256       77.421       49.047     9073.656     5993.997     2405.592        3.146        0.874      213.118       43.852        0.042      339.662       13.145      854.367
12/10/2014  22:18:00     -105.036     -194.595       -8.137       69.178       96.217       41.071     4785.580     9257.620     1686.813        3.234        0.787      221.133       48.761        0.049      339.710       13.228      854.399
12/10/2014  22:19:00     -134.429     -187.741      -21.401       61.174       92.074       33.803     3742.274     8477.594     1142.614        3.357        0.668      230.906       28.720        0.015      339.687       13.188      854.388
12/10/2014  22:20:00      -40.539      -80.264       12.835       41.698       74.157       27.105     1738.756     5499.256      734.672        0.811        0.399       89.921       22.504        0.063      339.613       13.066      854.326
12/10/2014  22:21:00      -77.993      -63.792       -9.492       43.382       48.252       24.039     1881.975     2328.247      577.862        0.751        0.239      100.759       25.070        0.062      339.630       13.095      854.243
12/10/2014  22:22:00      -45.972      -51.822       -3.082       47.311       36.774       21.942     2238.296     1352.338      481.453        0.444        0.204       69.275       14.923        0.046      339.601       13.047      854.204
12/10/2014  22:23:00      -45.075      -68.853       -8.456       32.268       27.756       17.700     1041.202      770.414      313.279        0.448        0.106       82.295       10.814        0.017      339.621       13.081      854.197
12/10/2014  22:24:00        5.662      -30.104        1.458       40.447       47.671       29.048     1635.924     2272.536      843.781        0.285        0.238       30.632       29.379        0.920      339.548       12.957      854.178
12/10/2014  22:25:00       34.687      -91.261      -11.523       54.861       40.269       28.213     3009.740     1621.590      796.001        0.754        0.271       97.630       14.298        0.021      339.601       13.046      854.224
12/10/2014  22:26:00        7.421      -85.590        4.646       47.189       42.266       37.995     2226.789     1786.438     1443.640        0.643        0.273       85.911       24.093        0.079      339.499       12.874      854.313
12/10/2014  22:27:00       12.201      -93.080      -13.908       55.072       29.068       30.370     3032.935      844.962      922.348        0.690        0.240       93.877       27.829        0.088      339.558       12.972      854.345
12/10/2014  22:28:00     -104.040      -83.830       -9.146       41.489       45.337       25.289     1721.322     2055.441      639.530        1.117        0.221      133.611       14.065        0.011      339.521       12.911      854.349
12/10/2014  22:29:00     -104.811     -105.213       -3.677       62.066       62.492       31.088     3852.192     3905.223      966.481        1.539        0.436      148.510       33.016        0.049      339.643       13.115      854.347
12/10/2014  22:30:00      -70.026      -51.880       12.200       58.089       51.338       38.045     3374.297     2635.620     1447.432        0.760        0.373       87.150       30.049        0.119      339.522       12.913      854.309
12/10/2014  22:31:00      -54.493      -84.666       -1.743       42.258       68.739       25.465     1785.727     4725.043      648.477        0.865        0.358      100.687       20.781        0.043      339.561       12.980      854.260
12/10/2014  22:32:00      -16.837      -11.665       17.448       20.017       19.482       16.104      400.691      379.545      259.325        0.088        0.052       20.483       10.489        0.262      339.423       12.746      854.209
12/10/2014  22:33:00      -36.904      -18.066        4.919       44.380       37.763       25.250     1969.562     1426.080      637.565        0.287        0.202       41.089       22.475        0.299      339.443       12.780      854.125
12/10/2014  22:34:00      -55.064      -60.327       -4.574       58.281       34.834       27.759     3396.644     1213.394      770.584        0.604        0.269       81.679       14.681        0.032      339.575       13.002      854.014
12/10/2014  22:35:00      -77.808     -120.635        3.462       64.905       61.300       38.192     4212.680     3757.748     1458.594        1.502        0.471      143.551       30.082        0.044      339.585       13.017      853.971
12/10/2014  22:36:00     -157.188     -192.343       -6.816       71.673       88.506       40.957     5136.961     7833.230     1677.454        3.820        0.732      248.403       34.034        0.019      339.611       13.060      853.994
12/10/2014  22:37:00     -141.662     -244.764      -14.513       68.454       83.440       50.173     4685.931     6962.165     2517.370        4.717        0.708      282.803       40.905        0.021      339.669       13.158      853.964
12/10/2014  22:38:00     -191.223     -186.132       -5.902       88.777       61.455       50.206     7881.397     3776.684     2520.596        4.271        0.709      266.855       45.036        0.028      339.678       13.174      853.902
12/10/2014  22:39:00      -85.941     -195.766        0.052       83.333      110.187       45.274     6944.388    12141.183     2049.743        3.342        1.057      213.799       45.124        0.045      339.716       13.237      853.918
12/10/2014  22:40:00     -159.088     -163.728        1.074       85.632       79.679       44.665     7332.776     6348.763     1994.988        3.389        0.784      228.289       37.704        0.027      339.662       13.145      853.915
12/10/2014  22:41:00     -149.232     -168.464      -10.593       88.297       69.971       42.863     7796.304     4895.904     1837.266        3.264        0.726      225.056       39.009        0.030      339.603       13.046      853.920
12/10/2014  22:42:00     -155.717     -228.376      -13.661       80.857       90.575       40.388     6537.843     8203.758     1631.171        4.648        0.819      276.412       36.648        0.018      339.625       13.083      853.922
12/10/2014  22:43:00     -107.318      -72.373        9.967       98.717       65.286       43.425     9744.985     4262.275     1885.758        1.637        0.795      129.441       22.236        0.030      339.588       13.023      853.908
12/10/2014  22:44:00     -168.491     -178.235       -6.773       82.714       78.760       54.027     6841.651     6203.124     2918.872        3.808        0.798      245.269       49.147        0.040      339.658       13.140      853.897
12/10/2014  22:45:00     -116.486     -148.374      -14.243       84.238       67.662       37.351     7096.096     4578.101     1395.076        2.443        0.653      188.637       38.288        0.041      339.568       12.990      853.939
12/10/2014  22:46:00     -141.625     -163.382       -6.237       72.442       72.868       40.551     5247.839     5309.686     1644.363        2.949        0.610      216.220       32.295        0.022      339.534       12.930      854.010
12/10/2014  22:47:00      -85.449     -137.711        6.774       63.565       88.558       47.413     4040.452     7842.444     2247.957        2.022        0.707      162.067       48.064        0.088      339.455       12.797      854.101
12/10/2014  22:48:00      -79.800      -67.463        5.751       53.480       44.397       33.493     2860.132     1971.051     1121.765        0.845        0.298      104.496       29.983        0.082      339.372       12.660      854.063
12/10/2014  22:49:00      -27.550      -69.265       -0.311       38.853       39.128       26.721     1509.543     1531.013      713.986        0.465        0.188       74.543       16.229        0.047      339.426       12.751      854.002
12/10/2014  22:50:00      -23.407      -27.317       21.602       27.304       26.446       23.981      745.509      699.382      575.079        0.189        0.101       35.974       14.171        0.155      339.293       12.527      854.002
12/10/2014  22:51:00      -39.010      -94.783      -16.325       42.689       61.001       24.834     1822.334     3721.097      616.715        0.846        0.308      102.497       23.691        0.053      339.475       12.834      854.015
12/10/2014  22:52:00      -45.627      -84.583       -4.092       36.082       49.656       36.797     1301.943     2465.684     1354.039        0.719        0.256       96.105       17.534        0.033      339.524       12.917      853.987
12/10/2014  22:53:00      -67.467      -95.288      -12.237       37.067       40.590       25.696     1373.937     1647.540      660.260        0.873        0.184      116.754       13.632        0.014      339.518       12.905      853.998
12/10/2014  22:54:00      -38.897      -50.957        5.779       39.500       54.684       24.891     1560.237     2990.388      619.553        0.466        0.259       64.107       24.063        0.141      339.441       12.776      854.015
12/10/2014  22:55:00     -108.914      -99.327        3.221       67.994       57.148       37.492     4623.222     3265.915     1405.659        1.551        0.465      147.404       32.058        0.047      339.530       12.925      854.079
12/10/2014  22:56:00      -60.559      -72.085       -0.486       89.155       66.184       38.558     7948.534     4380.294     1486.681        1.134        0.691       94.147       46.593        0.245      339.452       12.794      854.067
12/10/2014  22:57:00      -90.500     -103.442      -25.379       96.946       29.538       28.609     9398.604      872.514      818.487        1.531        0.554      137.443       35.314        0.066      339.470       12.825      853.936
12/10/2014  22:58:00       -5.392      -32.308       14.200       32.892       36.626       24.125     1081.881     1341.480      582.004        0.214        0.150       32.755       16.870        0.265      339.393       12.696      853.895
12/10/2014  22:59:00       -3.937      -10.294       -6.883       37.376       39.830       21.770     1396.943     1586.458      473.923        0.181        0.173       11.021       17.921        2.644      339.353       12.628      853.938
12/10/2014  23:00:00      -98.445      -48.317      -15.794       60.589       39.993       26.789     3671.049     1599.409      717.644        0.913        0.299      109.663       29.495        0.072      339.579       13.008      853.950
12/10/2014  23:01:00      -89.691      -38.175       -1.301       52.999       60.371       27.111     2808.892     3644.668      735.007        0.834        0.359       97.477       29.364        0.091      339.515       12.902      853.901
12/10/2014  23:02:00      -96.663      -20.638      -13.023       53.596       54.227       26.156     2872.486     2940.582      684.148        0.822        0.325       98.842       19.411        0.039      339.473       12.829      853.847
12/10/2014  23:03:00      -74.787      -66.821       25.029       84.085       83.827       41.441     7070.305     7026.915     1717.365        1.325        0.791      100.290       42.455        0.179      339.510       12.892      853.856
12/10/2014  23:04:00      -63.461     -145.719        7.732       72.763       62.327       34.308     5294.424     3884.664     1177.061        1.784        0.518      158.938       35.598        0.050      339.727       13.257      853.881
12/10/2014  23:05:00      -20.152      -83.832        6.470       39.151       72.374       36.993     1532.794     5237.938     1368.449        0.781        0.407       86.220       45.053        0.273      339.641       13.114      853.805
12/10/2014  23:06:00      -61.180      -31.002       12.197       47.848       44.597       26.090     2289.461     1988.896      680.674        0.490        0.248       68.587       23.941        0.122      339.531       12.928      853.780
12/10/2014  23:07:00     -103.176     -114.024       -5.249       73.752       87.163       33.767     5439.417     7597.441     1140.216        1.892        0.709      153.775       43.286        0.079      339.640       13.109      853.735
12/10/2014  23:08:00     -123.320      -87.500        2.763       61.474       44.887       31.716     3778.995     2014.829     1005.881        1.483        0.340      151.209       28.179        0.035      339.673       13.166      853.715
12/10/2014  23:09:00      -84.210     -151.485       -5.071       57.737       60.280       31.236     3333.610     3633.732      975.710        1.900        0.397      173.318       25.049        0.021      339.766       13.323      853.728
12/10/2014  23:10:00     -107.132     -147.855       -0.047       51.774       68.042       37.737     2680.508     4629.770     1424.108        2.103        0.437      182.588       29.708        0.026      339.703       13.216      853.760
12/10/2014  23:11:00      -81.510      -67.238        0.343       49.514       39.411       23.937     2451.600     1553.261      572.964        0.787        0.229      105.664       20.605        0.038      339.555       12.969      853.699
12/10/2014  23:12:00      -75.089      -81.145      -15.221       43.093       51.217       19.374     1857.009     2623.180      375.367        0.865        0.243      110.557       18.749        0.029      339.625       13.087      853.576
12/10/2014  23:13:00     -164.979      -29.984      -29.056       48.874       22.934       21.810     2388.688      525.965      475.685        1.618        0.170      167.682       24.590        0.022      339.710       13.229      853.458
12/10/2014  23:14:00     -109.646      -97.883       -2.158       48.897       53.739       28.668     2390.898     2887.858      821.850        1.385        0.305      146.980       27.918        0.036      339.630       13.095      853.441
12/10/2014  23:15:00     -130.119      -58.621       -2.088       62.555       40.564       34.058     3913.081     1645.474     1159.923        1.354        0.336      142.715       36.519        0.065      339.597       13.038      853.494
12/10/2014  23:16:00     -167.621     -107.094        6.449       81.559       77.257       44.338     6651.889     5968.635     1965.876        2.709        0.729      198.912       46.158        0.054      339.703       13.215      853.572
12/10/2014  23:17:00     -107.170     -145.399        2.612       70.777       60.437       31.968     5009.394     3652.690     1021.937        2.116        0.484      180.628       26.429        0.021      339.708       13.224      853.673
12/10/2014  23:18:00     -118.520     -145.023        2.417       80.689       72.963       36.335     6510.786     5323.647     1320.227        2.412        0.658      187.293       32.745        0.031      339.692       13.197      853.682
12/10/2014  23:19:00      -57.254     -104.246       -5.850       70.275       71.444       33.857     4938.641     5104.253     1146.303        1.268        0.559      118.934       31.664        0.071      339.637       13.106      853.689
12/10/2014  23:20:00     -123.192     -164.408       -3.215       82.614       76.793       43.831     6824.995     5897.189     1921.160        2.843        0.732      205.442       48.347        0.055      339.721       13.246      853.685
12/10/2014  23:21:00      -67.428     -196.991       -2.311       65.162      106.289       34.827     4246.146    11297.339     1212.905        3.005        0.838      208.212       22.617        0.012      339.781       13.347      853.653
12/10/2014  23:22:00      -87.975     -150.671       -3.693       38.212       40.582       21.770     1460.130     1646.874      473.943        1.702        0.179      174.474       20.255        0.013      339.664       13.151      853.626
12/10/2014  23:23:00      -99.539     -121.695        0.781       57.048       54.831       33.154     3254.472     3006.492     1099.196        1.604        0.368      157.219       25.644        0.027      339.687       13.190      853.582
12/10/2014  23:24:00      -65.153     -148.597        8.023       37.863       47.551       31.295     1433.592     2261.138      979.363        1.553        0.234      162.253       22.889        0.020      339.645       13.118      853.521
12/10/2014  23:25:00      -31.739      -78.166       -1.238       34.838       34.360       32.858     1213.693     1180.601     1079.641        0.530        0.174       84.364       13.861        0.027      339.459       12.807      853.492
12/10/2014  23:26:00      -34.198      -74.901      -18.765       37.884       32.777       18.949     1435.171     1074.352      359.062        0.500        0.143       82.339       18.389        0.050      339.440       12.774      853.507
12/10/2014  23:27:00      -17.285       13.990       11.341       21.771       21.926       19.760      473.983      480.731      390.455        0.098        0.067       22.237       11.624        0.273      339.470       12.826      853.446
12/10/2014  23:28:00       10.972      -46.427       -0.681       40.996       50.774       23.025     1680.670     2578.038      530.131        0.353        0.239       47.706       24.733        0.269      339.453       12.798      853.316
12/10/2014  23:29:00      -63.514      -62.222        8.232       66.003       39.285       30.985     4356.461     1543.284      960.062        0.742        0.343       88.913       33.634        0.143      339.554       12.967      853.284
12/10/2014  23:30:00      -91.076     -136.891       -3.069       62.515       66.927       35.960     3908.085     4479.236     1293.139        1.836        0.484      164.420       34.926        0.045      339.542       12.945      853.362
12/10/2014  23:31:00     -122.543     -159.535       -8.258       63.755       51.236       34.554     4064.723     2625.163     1193.999        2.421        0.394      201.167       20.590        0.010      339.592       13.029      853.406
12/10/2014  23:32:00      -62.710      -79.418        6.752       63.243       56.677       30.590     3999.688     3212.320      935.768        0.921        0.407      101.192       31.228        0.095      339.498       12.873      853.398
12/10/2014  23:33:00      -54.057     -126.473       12.786       76.511      105.894       39.216     5853.879    11213.474     1537.894        1.884        0.930      137.541       52.701        0.147      339.542       12.945      853.379
12/10/2014  23:34:00        6.162      -49.209        5.316       47.687       67.666       39.295     2274.004     4578.752     1544.102        0.544        0.420       49.593       27.323        0.304      339.488       12.854      853.329
12/10/2014  23:35:00      -11.891      -42.561        0.663       58.886       45.912       25.879     3467.512     2107.892      669.744        0.410        0.312       44.191       21.363        0.234      339.606       13.056      853.271
12/10/2014  23:36:00       -3.220      -78.317       -9.106       62.636       40.243       20.628     3923.252     1619.520      425.519        0.610        0.298       78.383       19.948        0.065      339.614       13.068      853.245
12/10/2014  23:37:00      -52.536      -91.472       15.676      100.765       89.219       45.219    10153.662     7960.011     2044.723        1.576        1.008      105.485       53.422        0.256      339.711       13.232      853.226
12/10/2014  23:38:00        0.739      -43.792       27.880       90.354       83.988       43.642     8163.883     7053.909     1904.638        0.991        0.856       43.798       35.680        0.664      339.738       13.276      853.180
12/10/2014  23:39:00       43.439      -79.562       16.669       83.451      104.297       48.813     6963.991    10877.893     2382.735        1.436        1.011       90.648       49.949        0.304      339.705       13.219      853.156
12/10/2014  23:40:00       12.242     -151.416      -17.376       77.264       69.268       48.776     5969.717     4797.996     2379.106        1.826        0.657      151.910       28.296        0.035      340.053       13.807      853.173
12/10/2014  23:41:00      -86.563     -174.386       -6.027       78.603       84.836       50.329     6178.416     7197.144     2532.995        2.692        0.795      194.689       34.426        0.031      339.950       13.632      853.241
12/10/2014  23:42:00      -15.522     -115.827        0.196       89.425       53.056       46.668     7996.814     2814.896     2177.947        1.332        0.649      116.862       37.963        0.106      340.028       13.767      853.251
12/10/2014  23:43:00      -25.720      -39.092       20.632       51.661       59.621       25.418     2668.850     3554.664      646.076        0.474        0.343       46.794       27.401        0.343      339.860       13.484      853.233
12/10/2014  23:44:00      -70.859     -143.155       -3.051      133.261       83.960       60.188    17758.529     7049.280     3622.545        2.697        1.422      159.732       53.775        0.113      340.028       13.764      853.201
12/10/2014  23:45:00      -24.840      -74.525       -3.869       52.310       47.333       35.735     2736.326     2240.400     1276.988        0.622        0.313       78.556       32.362        0.170      340.021       13.755      853.237
12/10/2014  23:46:00       -7.078     -132.336       -5.169       65.073       58.629       42.499     4234.541     3437.325     1806.177        1.353        0.474      132.525       18.142        0.019      340.104       13.895      853.276
12/10/2014  23:47:00       57.479     -181.178      -14.704      102.457       67.030       47.759    10497.417     4493.007     2280.936        2.681        0.864      190.078       41.104        0.047      340.112       13.904      853.314
12/10/2014  23:48:00      -16.698     -129.290       -6.754       91.454       89.817       43.402     8363.878     8067.019     1883.709        1.767        0.916      130.363       27.751        0.045      340.055       13.810      853.287
12/10/2014  23:49:00       26.645      -85.933       -3.449       63.073       78.384       51.143     3978.224     6144.075     2615.559        1.042        0.637       89.969       50.674        0.317      339.972       13.671      853.245
12/10/2014  23:50:00       27.641      -47.808       12.895       51.831       43.812       38.179     2686.450     1919.455     1457.653        0.464        0.303       55.223       30.638        0.308      339.896       13.543      853.199
12/10/2014  23:51:00       69.220     -123.716       -5.318       47.961       81.520       51.035     2300.291     6645.483     2604.566        1.584        0.578      141.765       49.203        0.120      340.046       13.796      853.194
12/10/2014  23:52:00      -22.561     -111.618       -3.875       94.916       57.923       38.964     9009.015     3355.047     1518.181        1.343        0.694      113.875       26.126        0.053      340.002       13.723      853.206
12/10/2014  23:53:00      -81.257     -112.125       -4.065       82.440       65.145       54.074     6796.417     4243.887     2924.025        1.657        0.698      138.473       46.522        0.113      340.065       13.827      853.237
12/10/2014  23:54:00      -17.489      -90.028       -4.556       56.113       64.256       44.490     3148.637     4128.771     1979.324        0.884        0.463       91.711       37.573        0.168      340.078       13.851      853.236
12/10/2014  23:55:00       14.950      -68.912       -8.448       44.327       39.305       29.936     1964.926     1544.866      896.165        0.472        0.220       70.515       25.468        0.130      340.005       13.728      853.238
12/10/2014  23:56:00      -65.908      -77.088        5.264       42.914       65.798       26.941     1841.615     4329.363      725.833        0.860        0.345      101.422       28.768        0.080      339.900       13.550      853.208
12/10/2014  23:57:00       -6.453      -91.880       -6.099       77.583       60.678       38.859     6019.060     3681.820     1509.996        0.986        0.561       92.107       35.338        0.147      339.951       13.636      853.147
12/10/2014  23:58:00       83.776      -77.748       34.415       76.243      146.677       76.751     5812.980    21514.031     5890.786        2.373        1.661      114.295       86.743        0.576      339.910       13.565      853.049
12/10/2014  23:59:00       98.577     -129.558       39.310       77.896      109.603       73.969     6067.792    12012.762     5471.431        2.580        1.178      162.797       64.571        0.157      340.048       13.799      853.018
